[[{"header":{"parameterUnit":"m.s-1","parameterCategory":1,"la1":31.0,"la2":29.5877,"lo1":-88.7671,"lo2":-86.6584,"dy":0.0162,"dx":0.0185,"nx":115,"ny":88,"refTime":"2026-05-12T00:00:00:Z","depth":0,"parameterNumber":2,"parameterNumberName":"U-component_of_WINDS"},"data":[0.0,0.0,0.0,0.0,0.0,0.0,0.0,0.0,0.0,0.0,0.0,0.0,0.0,0.0,0.0,0.0,0.0,0.0,0.0,0.0,0.0,0.0,0.0,0.0,0.0,0.0,0.0,0.0,0.0,0.0,0.0,0.0,0.0,0.0,0.0,0.0,0.0,0.0,0.0,0.0,0.0,0.0,0.0,0.0,0.0,0.0,0.0,0.0,0.0,0.0,0.0,0.0,0.0,0.0,0.0,0.0,0.0,0.0,0.0,0.0,0.0,0.0,0.0,0.0,0.0,0.0,0.0,0.0,0.0,0.0,0.0,0.0,0.0,0.0,0.0,0.0,0.0,0.0,0.0,0.0,0.0,0.0,0.0,0.0,0.0,0.0,0.0,0.0,0.0,0.0,0.0,0.0,0.0,0.0,0.0,0.0,0.0,0.0,0.0,0.0,0.0,0.0,0.0,0.0,0.0,0.0,0.0,0.0,0.0,0.0,0.0,0.0,0.0,0.0,0.0,0.0,0.0,0.0,0.0,0.0,0.0,0.0,0.0,0.0,0.0,0.0,0.0,0.0,0.0,0.0,0.0,0.0,0.0,0.0,0.0,0.0,0.0,0.0,0.0,0.0,0.0,0.0,0.0,0.0,0.0,0.0,0.0,0.0,0.0,0.0,0.0,0.0,0.0,0.0,0.0,0.0,0.0,0.0,0.0,0.0,0.0,0.0,0.0,0.0,0.0,0.0,0.0,0.0,0.0,0.0,0.0,0.0,0.0,0.0,0.0,0.0,0.0,0.0,0.0,0.0,0.0,0.0,0.0,0.0,0.0,0.0,0.0,0.0,0.0,0.0,0.0,0.0,0.0,0.0,0.0,0.0,0.0,0.0,0.0,0.0,0.0,0.0,0.0,0.0,0.0,0.0,0.0,0.0,0.0,0.0,0.0,0.0,0.0,0.0,0.0,0.0,0.0,0.0,0.0,0.0,0.0,0.0,0.0,0.0,0.0,0.0,0.0,0.0,0.0,0.0,0.0,0.0,0.0,0.0,0.0,0.0,0.0,0.0,0.0,0.0,0.0,0.0,0.0,0.0,0.0,0.0,0.0,0.0,0.0,0.0,0.0,0.0,0.0,0.0,0.0,0.0,0.0,0.0,0.0,0.0,0.0,0.0,0.0,0.0,0.0,0.0,0.0,0.0,0.0,0.0,0.0,0.0,0.0,0.0,0.0,0.0,0.0,0.0,0.0,0.0,0.0,0.0,0.0,0.0,0.0,0.0,0.0,0.0,0.0,0.0,0.0,0.0,0.0,0.0,0.0,0.0,0.0,0.0,0.0,0.0,0.0,0.0,0.0,0.0,0.0,0.0,0.0,0.0,0.0,0.0,0.0,0.0,0.0,0.0,0.0,0.0,0.0,0.0,0.0,0.0,0.0,0.0,0.0,0.0,0.0,0.0,0.0,0.0,0.0,0.0,0.0,0.0,0.0,0.0,0.0,0.0,0.0,0.0,0.0,0.0,0.0,0.0,0.0,0.0,0.0,0.0,0.0,0.0,0.0,0.0,0.0,0.0,0.0,0.0,0.0,0.0,0.0,0.0,0.0,0.0,0.0,0.0,0.0,0.0,0.0,0.0,0.0,0.0,0.0,0.0,0.0,0.0,0.0,0.0,0.0,0.0,0.0,0.0,0.0,0.0,0.0,0.0,0.0,0.0,0.0,0.0,0.0,0.0,0.0,0.0,0.0,0.0,0.0,0.0,0.0,0.0,0.0,0.0,0.0,0.0,0.0,0.0,0.0,0.0,0.0,0.0,0.0,0.0,0.0,0.0,0.0,0.0,0.0,0.0,0.0,0.0,0.0,0.0,0.0,0.0,0.0,0.0,0.0,0.0,0.0,0.0,0.0,0.0,0.0,0.0,0.0,0.0,0.0,0.0,0.0,0.0,0.0,0.0,0.0,0.0,0.0,0.0,0.0,0.0,0.0,0.0,0.0,0.0,0.0,0.0,0.0,0.0,0.0,0.0,0.0,0.0,0.0,0.0,0.0,0.0,0.0,0.0,0.0,0.0,0.0,0.0,0.0,0.0,0.0,0.0,0.0,0.0,0.0,0.0,0.0,0.0,0.0,0.0,0.0,0.0,0.0,0.0,0.0,0.0,0.0,0.0,0.0,0.0,0.0,0.0,0.0,0.0,0.0,0.0,0.0,0.0,0.0,0.0,0.0,0.0,0.0,0.0,0.0,0.0,0.0,0.0,0.0,0.0,0.0,0.0,0.0,0.0,0.0,0.0,0.0,0.0,0.0,0.0,0.0,0.0,0.0,0.0,0.0,0.0,0.0,0.0,0.0,0.0,0.0,0.0,0.0,0.0,0.0,0.0,0.0,0.0,0.0,0.0,0.0,0.0,0.0,0.0,0.0,0.0,0.0,0.0,0.0,0.0,0.0,0.0,0.0,0.0,0.0,0.0,0.0,0.0,0.0,0.0,0.0,0.0,0.0,0.0,0.0,0.0,0.0,0.0,0.0,0.0,0.0,0.0,0.0,0.0,0.0,0.0,0.0,0.0,0.0,0.0,0.0,0.0,0.0,0.0,0.0,0.0,0.0,0.0,0.0,0.0,0.0,0.0,0.0,0.0,0.0,0.0,0.0,0.0,0.0,0.0,0.0,0.0,0.0,0.0,0.0,0.0,0.0,0.0,0.0,0.0,0.0,0.0,0.0,0.0,0.0,0.0,0.0,0.0,0.0,0.0,0.0,0.0,0.0,0.0,0.0,0.0,0.0,0.0,0.0,0.0,0.0,0.0,0.0,0.0,0.0,0.0,0.0,0.0,0.0,0.0,0.0,0.0,0.0,0.0,0.0,0.0,0.0,0.0,0.0,0.0,0.0,0.0,0.0,0.0,0.0,0.0,0.0,0.0,0.0,0.0,0.0,0.0,0.0,0.0,0.0,0.0,0.0,0.0,0.0,0.0,0.0,0.0,0.0,0.0,0.0,0.0,0.0,0.0,0.0,0.0,0.0,0.0,0.0,0.0,0.0,0.0,0.0,0.0,0.0,0.0,0.0,0.0,0.0,0.0,0.0,0.0,0.0,0.0,0.0,0.0,0.0,0.0,0.0,0.0,0.0,0.0,0.0,0.0,0.0,0.0,0.0,0.0,0.0,0.0,0.0,0.0,0.0,0.0,0.0,0.0,0.0,0.0,0.0,0.0,0.0,0.0,0.0,0.0,0.0,0.0,0.0,0.0,0.0,0.0,0.0,0.0,0.0,0.0,0.0,0.0,0.0,0.0,0.0,0.0,0.0,0.0,0.0,0.0,0.0,0.0,0.0,0.0,0.0,0.0,0.0,0.0,0.0,0.0,0.0,0.0,0.0,0.0,0.0,0.0,0.0,0.0,0.0,0.0,0.0,0.0,0.0,0.0,0.0,0.0,0.0,0.0,0.0,0.0,0.0,0.0,0.0,0.0,0.0,0.0,0.0,0.0,0.0,0.0,0.0,0.0,0.0,0.0,0.0,0.0,0.0,0.0,0.0,0.0,0.0,0.0,0.0,0.0,0.0,0.0,0.0,0.0,0.0,0.0,0.0,0.0,0.0,0.0,0.0,0.0,0.0,0.0,0.0,0.0,0.0,0.0,0.0,0.0,0.0,0.0,0.0,0.0,0.0,0.0,0.0,0.0,0.0,0.0,0.0,0.0,0.0,0.0,0.0,0.0,0.0,0.0,0.0,0.0,0.0,0.0,0.0,0.0,0.0,0.0,0.0,0.0,0.0,0.0,0.0,0.0,0.0,0.0,0.0,0.0,0.0,0.0,0.0,0.0,0.0,0.0,0.0,0.0,0.0,0.0,0.0,0.0,0.0,0.0,0.0,0.0,0.0,0.0,0.0,0.0,0.0,0.0,0.0,0.0,0.0,0.0,0.0,0.0,0.0,0.0,0.0,0.0,0.0,0.0,0.0,0.0,0.0,0.0,0.0,0.0,0.0,0.0,0.0,0.0,0.0,0.0,0.0,0.0,0.0,0.0,0.0,0.0,0.0,0.0,0.0,0.0,0.0,0.0,0.0,0.0,0.0,0.0,0.0,0.0,0.0,0.0,0.0,0.0,0.0,0.0,0.0,0.0,0.0,0.0,0.0,0.0,0.0,0.0,0.0,0.0,0.0,0.0,0.0,0.0,0.0,0.0,0.0,0.0,0.0,0.0,0.0,0.0,0.0,0.0,0.0,0.0,0.0,0.0,0.0,0.0,0.0,0.0,0.0,0.0,0.0,0.0,0.0,0.0,0.0,0.0,-1.9184,0.0,0.0,0.0,0.0,0.0,0.0,0.0,0.0,0.0,0.0,0.0,0.0,0.0,0.0,0.0,0.0,0.0,0.0,0.0,0.0,0.0,0.0,0.0,0.0,0.0,0.0,0.0,0.0,0.0,0.0,0.0,0.0,0.0,0.0,0.0,0.0,0.0,0.0,0.0,0.0,0.0,0.0,0.0,0.0,0.0,0.0,0.0,0.0,0.0,0.0,0.0,0.0,0.0,0.0,0.0,0.0,0.0,0.0,0.0,0.0,0.0,0.0,0.0,0.0,0.0,0.0,0.0,0.0,0.0,0.0,0.0,0.0,0.0,0.0,0.0,0.0,0.0,0.0,0.0,0.0,0.0,0.0,0.0,0.0,0.0,0.0,0.0,0.0,0.0,0.0,0.0,0.0,0.0,0.0,0.0,0.0,0.0,0.0,0.0,0.0,0.0,0.0,0.0,0.0,0.0,0.0,0.0,0.0,0.0,0.0,-1.9604,-1.9565,-1.8757,-1.8295,-1.8299,0.0,0.0,0.0,0.0,0.0,0.0,0.0,0.0,0.0,0.0,0.0,0.0,0.0,0.0,0.0,0.0,0.0,0.0,0.0,0.0,0.0,0.0,0.0,0.0,0.0,0.0,0.0,0.0,0.0,0.0,0.0,0.0,0.0,0.0,0.0,0.0,0.0,0.0,0.0,0.0,0.0,0.0,0.0,0.0,0.0,0.0,0.0,0.0,0.0,0.0,0.0,0.0,0.0,0.0,0.0,0.0,0.0,0.0,0.0,0.0,0.0,0.0,0.0,0.0,0.0,0.0,0.0,0.0,0.0,0.0,0.0,0.0,0.0,0.0,0.0,0.0,0.0,0.0,0.0,0.0,0.0,0.0,0.0,0.0,0.0,0.0,0.0,0.0,0.0,0.0,0.0,0.0,0.0,0.0,0.0,0.0,0.0,0.0,0.0,0.0,0.0,0.0,0.0,0.0,0.0,0.0,0.0,0.0,0.0,0.0,0.0,0.0,-1.8334,-1.7907,-1.7731,0.0,0.0,0.0,0.0,0.0,0.0,0.0,0.0,0.0,0.0,0.0,0.0,0.0,0.0,0.0,0.0,0.0,0.0,0.0,0.0,0.0,0.0,0.0,0.0,0.0,0.0,0.0,0.0,0.0,0.0,0.0,0.0,0.0,0.0,0.0,0.0,0.0,0.0,0.0,0.0,0.0,0.0,0.0,0.0,0.0,0.0,0.0,0.0,0.0,0.0,0.0,0.0,0.0,0.0,0.0,0.0,0.0,0.0,0.0,0.0,0.0,0.0,0.0,0.0,0.0,0.0,0.0,0.0,0.0,0.0,0.0,0.0,0.0,0.0,0.0,0.0,0.0,0.0,0.0,0.0,0.0,0.0,0.0,0.0,0.0,0.0,0.0,0.0,0.0,0.0,0.0,0.0,0.0,0.0,0.0,0.0,0.0,0.0,0.0,0.0,0.0,0.0,0.0,0.0,0.0,0.0,0.0,0.0,0.0,0.0,-1.9015,-1.9015,-1.8907,0.0,-1.7745,0.0,0.0,0.0,0.0,0.0,0.0,0.0,0.0,0.0,0.0,0.0,0.0,0.0,0.0,0.0,0.0,0.0,0.0,0.0,0.0,0.0,0.0,0.0,0.0,0.0,0.0,0.0,0.0,0.0,0.0,0.0,0.0,0.0,0.0,0.0,0.0,0.0,0.0,0.0,0.0,0.0,0.0,0.0,0.0,0.0,0.0,0.0,0.0,0.0,0.0,0.0,0.0,0.0,0.0,0.0,0.0,0.0,0.0,0.0,0.0,0.0,0.0,0.0,0.0,0.0,0.0,0.0,0.0,0.0,0.0,0.0,0.0,0.0,0.0,0.0,0.0,0.0,0.0,0.0,0.0,0.0,0.0,0.0,0.0,0.0,0.0,0.0,0.0,0.0,0.0,0.0,0.0,0.0,0.0,0.0,0.0,0.0,0.0,0.0,0.0,0.0,0.0,0.0,0.0,0.0,0.0,0.0,0.0,0.0,0.0,0.0,-1.8965,-1.8504,-1.8066,0.0,0.0,0.0,0.0,0.0,0.0,0.0,0.0,0.0,0.0,0.0,0.0,0.0,0.0,0.0,0.0,0.0,0.0,0.0,0.0,0.0,0.0,0.0,0.0,0.0,0.0,0.0,0.0,0.0,0.0,0.0,0.0,0.0,0.0,0.0,0.0,0.0,0.0,0.0,0.0,0.0,0.0,0.0,0.0,0.0,0.0,0.0,0.0,0.0,0.0,0.0,0.0,0.0,0.0,0.0,0.0,0.0,0.0,0.0,0.0,0.0,0.0,0.0,0.0,0.0,0.0,0.0,0.0,0.0,0.0,0.0,0.0,0.0,0.0,0.0,0.0,0.0,0.0,0.0,0.0,0.0,0.0,0.0,0.0,0.0,0.0,0.0,0.0,0.0,0.0,0.0,0.0,0.0,0.0,0.0,0.0,0.0,0.0,0.0,0.0,0.0,0.0,0.0,0.0,0.0,0.0,0.0,0.0,0.0,0.0,-1.7449,0.0,-1.8904,-1.8161,-1.7586,-1.7355,0.0,0.0,0.0,0.0,0.0,0.0,0.0,0.0,0.0,0.0,0.0,0.0,0.0,0.0,0.0,0.0,0.0,0.0,0.0,0.0,0.0,0.0,0.0,0.0,0.0,0.0,0.0,0.0,0.0,0.0,0.0,0.0,0.0,0.0,0.0,0.0,0.0,0.0,0.0,0.0,0.0,0.0,0.0,0.0,0.0,0.0,0.0,0.0,0.0,0.0,0.0,0.0,0.0,0.0,0.0,0.0,0.0,0.0,0.0,0.0,0.0,0.0,0.0,0.0,0.0,0.0,0.0,0.0,0.0,0.0,0.0,0.0,0.0,0.0,0.0,0.0,0.0,0.0,0.0,0.0,0.0,0.0,0.0,0.0,0.0,0.0,0.0,0.0,0.0,0.0,0.0,0.0,0.0,0.0,0.0,0.0,0.0,0.0,0.0,0.0,0.0,0.0,0.0,0.0,0.0,0.0,0.0,0.0,0.0,-1.6888,-1.8103,-1.8934,-1.8142,-1.7298,0.0,0.0,0.0,0.0,0.0,0.0,0.0,0.0,0.0,0.0,0.0,0.0,0.0,0.0,0.0,0.0,0.0,0.0,0.0,0.0,0.0,0.0,0.0,0.0,0.0,0.0,0.0,0.0,0.0,0.0,0.0,0.0,0.0,0.0,0.0,0.0,0.0,0.0,0.0,0.0,0.0,0.0,0.0,0.0,0.0,0.0,0.0,0.0,0.0,0.0,0.0,0.0,0.0,0.0,0.0,0.0,0.0,0.0,0.0,0.0,0.0,0.0,0.0,0.0,0.0,0.0,0.0,0.0,0.0,0.0,0.0,0.0,0.0,0.0,0.0,0.0,0.0,0.0,0.0,0.0,0.0,0.0,0.0,0.0,0.0,0.0,0.0,0.0,0.0,0.0,0.0,0.0,0.0,0.0,0.0,0.0,0.0,0.0,0.0,0.0,0.0,0.0,0.0,0.0,0.0,0.0,0.0,0.0,0.0,-1.5272,-1.683,-1.7837,-1.8145,-1.7856,-1.7294,0.0,0.0,0.0,0.0,0.0,0.0,0.0,0.0,0.0,0.0,0.0,0.0,0.0,0.0,0.0,0.0,0.0,0.0,0.0,0.0,0.0,0.0,0.0,0.0,0.0,0.0,0.0,0.0,0.0,0.0,0.0,0.0,0.0,0.0,0.0,0.0,0.0,0.0,0.0,0.0,0.0,0.0,0.0,0.0,0.0,0.0,0.0,0.0,0.0,0.0,0.0,0.0,0.0,0.0,0.0,0.0,0.0,0.0,0.0,0.0,0.0,0.0,0.0,0.0,0.0,0.0,0.0,0.0,0.0,0.0,0.0,0.0,0.0,0.0,0.0,0.0,0.0,0.0,0.0,0.0,0.0,0.0,0.0,0.0,0.0,0.0,0.0,0.0,0.0,0.0,0.0,0.0,0.0,0.0,0.0,0.0,0.0,0.0,0.0,0.0,0.0,0.0,0.0,0.0,0.0,0.0,0.0,0.0,0.0,-1.6462,0.0,-1.8003,0.0,-1.7696,-1.716,0.0,0.0,0.0,0.0,0.0,0.0,0.0,0.0,0.0,0.0,0.0,0.0,0.0,0.0,0.0,0.0,0.0,0.0,0.0,0.0,0.0,0.0,0.0,0.0,0.0,0.0,0.0,0.0,0.0,0.0,0.0,0.0,0.0,0.0,0.0,0.0,0.0,0.0,0.0,0.0,0.0,0.0,0.0,0.0,0.0,0.0,0.0,0.0,0.0,0.0,0.0,0.0,0.0,0.0,0.0,0.0,0.0,0.0,0.0,0.0,0.0,0.0,0.0,0.0,0.0,0.0,0.0,0.0,0.0,0.0,0.0,0.0,0.0,0.0,0.0,0.0,0.0,0.0,0.0,0.0,0.0,0.0,0.0,0.0,0.0,0.0,0.0,0.0,0.0,0.0,0.0,0.0,0.0,0.0,0.0,0.0,0.0,0.0,0.0,0.0,0.0,0.0,0.0,0.0,0.0,0.0,0.0,0.0,-1.81,-1.8919,-1.8973,-1.8615,-1.7757,-1.7718,-1.6897,0.0,0.0,0.0,0.0,0.0,0.0,0.0,0.0,0.0,0.0,0.0,0.0,0.0,0.0,0.0,0.0,0.0,0.0,0.0,0.0,0.0,0.0,0.0,0.0,0.0,0.0,0.0,0.0,0.0,0.0,0.0,0.0,0.0,0.0,0.0,0.0,0.0,0.0,0.0,0.0,0.0,0.0,0.0,0.0,0.0,0.0,0.0,0.0,0.0,0.0,0.0,0.0,0.0,0.0,0.0,0.0,0.0,0.0,0.0,0.0,0.0,0.0,0.0,0.0,0.0,0.0,0.0,0.0,0.0,0.0,0.0,0.0,0.0,0.0,0.0,0.0,0.0,0.0,0.0,0.0,0.0,0.0,0.0,0.0,0.0,0.0,0.0,0.0,0.0,0.0,0.0,0.0,0.0,0.0,0.0,0.0,0.0,0.0,0.0,0.0,0.0,0.0,0.0,0.0,0.0,0.0,0.0,0.0,0.0,-1.9007,-1.9577,-1.9485,-1.8626,-1.8026,-1.716,0.0,0.0,0.0,0.0,0.0,0.0,0.0,0.0,0.0,0.0,0.0,0.0,0.0,0.0,0.0,0.0,0.0,0.0,0.0,0.0,0.0,0.0,0.0,0.0,0.0,0.0,0.0,0.0,0.0,0.0,0.0,0.0,0.0,0.0,0.0,0.0,0.0,0.0,0.0,0.0,0.0,0.0,0.0,0.0,0.0,0.0,0.0,0.0,0.0,0.0,0.0,0.0,0.0,0.0,0.0,0.0,0.0,0.0,0.0,0.0,0.0,0.0,0.0,0.0,0.0,0.0,0.0,0.0,0.0,0.0,0.0,0.0,0.0,0.0,0.0,0.0,0.0,0.0,0.0,0.0,0.0,0.0,0.0,0.0,0.0,0.0,0.0,0.0,0.0,0.0,0.0,0.0,0.0,0.0,0.0,0.0,0.0,0.0,0.0,0.0,0.0,0.0,0.0,0.0,0.0,0.0,0.0,0.0,0.0,-2.0412,-2.0966,-2.0658,-1.9527,-1.8946,-1.7921,-1.6448,0.0,0.0,0.0,0.0,0.0,0.0,0.0,0.0,0.0,0.0,0.0,0.0,0.0,0.0,0.0,0.0,0.0,0.0,0.0,0.0,0.0,0.0,0.0,0.0,0.0,0.0,0.0,0.0,0.0,0.0,0.0,0.0,0.0,0.0,0.0,0.0,0.0,0.0,0.0,0.0,0.0,0.0,0.0,0.0,0.0,0.0,0.0,0.0,0.0,0.0,0.0,0.0,0.0,0.0,0.0,0.0,0.0,0.0,0.0,0.0,0.0,0.0,0.0,0.0,0.0,0.0,0.0,0.0,0.0,0.0,0.0,0.0,0.0,0.0,0.0,0.0,0.0,0.0,0.0,0.0,0.0,0.0,0.0,0.0,0.0,0.0,0.0,0.0,0.0,0.0,0.0,0.0,0.0,0.0,0.0,0.0,0.0,0.0,0.0,0.0,0.0,0.0,0.0,0.0,0.0,0.0,0.0,0.0,-2.2855,-2.297,-2.2216,-2.0596,-2.0373,-1.9096,0.0,0.0,0.0,0.0,0.0,0.0,0.0,0.0,0.0,0.0,0.0,0.0,0.0,0.0,0.0,0.0,0.0,0.0,0.0,0.0,0.0,0.0,0.0,0.0,0.0,0.0,0.0,0.0,0.0,0.0,0.0,0.0,0.0,0.0,0.0,0.0,0.0,0.0,0.0,0.0,0.0,0.0,0.0,0.0,0.0,0.0,0.0,0.0,0.0,0.0,0.0,0.0,0.0,0.0,0.0,0.0,0.0,0.0,0.0,0.0,0.0,0.0,0.0,0.0,0.0,0.0,0.0,0.0,0.0,0.0,0.0,0.0,0.0,0.0,0.0,0.0,0.0,0.0,0.0,0.0,0.0,0.0,0.0,0.0,0.0,0.0,0.0,0.0,0.0,0.0,0.0,0.0,0.0,0.0,0.0,0.0,0.0,0.0,0.0,0.0,0.0,0.0,0.0,0.0,0.0,0.0,0.0,0.0,0.0,-2.374,-2.4971,-2.4784,-2.3088,-2.1816,-2.0255,0.0,0.0,0.0,0.0,0.0,0.0,0.0,0.0,0.0,0.0,0.0,0.0,0.0,0.0,0.0,0.0,0.0,0.0,0.0,0.0,0.0,0.0,0.0,0.0,0.0,0.0,0.0,0.0,0.0,0.0,0.0,0.0,0.0,0.0,0.0,0.0,0.0,0.0,0.0,0.0,0.0,0.0,0.0,0.0,0.0,0.0,0.0,0.0,0.0,0.0,0.0,0.0,0.0,0.0,0.0,0.0,0.0,0.0,0.0,0.0,0.0,0.0,0.0,0.0,0.0,0.0,0.0,0.0,0.0,0.0,0.0,0.0,0.0,0.0,0.0,0.0,0.0,0.0,0.0,0.0,0.0,0.0,0.0,0.0,0.0,0.0,0.0,0.0,0.0,0.0,0.0,0.0,0.0,0.0,0.0,0.0,0.0,0.0,0.0,0.0,0.0,0.0,0.0,0.0,0.0,0.0,0.0,0.0,-2.3394,-2.4586,-2.5909,-2.6124,-2.5114,-2.3093,-2.1185,0.0,0.0,0.0,0.0,0.0,0.0,0.0,0.0,0.0,0.0,0.0,0.0,0.0,0.0,0.0,0.0,0.0,0.0,0.0,0.0,0.0,0.0,0.0,0.0,0.0,0.0,0.0,0.0,0.0,0.0,0.0,0.0,0.0,0.0,0.0,0.0,0.0,0.0,0.0,0.0,0.0,0.0,0.0,0.0,0.0,0.0,0.0,0.0,0.0,0.0,0.0,0.0,0.0,0.0,0.0,0.0,0.0,0.0,0.0,0.0,0.0,0.0,0.0,0.0,0.0,0.0,0.0,0.0,0.0,0.0,0.0,0.0,0.0,0.0,0.0,0.0,0.0,0.0,0.0,0.0,0.0,0.0,0.0,0.0,0.0,0.0,0.0,0.0,0.0,0.0,0.0,0.0,0.0,0.0,0.0,0.0,0.0,0.0,0.0,0.0,0.0,0.0,0.0,0.0,0.0,0.0,0.0,0.0,-2.3832,-2.5404,-2.6288,-2.6687,-2.6532,-2.4158,-2.2048,0.0,0.0,0.0,0.0,0.0,0.0,0.0,0.0,0.0,0.0,0.0,0.0,0.0,0.0,0.0,0.0,0.0,0.0,0.0,0.0,0.0,0.0,0.0,0.0,0.0,0.0,0.0,0.0,0.0,0.0,0.0,0.0,0.0,0.0,0.0,0.0,0.0,0.0,0.0,0.0,0.0,0.0,0.0,0.0,0.0,0.0,0.0,0.0,0.0,0.0,0.0,0.0,0.0,0.0,0.0,0.0,0.0,0.0,0.0,0.0,0.0,0.0,0.0,0.0,0.0,0.0,0.0,0.0,0.0,0.0,0.0,0.0,0.0,0.0,0.0,0.0,0.0,0.0,0.0,0.0,0.0,0.0,0.0,0.0,0.0,0.0,0.0,0.0,0.0,0.0,0.0,0.0,0.0,0.0,0.0,0.0,0.0,0.0,0.0,0.0,0.0,0.0,0.0,0.0,0.0,0.0,0.0,0.0,-2.5274,-2.6313,-2.7178,-2.7294,-2.661,-2.4726,-2.2911,0.0,0.0,0.0,0.0,0.0,0.0,0.0,0.0,0.0,0.0,0.0,0.0,0.0,0.0,0.0,0.0,0.0,0.0,0.0,0.0,0.0,0.0,0.0,0.0,0.0,0.0,0.0,0.0,0.0,0.0,0.0,0.0,0.0,0.0,0.0,0.0,0.0,0.0,0.0,0.0,0.0,0.0,0.0,0.0,0.0,0.0,0.0,0.0,-1.02,0.0,0.0,0.0,0.0,0.0,0.0,0.0,0.0,0.0,0.0,0.0,0.0,0.0,0.0,0.0,0.0,0.0,0.0,0.0,0.0,0.0,0.0,0.0,0.0,0.0,0.0,0.0,0.0,0.0,0.0,0.0,0.0,0.0,0.0,0.0,0.0,0.0,0.0,0.0,0.0,0.0,0.0,0.0,0.0,0.0,0.0,0.0,0.0,0.0,0.0,0.0,0.0,0.0,0.0,0.0,0.0,0.0,0.0,0.0,-2.6346,-2.7198,-2.7659,-2.7684,-2.7198,-2.5509,-2.3794,0.0,0.0,0.0,0.0,0.0,0.0,0.0,0.0,0.0,0.0,0.0,0.0,0.0,0.0,0.0,0.0,0.0,0.0,0.0,0.0,0.0,0.0,0.0,0.0,0.0,0.0,0.0,0.0,0.0,0.0,0.0,0.0,0.0,0.0,0.0,0.0,0.0,0.0,0.0,0.0,0.0,0.0,0.0,0.0,0.0,0.0,0.0,0.0,0.0,0.0,0.0,0.0,0.0,0.0,0.0,0.0,0.0,0.0,0.0,0.0,0.0,0.0,0.0,0.0,0.0,0.0,0.0,0.0,0.0,0.0,0.0,0.0,0.0,0.0,0.0,0.0,0.0,0.0,0.0,0.0,0.0,0.0,0.0,0.0,0.0,0.0,0.0,0.0,0.0,0.0,0.0,0.0,0.0,0.0,0.0,0.0,0.0,0.0,0.0,0.0,0.0,0.0,0.0,0.0,0.0,0.0,0.0,-2.4865,-2.6948,-2.7664,-2.7818,-2.7838,-2.7684,-2.6024,-2.4289,-2.2551,0.0,0.0,0.0,0.0,0.0,0.0,0.0,0.0,0.0,0.0,0.0,0.0,0.0,0.0,0.0,0.0,0.0,0.0,0.0,0.0,0.0,0.0,0.0,0.0,0.0,0.0,0.0,0.0,0.0,0.0,0.0,0.0,0.0,0.0,0.0,0.0,0.0,0.0,-0.8932,-1.0422,0.0,0.0,0.0,0.0,0.0,0.0,0.0,0.0,-1.0798,0.0,0.0,0.0,0.0,0.0,0.0,0.0,0.0,0.0,0.0,0.0,0.0,0.0,0.0,0.0,0.0,0.0,0.0,0.0,0.0,0.0,0.0,0.0,0.0,0.0,0.0,0.0,0.0,0.0,0.0,0.0,0.0,0.0,0.0,0.0,0.0,0.0,0.0,0.0,0.0,0.0,0.0,0.0,0.0,0.0,0.0,0.0,0.0,0.0,0.0,0.0,0.0,0.0,0.0,0.0,0.0,-2.15,-2.487,-2.6659,-2.6808,-2.7525,-2.7563,-2.6813,-2.5183,-2.3491,-2.1779,0.0,0.0,0.0,0.0,0.0,0.0,0.0,0.0,0.0,0.0,0.0,0.0,0.0,0.0,0.0,0.0,0.0,0.0,0.0,0.0,0.0,0.0,0.0,0.0,0.0,0.0,0.0,0.0,0.0,0.0,0.0,0.0,0.0,0.0,0.0,0.0,0.0,0.0,0.0,-1.1724,-1.2362,0.0,0.0,0.0,0.0,0.0,0.0,0.0,0.0,-1.0104,0.0,0.0,0.0,0.0,0.0,0.0,0.0,0.0,0.0,0.0,0.0,0.0,0.0,0.0,0.0,0.0,0.0,0.0,0.0,0.0,0.0,0.0,0.0,0.0,0.0,0.0,0.0,0.0,0.0,0.0,0.0,0.0,0.0,0.0,0.0,0.0,0.0,0.0,0.0,0.0,0.0,0.0,0.0,0.0,0.0,0.0,0.0,0.0,0.0,0.0,0.0,0.0,0.0,0.0,0.0,-2.2254,-2.5543,-2.7044,-2.6659,-2.7467,-2.7274,-2.5942,-2.4298,-2.2607,0.0,0.0,0.0,0.0,0.0,0.0,0.0,0.0,0.0,0.0,0.0,0.0,0.0,0.0,0.0,0.0,0.0,0.0,0.0,0.0,0.0,0.0,0.0,0.0,0.0,0.0,0.0,0.0,0.0,0.0,0.0,0.0,0.0,0.0,0.0,0.0,0.0,0.0,0.0,0.0,-1.2578,-1.2894,-1.2552,0.0,0.0,0.0,0.0,0.0,0.0,-1.1917,-1.1062,0.0,0.0,0.0,0.0,0.0,0.0,0.0,0.0,0.0,0.0,0.0,0.0,0.0,0.0,0.0,0.0,0.0,0.0,0.0,0.0,0.0,0.0,0.0,0.0,0.0,0.0,0.0,0.0,0.0,0.0,0.0,0.0,0.0,0.0,0.0,0.0,0.0,0.0,0.0,0.0,0.0,0.0,0.0,0.0,0.0,0.0,0.0,0.0,0.0,0.0,0.0,0.0,0.0,0.0,0.0,-2.2836,-2.6159,-2.7371,-2.6428,-2.7371,-2.6986,-2.5115,-2.3601,-2.1915,0.0,0.0,0.0,0.0,0.0,0.0,0.0,0.0,0.0,0.0,0.0,0.0,0.0,0.0,0.0,0.0,0.0,0.0,0.0,0.0,0.0,0.0,0.0,0.0,0.0,0.0,0.0,0.0,0.0,0.0,0.0,0.0,0.0,0.0,0.0,0.0,0.0,0.0,0.0,0.0,0.0,-1.3352,-1.2978,-1.2688,0.0,0.0,0.0,0.0,-1.3463,-1.2816,0.0,0.0,0.0,0.0,0.0,0.0,0.0,0.0,0.0,0.0,0.0,0.0,0.0,0.0,0.0,0.0,0.0,0.0,0.0,0.0,0.0,0.0,0.0,0.0,0.0,0.0,0.0,0.0,0.0,0.0,0.0,0.0,0.0,0.0,0.0,0.0,0.0,0.0,0.0,0.0,0.0,0.0,0.0,0.0,0.0,0.0,0.0,0.0,0.0,0.0,0.0,0.0,0.0,0.0,0.0,0.0,-2.2816,-2.6145,-2.7126,-2.5635,-2.7063,-2.6741,-2.4317,-2.3297,-2.165,0.0,0.0,0.0,0.0,0.0,0.0,0.0,0.0,0.0,0.0,0.0,0.0,0.0,0.0,0.0,0.0,0.0,0.0,0.0,0.0,0.0,0.0,0.0,0.0,0.0,0.0,0.0,0.0,0.0,0.0,0.0,0.0,0.0,0.0,0.0,0.0,0.0,0.0,0.0,0.0,0.0,-1.37,-1.4268,-1.3305,-1.2514,0.0,0.0,0.0,-1.5962,-1.4027,0.0,0.0,0.0,0.0,0.0,0.0,0.0,0.0,0.0,0.0,0.0,0.0,0.0,0.0,0.0,0.0,0.0,0.0,0.0,0.0,0.0,0.0,0.0,0.0,0.0,0.0,0.0,0.0,0.0,0.0,0.0,0.0,0.0,0.0,0.0,0.0,0.0,0.0,0.0,0.0,0.0,0.0,0.0,0.0,0.0,0.0,0.0,0.0,0.0,0.0,0.0,0.0,0.0,0.0,0.0,-2.0269,-2.2797,-2.5678,-2.6563,-2.538,-2.6524,-2.6183,-2.4168,-2.2778,-2.1092,0.0,0.0,0.0,0.0,0.0,0.0,0.0,0.0,0.0,0.0,0.0,0.0,0.0,0.0,0.0,0.0,0.0,0.0,0.0,0.0,0.0,0.0,0.0,0.0,0.0,0.0,0.0,0.0,0.0,0.0,0.0,0.0,0.0,0.0,0.0,0.0,0.0,0.0,0.0,0.0,0.0,0.0,-1.4564,-1.4715,0.0,0.0,0.0,-1.5931,-1.6515,0.0,0.0,0.0,0.0,0.0,0.0,0.0,0.0,0.0,0.0,0.0,0.0,0.0,0.0,0.0,0.0,0.0,0.0,0.0,0.0,0.0,0.0,0.0,0.0,0.0,0.0,0.0,0.0,0.0,0.0,0.0,0.0,0.0,0.0,0.0,0.0,0.0,0.0,0.0,0.0,0.0,0.0,0.0,0.0,0.0,0.0,0.0,0.0,0.0,0.0,0.0,0.0,0.0,0.0,0.0,0.0,0.0,-2.2447,-2.5197,-2.6178,-2.5365,-2.6154,-2.5798,-2.4149,-2.262,0.0,0.0,0.0,0.0,0.0,0.0,0.0,0.0,0.0,0.0,0.0,0.0,0.0,0.0,0.0,0.0,0.0,0.0,0.0,0.0,0.0,0.0,0.0,0.0,0.0,0.0,0.0,-0.4289,0.0,0.0,0.0,0.0,0.0,0.0,0.0,0.0,0.0,0.0,0.0,0.0,0.0,0.0,-1.4727,-1.5058,-1.5962,-1.5842,0.0,0.0,-1.6596,-1.6557,-1.5346,-1.4218,0.0,0.0,0.0,0.0,0.0,0.0,0.0,0.0,0.0,0.0,0.0,0.0,0.0,0.0,0.0,0.0,0.0,0.0,0.0,0.0,0.0,0.0,0.0,0.0,0.0,0.0,0.0,0.0,0.0,0.0,0.0,0.0,0.0,0.0,0.0,0.0,0.0,0.0,0.0,0.0,0.0,0.0,0.0,0.0,0.0,0.0,0.0,0.0,0.0,0.0,0.0,0.0,0.0,0.0,0.0,-2.16,-2.4889,-2.6154,-2.536,-2.6154,-2.5813,-2.4149,-2.3182,-2.1547,0.0,0.0,0.0,0.0,0.0,0.0,0.0,0.0,0.0,0.0,0.0,0.0,0.0,0.0,0.0,0.0,0.0,0.0,0.0,0.0,0.0,0.0,0.0,0.0,0.0,0.0,0.0,0.0,0.0,0.0,0.0,0.0,0.0,0.0,0.0,0.0,0.0,0.0,0.0,0.0,0.0,-1.5046,-1.6281,-1.6546,-1.6425,0.0,0.0,-1.6557,-1.6452,-1.5283,-1.4362,-1.4268,0.0,0.0,0.0,0.0,0.0,0.0,0.0,0.0,0.0,0.0,0.0,0.0,0.0,0.0,0.0,0.0,0.0,0.0,0.0,0.0,0.0,0.0,0.0,0.0,0.0,0.0,0.0,0.0,0.0,0.0,0.0,0.0,0.0,0.0,0.0,0.0,0.0,0.0,0.0,0.0,0.0,0.0,0.0,0.0,0.0,0.0,0.0,0.0,0.0,0.0,0.0,0.0,0.0,-1.8446,-2.1485,-2.4346,-2.5635,-2.5341,-2.5635,-2.55,-2.4851,-2.3505,-2.1855,0.0,0.0,0.0,0.0,0.0,0.0,0.0,0.0,0.0,0.0,0.0,0.0,0.0,0.0,0.0,0.0,0.0,0.0,0.0,0.0,0.0,0.0,0.0,0.0,0.0,0.0,0.0,0.0,-0.6899,-0.7721,-0.8558,0.0,0.0,0.0,0.0,0.0,0.0,0.0,0.0,0.0,0.0,-1.5561,-1.6467,-1.6594,0.0,0.0,-1.6463,-1.6465,-1.6412,-1.5246,-1.4342,-1.4319,-1.3118,0.0,0.0,0.0,0.0,0.0,0.0,0.0,0.0,0.0,0.0,0.0,0.0,0.0,0.0,0.0,0.0,0.0,0.0,0.0,0.0,0.0,0.0,0.0,0.0,0.0,0.0,0.0,0.0,0.0,0.0,0.0,0.0,0.0,0.0,0.0,0.0,0.0,0.0,0.0,0.0,0.0,0.0,0.0,0.0,0.0,0.0,0.0,0.0,0.0,0.0,0.0,0.0,-1.8023,-2.1115,-2.3658,-2.5038,-2.5308,-2.5308,-2.5173,-2.4904,-2.3567,-2.1889,0.0,0.0,0.0,0.0,0.0,0.0,0.0,0.0,0.0,0.0,0.0,0.0,0.0,0.0,0.0,0.0,0.0,0.0,0.0,0.0,0.0,0.0,0.0,0.0,0.0,0.0,0.0,0.0,-0.7628,-0.8413,-0.9024,0.0,0.0,0.0,0.0,0.0,0.0,0.0,0.0,0.0,0.0,-1.5845,-1.6499,-1.6594,-1.6594,-1.6594,-1.6506,-1.6384,-1.6344,-1.535,-1.459,-1.4565,0.0,0.0,0.0,0.0,0.0,0.0,0.0,0.0,0.0,0.0,0.0,0.0,0.0,0.0,0.0,0.0,0.0,0.0,0.0,0.0,0.0,0.0,0.0,0.0,0.0,0.0,0.0,0.0,0.0,0.0,0.0,0.0,0.0,0.0,0.0,0.0,0.0,0.0,0.0,0.0,0.0,0.0,0.0,0.0,0.0,0.0,0.0,0.0,0.0,0.0,0.0,0.0,0.0,0.0,-2.0312,-2.2836,-2.4485,-2.5231,-2.5288,-2.487,-2.4125,-2.3259,-2.16,-1.9035,0.0,0.0,0.0,0.0,0.0,0.0,0.0,0.0,0.0,0.0,0.0,0.0,0.0,0.0,0.0,0.0,0.0,0.0,0.0,0.0,0.0,0.0,0.0,0.0,0.0,0.0,-0.8945,-0.9047,-0.9052,0.0,0.0,0.0,0.0,0.0,0.0,0.0,0.0,0.0,0.0,-1.5181,-1.5845,-1.6499,-1.6594,-1.661,-1.661,-1.6492,-1.6357,-1.6236,-1.5675,-1.5265,0.0,0.0,0.0,0.0,0.0,0.0,0.0,0.0,0.0,0.0,0.0,0.0,0.0,0.0,0.0,0.0,0.0,0.0,0.0,0.0,0.0,0.0,0.0,0.0,0.0,0.0,0.0,-1.7139,-1.7047,0.0,0.0,0.0,0.0,0.0,0.0,0.0,0.0,0.0,0.0,0.0,-1.8007,-1.7986,0.0,0.0,0.0,0.0,0.0,0.0,0.0,0.0,0.0,0.0,0.0,0.0,-1.6888,-1.9411,-2.1951,-2.3355,-2.362,-2.3639,-2.3505,-2.324,-2.2389,-2.0215,-1.6615,0.0,0.0,0.0,0.0,0.0,0.0,0.0,0.0,0.0,0.0,0.0,0.0,0.0,0.0,0.0,0.0,0.0,0.0,0.0,0.0,0.0,0.0,0.0,0.0,0.0,-0.9152,0.0,0.0,0.0,0.0,0.0,0.0,0.0,0.0,0.0,0.0,0.0,-1.449,-1.5165,-1.5808,-1.6286,-1.6549,-1.6572,-1.6559,0.0,0.0,0.0,0.0,0.0,0.0,0.0,0.0,0.0,0.0,0.0,0.0,0.0,0.0,-1.4156,-1.2634,-1.1043,-0.9791,-0.9199,0.0,0.0,0.0,0.0,0.0,0.0,0.0,0.0,0.0,0.0,0.0,0.0,0.0,0.0,0.0,0.0,-1.8404,0.0,0.0,0.0,0.0,0.0,0.0,0.0,0.0,-2.1387,-2.1465,-2.0664,-2.0643,-2.0349,0.0,-1.9487,-1.8328,0.0,0.0,0.0,0.0,0.0,0.0,0.0,0.0,-1.6907,-1.9392,-2.1354,-2.2489,-2.2778,-2.2797,-2.2509,-2.1927,-2.0777,-1.8888,-1.6154,-1.5209,-1.3728,0.0,0.0,0.0,0.0,0.0,0.0,0.0,0.0,0.0,0.0,0.0,0.0,0.0,0.0,0.0,0.0,0.0,0.0,0.0,0.0,0.0,0.0,0.0,-0.9481,0.0,0.0,0.0,0.0,0.0,0.0,0.0,0.0,0.0,-1.3083,-1.419,-1.5177,-1.5582,-1.6129,-1.6501,-1.653,0.0,0.0,0.0,0.0,0.0,0.0,0.0,-1.6317,-1.5654,-1.5193,-1.4901,-1.4886,-1.4886,-1.4886,-1.4901,0.0,0.0,-1.4055,-1.2816,-1.1736,-1.0785,-1.0279,-0.9964,-0.987,-0.9846,-0.9728,0.0,0.0,0.0,0.0,0.0,0.0,0.0,0.0,-2.1459,-2.1865,0.0,-2.0996,0.0,0.0,0.0,0.0,0.0,0.0,0.0,0.0,-2.3633,-2.4023,-2.3223,-2.3184,-2.3164,-2.3047,-2.2246,-2.1445,-2.0466,-1.722,0.0,0.0,0.0,0.0,0.0,0.0,-1.7753,-2.0139,-2.1043,-2.187,-2.2648,-2.2682,-2.1951,-2.0369,-1.8661,-1.7722,-1.7606,-1.5346,-1.3975,-1.386,-1.0765,0.0,0.0,0.0,0.0,0.0,0.0,0.0,0.0,0.0,0.0,0.0,0.0,0.0,0.0,0.0,0.0,0.0,0.0,0.0,0.0,-1.044,0.0,0.0,0.0,0.0,0.0,0.0,0.0,0.0,0.0,0.0,-1.4059,-1.5072,-1.5823,-1.5814,0.0,0.0,0.0,0.0,-1.7354,-1.972,-1.8732,-1.7668,-1.7699,-1.7469,-1.7069,-1.6379,0.0,0.0,-1.6239,-1.6208,-1.6162,-1.6179,-1.6163,-1.594,-1.5151,-1.4559,-1.3812,-1.2566,-1.223,-1.2212,-1.2039,-1.1801,-1.1539,-2.7679,0.0,0.0,0.0,0.0,-2.3956,-2.3976,-2.3979,-2.4293,-2.4447,-2.4458,-2.3642,0.0,0.0,0.0,0.0,0.0,0.0,-2.2891,-2.373,-2.4824,-2.4883,-2.4082,-2.4062,-2.373,-2.3086,-2.2871,-2.2617,-2.2284,-2.0169,-1.8163,-1.6297,0.0,0.0,0.0,0.0,-1.8101,-1.9412,-2.0237,-2.0777,-2.1008,-2.1012,-2.08,-2.0299,-1.8673,-1.7764,-1.7745,-1.6464,-1.5179,-1.3918,-1.1846,0.0,0.0,0.0,0.0,0.0,0.0,0.0,0.0,0.0,0.0,0.0,0.0,0.0,0.0,0.0,0.0,0.0,0.0,0.0,-1.1262,-1.1328,-1.1194,0.0,0.0,0.0,0.0,0.0,0.0,0.0,0.0,0.0,-1.5766,-1.6285,-1.6817,0.0,0.0,-1.7561,-1.6536,-1.7139,-1.7607,-1.7422,0.0,0.0,0.0,-1.9071,-1.8454,-1.7746,-1.7239,-1.6916,-1.6916,-1.6532,-1.6208,-1.6208,-1.6208,-1.6081,-1.5769,-1.5119,-1.4375,-1.3488,-1.2922,-1.2509,-1.2282,-1.218,-1.2042,-3.1148,-2.8967,-2.7824,-2.732,-2.734,-2.734,-2.7176,-2.6911,-2.7303,-2.7343,-2.7059,-2.6613,-2.5942,-2.5088,-2.3919,0.0,0.0,0.0,-2.4784,-2.494,-2.582,-2.5761,-2.4941,-2.4902,-2.4648,-2.4121,-2.3769,-2.3613,-2.3593,-2.2265,-2.0796,-1.9201,0.0,0.0,-1.7626,-1.8098,-1.8733,-1.9593,-2.0089,-2.033,-2.0288,-1.9645,-1.9468,-1.9738,-1.8169,-1.7272,-1.7285,-1.6451,-1.5325,-1.3956,-1.2288,-1.1019,0.0,0.0,0.0,0.0,0.0,0.0,0.0,0.0,0.0,0.0,0.0,-0.2784,0.0,0.0,0.0,0.0,-0.9393,-1.1458,-1.218,-1.2496,0.0,0.0,0.0,0.0,0.0,0.0,0.0,-1.789,-1.7665,-1.7269,-1.7173,-1.7747,-1.8159,-1.8103,-1.8383,-1.8246,-1.7347,0.0,-1.8099,-1.7869,-1.8654,-1.9518,-2.0181,-1.9734,-1.9039,-1.833,-1.7654,-1.7238,-1.7192,-1.664,-1.6223,-1.6208,-1.6208,-1.618,-1.6095,-1.5668,-1.5123,-1.4408,-1.3893,-1.3496,-1.3174,-1.3036,-1.2913,-3.3769,-3.2955,-3.1358,-3.0618,-3.0516,-3.0503,-3.0067,-2.9484,-3.024,-3.0221,-2.9609,-2.951,-2.9032,-2.8204,-2.6629,0.0,0.0,-2.6732,-2.6656,-2.5933,-2.6657,-2.6561,-2.582,-2.5742,-2.5703,-2.5684,-2.4883,-2.4512,-2.4453,-2.3613,-2.3222,-2.3102,-1.9935,-1.8669,-1.9357,-1.9277,-1.9604,-2.0377,-2.0401,-2.0382,-2.0289,-1.867,-1.8197,-1.8989,-1.731,-1.6433,-1.647,-1.5609,-1.4736,-1.3923,-1.2312,-1.1041,-1.0229,0.0,0.0,0.0,0.0,0.0,0.0,0.0,0.0,0.0,0.0,0.0,0.0,0.0,0.0,0.0,-1.1264,0.0,-1.3232,-1.3881,0.0,0.0,0.0,-1.326,-1.1909,-1.3805,-1.5993,-1.7959,0.0,0.0,0.0,0.0,-1.9525,-1.8385,-1.8621,-1.8822,-1.8687,-1.8516,-1.8838,-1.9963,-1.9765,-1.9627,-2.0181,-1.9811,-1.9193,-1.8484,-1.7731,-1.7316,-1.7192,-1.664,-1.624,-1.6208,-1.6208,-1.6208,-1.6208,-1.6153,-1.5982,-1.53,-1.5015,-1.4803,-1.4436,-1.4199,-1.399,-3.5799,-3.5531,-3.448,-3.3374,-3.2295,-3.2282,-3.2167,-3.1974,-3.1623,-3.142,-3.1227,-2.9962,-2.8992,-2.8275,-2.7856,-2.7665,-2.7704,-2.7885,-2.7886,-2.7652,-2.7205,-2.6893,-2.6659,-2.6015,-2.5703,-2.5684,-2.5488,-2.5391,-2.5352,-2.4512,-2.4082,-2.4002,-2.2592,-2.1623,-2.1171,-2.049,-2.0276,-2.0487,-2.041,-2.0394,-2.0344,-1.8694,-1.8192,-1.9039,-1.6819,-1.5864,-1.6444,-1.5054,-1.4179,-1.3947,-1.2329,-1.1301,-1.1098,-1.027,0.0,0.0,0.0,0.0,0.0,0.0,0.0,0.0,0.0,-0.6464,-0.7393,0.0,-1.111,0.0,-1.3015,-1.4186,-1.4854,-1.549,0.0,0.0,-1.5471,-1.5219,-1.4874,-1.5709,-1.6804,-1.8062,-1.82,-1.8162,-1.8113,-1.8813,-1.9118,-1.8672,-1.967,-2.0337,-2.0061,-1.991,-1.9902,-2.0165,-2.0088,-2.0102,-2.0243,-2.0181,-1.9811,-1.9163,-1.8438,-1.7807,-1.7285,-1.6655,-1.6208,-1.6208,-1.6208,-1.6208,-1.6208,-1.6208,-1.6153,-1.5955,-1.558,-1.518,-1.4859,-1.4657,-1.4415,-3.6825,-3.6462,-3.5984,-3.5085,-3.3961,-3.3973,-3.3779,-3.341,-3.3023,-3.2491,-3.1781,-3.0542,-2.9775,-2.9419,-2.9433,-2.9419,-2.9399,-2.9402,-2.9229,-2.8839,-2.8001,-2.7378,-2.6968,-2.6112,-2.5703,-2.5703,-2.5703,-2.5703,-2.5664,-2.5215,-2.498,-2.4961,-2.412,-2.3239,-2.2374,-2.1523,-2.0882,-2.0506,-2.0431,-2.0382,-2.0344,-1.8703,-1.8045,-1.8451,-1.6445,-1.549,-1.5934,-1.5084,-1.4398,-1.3995,-1.2716,-1.1806,-1.1408,-1.0571,-0.952,0.0,0.0,0.0,0.0,0.0,0.0,0.0,0.0,0.0,0.0,0.0,-1.2141,0.0,-1.408,0.0,-1.6486,-1.6787,-1.6974,-1.7196,-1.7034,-1.6942,-1.6932,-1.7183,-1.758,-1.8131,-1.82,-1.819,-1.8168,-1.875,-1.9097,-1.8872,-1.9671,-2.0379,-2.0538,-2.0226,-1.9597,-1.867,-1.9271,-1.998,-2.0243,-2.0042,-1.9734,-1.9317,-1.8438,-1.7623,-1.7254,-1.664,-1.6208,-1.6208,-1.6208,-1.6208,-1.6208,-1.6208,-1.6208,-1.6166,-1.5941,-1.5595,-1.5254,-1.5058,-1.478,-3.7464,-3.6806,-3.6596,-3.6086,-3.5457,-3.5342,-3.489,-3.4248,-3.4205,-3.329,-3.1773,-3.1132,-3.083,-3.0794,-3.0792,-3.0799,-3.08,-3.08,-3.0411,-2.9729,-2.8873,-2.7997,-2.7139,-2.6284,-2.5817,-2.57,-2.5702,-2.5702,-2.5702,-2.5703,-2.5703,-2.5664,-2.4941,-2.4082,-2.3105,-2.234,-2.1487,-2.0524,-2.0454,-2.0418,-2.0382,-1.8703,-1.7794,-1.7736,-1.6174,-1.5296,-1.5282,-1.5183,-1.4787,-1.4034,-1.3166,-1.2292,-1.1451,-1.0697,-0.981,0.0,-0.8737,0.0,0.0,0.0,0.0,0.0,0.0,0.0,0.0,-1.2339,-1.3156,-1.472,-1.4888,-1.576,-1.7807,-1.7799,-1.7906,-1.8436,-1.8332,-1.8204,-1.82,-1.82,-1.82,-1.82,-1.82,-1.82,-1.8217,-1.8769,-1.9087,-1.8874,-1.9106,-1.9505,-2.0066,-1.9734,-1.8702,-1.653,-1.7838,-1.9225,-1.9702,-1.9502,-1.9101,-1.8901,-1.8053,-1.7208,-1.707,-1.6578,-1.6208,-1.6208,-1.6208,-1.6208,-1.6208,-1.6208,-1.6208,-1.6208,-1.6123,-1.5955,-1.5595,-1.5404,-1.5149,-3.8667,-3.8419,-3.7054,-3.6405,-3.6203,-3.5504,-3.5212,-3.5124,-3.4467,-3.3278,-3.183,-3.1705,-3.132,-3.0738,-3.0773,-3.0788,-3.0795,-3.0799,-3.0722,-3.0528,-2.9733,-2.8876,-2.8017,-2.7143,-2.6383,-2.572,-2.5702,-2.5702,-2.5702,-2.5703,-2.5703,-2.5703,-2.5527,-2.4668,0.0,0.0,0.0,0.0,-2.048,-2.0448,-2.0347,-1.8684,-1.7794,-1.7755,-1.6174,0.0,-1.5282,-1.4639,-1.4166,-1.4,-1.3167,0.0,0.0,0.0,0.0,0.0,0.0,0.0,0.0,0.0,0.0,0.0,-1.2421,-1.2675,-1.1707,-1.3184,-1.4627,-1.5574,-1.6201,-1.6937,-1.7881,-1.8376,-1.861,-1.8577,-1.8408,-1.8263,-1.8211,-1.82,-1.82,-1.82,-1.82,-1.82,-1.8217,-1.8338,-1.8342,-1.8211,-1.8476,-1.8489,-1.8007,-1.8661,-1.8393,-1.6714,-1.7282,-1.81,-1.8545,-1.853,-1.8253,-1.773,-1.7438,-1.6992,-1.6546,-1.6346,-1.6208,-1.6208,-1.6208,-1.6208,-1.6208,-1.6208,-1.6208,-1.6208,-1.6194,-1.6067,-1.5725,-1.5595,-1.5463,-3.9393,0.0,-3.7627,-3.6871,0.0,-3.5564,-3.5258,-3.5327,-3.4928,-3.4083,-3.2949,-3.2198,-3.1635,-3.1278,-3.0901,-3.0753,-3.0786,-3.0796,-3.08,-3.0762,-2.9965,-2.9381,-2.8893,-2.7606,-2.6768,-2.634,-2.5913,-2.5699,-2.5699,-2.5702,-2.5702,-2.5702,-2.5703,-2.5039,-2.375,-2.2929,-2.1849,-2.051,-2.0515,-2.0488,-2.0355,-1.8722,-1.7821,-1.7755,0.0,0.0,0.0,0.0,0.0,0.0,0.0,0.0,0.0,0.0,0.0,-1.0739,-1.0667,-1.0687,-1.0703,-1.1394,-1.1993,-1.2416,-1.3101,-1.3355,-1.3044,-1.4056,-1.5202,-1.6347,-1.6441,-1.6872,-1.799,-1.8281,-1.8337,-1.8137,-1.827,-1.8345,-1.8225,-1.82,-1.82,-1.82,-1.82,-1.82,-1.82,-1.82,-1.8151,-1.8027,-1.8099,-1.8042,-1.7664,-1.8156,-1.8056,-1.6635,-1.7069,-1.7845,-1.8298,-1.8112,-1.7863,-1.7488,-1.7145,-1.6803,-1.6458,-1.6275,-1.6208,-1.6208,-1.6208,-1.6208,-1.6208,-1.6208,-1.6208,-1.6208,-1.6208,-1.6137,-1.594,-1.5854,-1.5799,-3.9881,-3.9145,-3.8132,-3.7311,-3.6634,-3.5621,-3.5226,-3.5277,0.0,0.0,0.0,-3.2803,-3.2101,-3.1841,-3.1192,-3.0864,-3.0788,-3.0786,-3.0794,-3.0776,-3.0115,-2.9649,-2.9297,-2.7893,-2.7055,-2.6742,-2.6043,-2.5694,-2.5694,-2.5698,-2.57,-2.57,-2.5702,-2.5195,-2.414,-2.2655,-2.1438,-2.0562,-2.0513,-2.0472,-2.0366,-1.8898,-1.8067,-1.8026,-1.6404,-1.5538,-1.5519,-1.5383,-1.5299,-1.5263,-1.4606,-1.4159,-1.3995,-1.333,-1.2834,-1.2637,-1.2605,-1.2689,-1.2837,-1.3443,-1.3553,-1.2971,-1.3415,-1.3999,-1.4648,-1.4706,-1.5301,-1.678,-1.6218,-1.6417,-1.7833,-1.7954,-1.7855,-1.7669,-1.8189,-1.8473,-1.8256,-1.8215,-1.8215,-1.82,-1.82,-1.82,-1.82,-1.82,-1.8172,-1.8091,-1.7967,-1.7839,-1.7816,-1.792,-1.7729,-1.699,-1.7234,-1.7767,-1.8164,-1.7957,-1.7608,-1.7484,-1.704,-1.6691,-1.6636,-1.645,-1.6289,-1.6289,-1.6305,-1.6346,-1.6262,-1.6222,-1.6162,-1.6041,-1.6117,-1.6148,-1.5985,-1.6047,-1.6039,-4.0205,-3.9976,-3.8381,-3.7636,-3.7406,-3.5859,-3.5209,-3.5226,-3.5327,-3.4959,-3.418,-3.4018,-3.3158,-3.1814,-3.1763,-3.1365,-3.0737,-3.0762,-3.0798,0.0,-3.068,-2.9869,-2.8487,-2.8222,-2.7327,-2.5961,-2.575,-2.5694,-2.5694,-2.5698,-2.57,-2.57,-2.5702,-2.4902,-2.334,-2.2363,-2.1462,-2.0599,-2.0536,-2.0459,-2.0374,-1.942,-1.8929,-1.8838,-1.7294,-1.6426,-1.6406,-1.5693,-1.5286,-1.5282,-1.5187,-1.4777,-1.4052,-1.3898,-1.3485,-1.2762,-1.27,-1.3019,-1.3727,-1.3846,-1.4109,-1.4593,-1.465,-1.4649,-1.4707,-1.4709,-1.5096,-1.5963,-1.5885,-1.6183,-1.7075,-1.7635,-1.7916,-1.7874,-1.8386,-1.8612,-1.8338,-1.8287,-1.8274,-1.8211,-1.82,-1.82,-1.82,-1.82,-1.8172,-1.8102,-1.8027,-1.7939,-1.7822,-1.7524,-1.74,-1.7382,-1.7281,-1.7263,-1.7436,-1.7302,-1.7228,-1.71,-1.7052,-1.6955,-1.6942,-1.6738,-1.6583,-1.6557,-1.6766,-1.6751,-1.643,-1.6291,-1.5941,-1.5527,-1.5727,-1.5914,-1.5501,-1.5824,-1.6108,-4.0263,-4.0091,-3.8419,-3.7693,-3.7578,-3.5916,-3.5182,-3.5209,-3.5308,-3.5162,-3.4781,-3.437,-3.3538,-3.24,-3.1981,-3.1342,-3.0595,-3.0659,-3.0709,-3.0733,-3.0735,-3.0108,-2.8987,-2.8492,-2.7639,-2.645,-2.5924,-2.569,-2.569,-2.5694,-2.5694,-2.5695,-2.5698,-2.4821,-2.3202,-2.2734,-2.1894,-2.0644,-2.0536,-2.047,-2.0435,-1.9599,-1.9124,-1.9079,-1.7469,-1.661,-1.658,-1.577,-1.5286,-1.5286,-1.5286,-1.511,-1.474,-1.4702,-1.454,-1.4142,-1.4118,-1.4285,-1.4629,-1.459,-1.4705,-1.5019,-1.4963,-1.4867,-1.4799,-1.4744,-1.5041,-1.5778,-1.5488,-1.5533,-1.633,-1.7069,-1.7475,-1.7365,-1.8332,-1.8878,-1.863,-1.8469,-1.8358,-1.8225,-1.82,-1.82,-1.82,-1.82,-1.82,-1.8151,-1.8119,-1.8059,-1.8016,-1.7873,-1.776,-1.7884,-1.767,-1.7439,-1.7344,-1.732,-1.7284,-1.7228,-1.7216,-1.7199,-1.7199,-1.7076,-1.7055,-1.7055,-1.7236,-1.6916,-1.5907,-1.5418,-1.5162,-1.5009,-1.5012,-1.5183,-1.5386,-1.5854,-1.612,-4.0101,-3.9852,-3.8343,-3.7483,-3.7043,-3.5763,-3.5182,-3.5209,-3.5261,-3.5277,-3.5181,-3.4622,-3.3836,-3.2885,-3.2232,-3.1428,-3.0597,-3.056,-3.0609,-3.0682,-3.0695,-3.0158,-2.9223,-2.8559,-2.7729,-2.6755,-2.6015,-2.5704,-2.5706,-2.5706,-2.5687,-2.567,-2.5516,-2.4622,-2.3141,-2.2926,-2.2086,-2.07,-2.0546,-2.0516,-2.0494,-1.9834,-1.9473,-1.9292,-1.7784,-1.6895,-1.6834,-1.5867,-1.5286,-1.5286,-1.5286,-1.5286,-1.5286,-1.5286,-1.5299,-1.5287,-1.5284,-1.5277,-1.5232,-1.516,-1.5133,-1.5125,-1.5068,-1.5006,-1.4931,-1.4785,-1.4961,-1.5442,-1.5083,-1.498,-1.5624,-1.654,-1.7058,-1.7055,-1.8298,-1.9115,-1.8966,-1.8734,-1.8489,-1.8281,-1.8225,-1.8263,-1.8232,-1.8221,-1.8204,-1.8211,-1.82,-1.82,-1.82,-1.82,-1.82,-1.8151,-1.8016,-1.7833,-1.7653,-1.7641,-1.7618,-1.7566,-1.7542,-1.7426,-1.7336,-1.7324,-1.7479,-1.7396,-1.6903,-1.6101,-1.4797,-1.4358,-1.4269,-1.4304,-1.4556,-1.4845,-1.5513,-1.5957,-1.6162,-3.9709,-3.9021,-3.8066,-3.6814,-3.5507,-3.5267,-3.5182,-3.5182,-3.5209,-3.5218,-3.5179,-3.5182,-3.4275,-3.3025,-3.2769,-3.1898,-3.0534,-3.0492,-3.0537,-3.0618,-3.0664,-2.9862,-2.8451,-2.8245,-2.7365,-2.6009,-2.5746,-2.5694,-2.5701,-2.5705,-2.5689,-2.5595,-2.4913,-2.4095,-2.3121,-2.2399,-2.1559,-2.0621,-2.0603,-2.0566,-2.0502,-2.0429,-2.0341,-2.0271,-1.8662,-1.774,-1.7628,-1.6133,-1.5286,-1.5286,-1.5286,-1.5286,-1.5286,-1.5286,-1.5286,-1.5282,-1.5284,-1.5294,-1.5277,-1.522,-1.5177,-1.5206,-1.5133,-1.5048,-1.4995,-1.4872,-1.4776,-1.4824,-1.4764,-1.4762,-1.4892,-1.6187,-1.7083,-1.7139,-1.8411,-1.9334,-1.9344,-1.9051,-1.8652,-1.832,-1.8375,-1.8363,-1.8308,-1.8277,-1.8274,-1.8211,-1.82,-1.82,-1.82,-1.82,-1.82,-1.82,-1.8168,-1.8119,-1.8037,-1.8031,-1.7966,-1.7911,-1.7922,-1.7595,-1.7219,-1.7294,-1.7715,-1.7053,-1.5589,-1.4102,-1.3727,-1.33,-1.3455,-1.3862,-1.4299,-1.494,-1.5619,-1.6133,-1.6291,-3.9043,-3.8689,-3.7405,-3.6231,-3.5263,-3.5193,-3.5182,-3.5182,-3.5182,-3.5182,-3.5133,-3.4752,-3.3876,-3.2761,-3.2312,-3.1405,-3.0368,-3.0369,-3.0411,-3.0482,-3.0548,-2.9687,-2.821,-2.8129,-2.7281,-2.5747,-2.5646,-2.5662,-2.5693,-2.5703,-2.5688,-2.5593,-2.4831,-2.3973,-2.3097,-2.2315,-2.1455,-2.0636,-2.0597,-2.058,-2.0565,-2.0524,-2.0484,-2.0276,-1.8801,-1.7882,-1.7689,-1.6211,-1.5293,-1.5283,-1.5298,-1.5291,-1.5286,-1.5286,-1.5286,-1.5286,-1.5294,-1.5284,-1.5299,-1.5226,-1.5196,-1.5193,-1.5174,-1.5127,-1.506,-1.4944,-1.4845,-1.4766,-1.471,-1.4706,-1.4836,-1.6143,-1.7096,-1.73,-1.8527,-1.9493,-1.9533,-1.9272,-1.8937,-1.878,-1.8622,-1.8497,-1.8418,-1.8342,-1.8284,-1.8221,-1.82,-1.8211,-1.82,-1.82,-1.82,-1.82,-1.82,-1.82,-1.8162,-1.813,-1.8098,-1.7947,-1.7618,-1.7137,-1.6942,-1.6499,-1.6492,-1.6509,-1.4742,-1.3489,-1.343,-1.3286,-1.3358,-1.3606,-1.3887,-1.4484,-1.4713,-1.5914,-1.6607,-3.8169,-3.7715,-3.6463,-3.5627,-3.5183,-3.5185,-3.5182,-3.5182,-3.5182,-3.5182,-3.5087,-3.4101,-3.3299,-3.2649,-3.1872,-3.1024,-3.0278,-3.0292,-3.0334,-3.0406,-3.0467,-2.9631,-2.8136,-2.8039,-2.7181,-2.5799,-2.5591,-2.5617,-2.5662,-2.5672,-2.5677,-2.5521,-2.4586,-2.3728,-2.3048,-2.2112,-2.1235,-2.0672,-2.0594,-2.0594,-2.0596,-2.0546,-2.0523,-2.035,-1.8839,-1.7926,-1.7858,-1.6253,-1.5306,-1.5286,-1.5297,-1.5283,-1.5286,-1.5286,-1.5286,-1.5286,-1.5294,-1.5287,-1.5284,-1.5238,-1.5231,-1.5242,-1.5215,-1.52,-1.5117,-1.5004,-1.4907,-1.4855,-1.4956,-1.5001,-1.4855,-1.6149,-1.704,-1.7188,-1.8599,-1.9564,-1.9576,-1.9394,-1.9238,-1.9168,-1.8923,-1.8651,-1.8539,-1.8438,-1.837,-1.8319,-1.8288,-1.8263,-1.8194,-1.82,-1.82,-1.8183,-1.8204,-1.8215,-1.8194,-1.8162,-1.8108,-1.7915,-1.7483,-1.6898,-1.6642,-1.5979,-1.5225,-1.521,-1.4023,-1.3489,-1.3396,-1.3371,-1.3379,-1.3334,-1.3571,-1.4015,-1.4284,-1.5494,-1.6318,-3.7199,-3.5915,-3.5228,-3.504,-3.5101,-3.516,-3.5182,-3.5174,-3.5182,-3.5182,-3.4972,-3.3501,-3.2737,-3.2642,-3.1807,-3.1005,-3.0278,-3.0267,-3.0336,-3.0385,-3.0453,-2.9612,-2.8052,-2.7982,-2.7125,-2.5615,-2.557,-2.5595,-2.56,-2.5603,-2.5603,-2.5525,-2.4034,-2.3164,-2.2896,-2.1518,-2.0667,-2.0612,-2.0594,-2.0594,-2.0594,-2.0599,-2.0565,-2.035,-1.8883,-1.8017,-1.7749,-1.6294,-1.5379,-1.5297,-1.5303,-1.5301,-1.5293,-1.5289,-1.5286,-1.5286,-1.5284,-1.5284,-1.5284,-1.5282,-1.5282,-1.5279,-1.5282,-1.5273,-1.5183,-1.507,-1.4976,-1.4907,-1.5441,-1.5498,-1.5057,-1.6309,-1.717,-1.7281,-1.8618,-1.949,-1.9583,-1.949,-1.9427,-1.9398,-1.916,-1.8887,-1.8642,-1.8574,-1.8553,-1.8505,-1.8493,-1.8433,-1.8267,-1.8204,-1.8215,-1.8256,-1.8274,-1.8277,-1.8215,-1.8194,-1.8183,-1.7945,-1.7425,-1.6721,-1.622,-1.5651,-1.4818,-1.4168,-1.3701,-1.343,-1.3396,-1.3396,-1.3396,-1.3379,-1.3371,-1.3665,-1.3972,-1.3716,-1.4467,-3.6154,-3.485,-3.4739,-3.4751,-3.4849,-3.4964,-3.5047,-3.5063,-3.5127,-3.5162,-3.4901,-3.3428,-3.268,-3.2642,-3.1269,-3.0493,-3.0232,-3.0234,-3.0241,-3.0273,-3.0343,-2.9483,-2.8,-2.7873,-2.7007,-2.5653,-2.5453,-2.5493,-2.5529,-2.5534,-2.5534,-2.5265,-2.3859,-2.3038,-2.2742,-2.1372,-2.0565,-2.0593,-2.0594,-2.0594,-2.0594,-2.0595,-2.0598,-2.0524,-1.9453,-1.8573,-1.7981,-1.6843,-1.5974,-1.539,-1.5357,-1.5338,-1.5309,-1.5291,-1.5283,-1.5295,-1.5289,-1.5286,-1.5286,-1.5286,-1.5286,-1.5284,-1.5289,-1.5284,-1.5212,-1.5121,-1.5041,-1.5105,-1.5602,-1.5808,-1.5972,-1.6964,-1.7875,-1.8024,-1.8878,-1.9583,-1.9602,-1.9548,-1.9533,-1.9519,-1.9311,-1.9058,-1.8904,-1.8843,-1.8798,-1.8716,-1.8688,-1.8603,-1.8463,-1.8393,-1.8433,-1.8551,-1.8592,-1.8516,-1.8277,-1.8267,-1.8194,-1.7814,-1.7301,-1.6524,-1.5911,-1.4899,-1.4007,-1.3897,-1.3497,-1.3396,-1.3396,-1.3396,-1.3396,-1.3396,-1.3396,-1.3472,-1.3709,-1.354,-1.3877,-3.4987,-3.4222,-3.4328,-3.4461,-3.455,-3.4682,-3.4783,-3.487,-3.4992,-3.5084,-3.484,-3.344,-3.268,-3.2413,-3.0949,-3.0204,-3.0211,-3.0219,-3.0214,-3.0214,-3.0273,-2.9545,-2.8337,-2.7919,-2.7119,-2.5904,-2.5505,-2.5437,-2.5483,-2.5509,-2.5509,-2.5412,-2.3806,-2.2975,-2.271,-2.1328,-2.0528,-2.0562,-2.0566,-2.0567,-2.0569,-2.059,-2.0592,-2.0516,-2.0015,-1.9315,-1.8437,-1.7304,-1.646,-1.5887,-1.5563,-1.5371,-1.5344,-1.532,-1.5284,-1.5293,-1.5298,-1.5286,-1.5286,-1.5286,-1.5286,-1.5286,-1.5294,-1.5279,-1.5254,-1.518,-1.5127,-1.5246,-1.6014,-1.6555,-1.6837,-1.7901,-1.8646,-1.8527,-1.9084,-1.9578,-1.959,-1.9583,-1.9569,-1.9496,-1.9368,-1.9212,-1.9117,-1.9092,-1.9034,-1.8912,-1.8895,-1.8834,-1.8733,-1.8696,-1.8752,-1.8931,-1.8931,-1.8797,-1.8565,-1.8465,-1.8329,-1.798,-1.7403,-1.6536,-1.5752,-1.4589,-1.3711,-1.3587,-1.3488,-1.343,-1.3396,-1.3396,-1.3396,-1.3405,-1.3396,-1.3447,-1.3489,-1.3447,-1.3743,-3.3739,-3.3834,-3.3947,-3.408,-3.4233,-3.4371,-3.4486,-3.4622,-3.4812,-3.4964,-3.4848,-3.3388,-3.2649,-3.234,-3.092,-3.0197,-3.0197,-3.018,-3.02,-3.0214,-3.0266,-2.9819,-2.8874,-2.8119,-2.727,-2.6327,-2.5729,-2.5425,-2.546,-2.5464,-2.546,-2.514,-2.3707,-2.2849,-2.291,-2.1316,-2.0486,-2.049,-2.048,-2.0509,-2.0516,-2.0562,-2.0588,-2.0593,-2.0516,-2.0127,-1.9305,-1.7671,-1.6738,-1.6543,-1.5836,-1.5437,-1.5394,-1.5351,-1.5313,-1.5317,-1.5308,-1.5289,-1.5289,-1.5289,-1.5289,-1.5286,-1.5286,-1.5294,-1.5272,-1.5237,-1.5183,-1.537,-1.6479,-1.743,-1.7619,-1.8768,-1.9393,-1.8678,-1.9193,-1.9569,-1.9597,-1.9583,-1.9562,-1.9468,-1.9409,-1.9386,-1.9332,-1.9298,-1.9248,-1.9148,-1.9123,-1.9091,-1.9052,-1.9035,-1.9135,-1.9214,-1.9192,-1.9035,-1.8852,-1.8669,-1.8475,-1.818,-1.7515,-1.6784,-1.6292,-1.5341,-1.4096,-1.3731,-1.3504,-1.3429,-1.3438,-1.343,-1.3421,-1.3421,-1.3413,-1.3421,-1.3421,-1.3421,-1.3405,-3.3615,-3.3671,-3.3788,-3.3881,-3.3947,-3.4117,-3.425,-3.4356,-3.4586,-3.4759,-3.4527,-3.3191,-3.2484,-3.2104,-3.0755,-3.0011,-3.0068,-3.0106,-3.0157,-3.0199,-3.0232,-2.9799,-2.8957,-2.8122,-2.7002,-2.5808,-2.5398,-2.5259,-2.5288,-2.5293,-2.5058,-2.4341,-2.3405,-2.2535,-2.2007,-2.0927,-2.036,-2.0374,-2.0415,-2.0455,-2.0495,-2.0507,-2.056,-2.0592,-2.0594,-2.0457,-2.0124,-1.8528,-1.7341,-1.6757,-1.5879,-1.5407,-1.5397,-1.5381,-1.5385,-1.5369,-1.5327,-1.5288,-1.5282,-1.5291,-1.5283,-1.5295,-1.5291,-1.5296,-1.5299,-1.5242,-1.5221,-1.5364,-1.6662,-1.7631,-1.7831,-1.9031,-1.9714,-1.9425,-1.9506,-1.9608,-1.9604,-1.959,-1.9595,-1.9543,-1.9541,-1.9526,-1.9505,-1.9497,-1.945,-1.9376,-1.9368,-1.9338,-1.9261,-1.9248,-1.9238,-1.9282,-1.9253,-1.924,-1.9059,-1.8905,-1.8707,-1.8475,-1.7896,-1.747,-1.6954,-1.6185,-1.4915,-1.3821,-1.3587,-1.3511,-1.3495,-1.3479,-1.3495,-1.3479,-1.3495,-1.3479,-1.3454,-1.3462,-1.3487,-3.352,-3.3534,-3.3601,-3.3661,-3.3657,-3.382,-3.3934,-3.4049,-3.4269,-3.4427,-3.4191,-3.2899,-3.2223,-3.1874,-3.0487,-2.9832,-2.9899,-2.9972,-3.0068,-3.0169,-3.0185,-2.9879,-2.9249,-2.8186,-2.703,-2.5852,-2.536,-2.5212,-2.5212,-2.5192,-2.4949,-2.4398,-2.3645,-2.2856,-2.1979,-2.1158,-2.065,-2.0379,-2.0333,-2.0408,-2.0461,-2.048,-2.0521,-2.0561,-2.0564,-2.0565,-2.0468,-1.9204,-1.8077,-1.7144,-1.6072,-1.5449,-1.5409,-1.5403,-1.5414,-1.5403,-1.5369,-1.5332,-1.5341,-1.5324,-1.5288,-1.5293,-1.5295,-1.5282,-1.5289,-1.5263,-1.5335,-1.5862,-1.6945,-1.7856,-1.8302,-1.9294,-2.0007,-1.9971,-1.978,-1.9694,-1.9647,-1.9611,-1.9604,-1.9578,-1.9597,-1.959,-1.9583,-1.9583,-1.9557,-1.9518,-1.9492,-1.9489,-1.9383,-1.9379,-1.9368,-1.9361,-1.9312,-1.9285,-1.923,-1.9109,-1.8965,-1.8699,-1.8386,-1.8154,-1.7842,-1.7029,-1.5947,-1.4313,-1.3622,-1.3748,-1.3756,-1.3659,-1.3644,-1.3613,-1.3606,-1.362,-1.3636,-1.3619,-1.3603,-3.3393,-3.3393,-3.3393,-3.3422,-3.3422,-3.3509,-3.3601,-3.3707,-3.3921,-3.4086,-3.3844,-3.2575,-3.1883,-3.1539,-3.0224,-2.9542,-2.9681,-2.9822,-2.994,-3.0046,-3.0121,-3.0023,-2.9669,-2.8351,-2.7216,-2.6359,-2.5584,-2.5225,-2.5201,-2.5215,-2.5168,-2.4856,-2.4185,-2.3496,-2.2493,-2.1818,-2.1016,-2.0353,-2.0276,-2.032,-2.0388,-2.0432,-2.048,-2.0471,-2.0497,-2.0482,-2.0369,-1.9639,-1.8789,-1.784,-1.6222,-1.5405,-1.5408,-1.541,-1.5409,-1.5404,-1.5416,-1.5406,-1.5392,-1.5354,-1.5316,-1.5303,-1.5295,-1.5289,-1.5291,-1.5463,-1.5787,-1.6401,-1.7382,-1.8244,-1.8966,-1.9738,-2.0142,-2.0182,-1.9979,-1.9824,-1.9701,-1.9641,-1.9626,-1.9601,-1.9592,-1.959,-1.959,-1.9583,-1.9576,-1.9543,-1.9518,-1.9515,-1.9493,-1.9479,-1.9545,-1.9505,-1.9405,-1.9379,-1.9326,-1.9295,-1.9166,-1.9046,-1.8784,-1.868,-1.8539,-1.7825,-1.6876,-1.5242,-1.3803,-1.3941,-1.397,-1.3877,-1.3801,-1.3771,-1.3786,-1.3805,-1.3798,-1.3793,-1.3764,-3.3393,-3.3393,-3.3393,-3.3393,-3.3408,-3.3466,-3.3506,-3.3577,-3.3766,-3.3855,-3.3583,-3.2347,-3.1672,-3.1499,-3.0015,-2.9316,-2.9435,-2.9598,-2.9707,-2.9813,-2.994,-2.9657,-2.9164,-2.8217,-2.7255,-2.6427,-2.5648,-2.5208,-2.5214,-2.5214,-2.4902,-2.4247,-2.4137,-2.3225,-2.1938,-2.1603,-2.099,-2.0291,-2.0203,-2.0235,-2.0269,-2.0331,-2.0366,-2.0347,-2.04,-2.042,-2.0344,-1.9708,-1.857,-1.713,-1.6021,-1.542,-1.5464,-1.5468,-1.5469,-1.541,-1.5407,-1.5402,-1.5395,-1.5422,-1.5408,-1.5372,-1.549,-1.5292,-1.5323,-1.5911,-1.6307,-1.6842,-1.7838,-1.881,-1.9178,-1.9812,-2.0204,-2.0195,-2.0059,-1.9889,-1.9799,-1.9745,-1.9712,-1.9621,-1.9601,-1.9606,-1.9604,-1.959,-1.959,-1.9576,-1.9576,-1.9576,-1.9555,-1.9555,-1.958,-1.9566,-1.9501,-1.9483,-1.9453,-1.9438,-1.9383,-1.9344,-1.9193,-1.9103,-1.8952,-1.8607,-1.7561,-1.6284,-1.4556,-1.415,-1.413,-1.4071,-1.4012,-1.3945,-1.3956,-1.3963,-1.3959,-1.3938,-1.3945,-3.3393,-3.3393,-3.3393,-3.3393,-3.3393,-3.3437,-3.3433,-3.3481,-3.3577,-3.3647,-3.3296,-3.2028,-3.1352,-3.1187,-2.9689,-2.9052,-2.9152,-2.9306,-2.9455,-2.9542,-2.9635,-2.9536,-2.9099,-2.8225,-2.7331,-2.6778,-2.569,-2.5231,-2.521,-2.521,-2.4899,-2.4593,-2.4435,-2.3556,-2.2114,-2.186,-2.1287,-2.0351,-2.0158,-2.0205,-2.02,-2.0234,-2.0272,-2.0292,-2.0338,-2.0351,-2.0299,-1.9669,-1.8615,-1.7474,-1.6777,-1.6352,-1.5986,-1.5932,-1.5778,-1.5487,-1.541,-1.541,-1.5487,-1.5698,-1.5944,-1.6012,-1.6154,-1.6377,-1.6499,-1.6907,-1.7196,-1.7837,-1.8645,-1.918,-1.9651,-2.0086,-2.0285,-2.0292,-2.0188,-2.005,-1.9901,-1.9889,-1.9812,-1.9738,-1.9687,-1.9661,-1.9633,-1.9606,-1.9585,-1.959,-1.9583,-1.9583,-1.9583,-1.9583,-1.9583,-1.9569,-1.9555,-1.9519,-1.9505,-1.949,-1.9453,-1.9405,-1.9367,-1.9303,-1.9224,-1.9084,-1.8509,-1.7287,-1.5553,-1.4305,-1.4242,-1.421,-1.4172,-1.4132,-1.413,-1.4123,-1.4116,-1.4082,-1.4089,-3.3393,-3.3393,-3.3393,-3.3393,-3.3393,-3.3393,-3.3393,-3.3393,-3.3422,-3.335,-3.2947,-3.165,-3.098,-3.0799,-2.938,-2.8779,-2.8899,-2.9068,-2.9169,-2.9285,-2.9368,-2.9401,-2.9202,-2.8059,-2.736,-2.6927,-2.5749,-2.5239,-2.518,-2.521,-2.521,-2.5077,-2.5096,-2.4192,-2.2797,-2.251,-2.1664,-2.0404,-2.0155,-2.019,-2.019,-2.0211,-2.0212,-2.0246,-2.0272,-2.032,-2.0218,-1.975,-1.9039,-1.8325,-1.8121,-1.7422,-1.6798,-1.6666,-1.624,-1.5598,-1.5404,-1.5406,-1.5505,-1.6016,-1.6444,-1.6441,-1.7119,-1.7777,-1.7548,-1.7741,-1.8261,-1.8826,-1.9189,-1.9674,-2.013,-2.0395,-2.0372,-2.0382,-2.0357,-2.0261,-2.0111,-2.0034,-1.9974,-1.9864,-1.9849,-1.9788,-1.9719,-1.9667,-1.9626,-1.959,-1.9583,-1.9583,-1.9583,-1.9583,-1.9583,-1.9583,-1.9569,-1.9529,-1.9541,-1.9559,-1.949,-1.9435,-1.9372,-1.9334,-1.9329,-1.924,-1.919,-1.8226,-1.6053,-1.476,-1.4305,-1.4274,-1.4322,-1.4262,-1.4223,-1.4273,-1.4299,-1.4229,-1.4216,-3.3393,-3.3393,-3.3393,-3.3393,-3.3393,-3.3393,-3.3393,-3.3393,-3.3393,-3.3085,-3.2343,-3.1415,-3.0672,-3.0051,-2.9178,-2.8737,-2.8767,-2.8915,-2.9056,-2.9137,-2.9169,-2.8835,-2.8427,-2.7534,-2.7009,-2.6399,-2.557,-2.5145,-2.5168,-2.5174,-2.5205,-2.5185,-2.5084,-2.4326,-2.2868,-2.2562,-2.1779,-2.0418,-2.0141,-2.0131,-2.014,-2.0149,-2.0139,-2.0161,-2.0204,-2.026,-2.0302,-2.0196,-2.0081,-1.9712,-1.8781,-1.7802,-1.701,-1.6779,-1.6314,-1.5635,-1.5402,-1.5403,-1.5465,-1.5643,-1.5723,-1.5937,-1.6737,-1.6968,-1.7059,-1.8292,-1.8896,-1.9344,-1.9783,-2.0194,-2.0425,-2.0429,-2.0404,-2.0399,-2.0387,-2.037,-2.0325,-2.0277,-2.0173,-2.0079,-1.9998,-1.993,-1.9806,-1.9726,-1.9681,-1.9618,-1.959,-1.959,-1.959,-1.959,-1.9638,-1.9665,-1.9625,-1.9606,-1.962,-1.9625,-1.9557,-1.9496,-1.9439,-1.9394,-1.9398,-1.9326,-1.9261,-1.81,-1.631,-1.5446,-1.505,-1.4589,-1.4685,-1.4511,-1.4463,-1.4644,-1.4752,-1.4589,-1.4318,-3.3393,-3.3393,-3.3393,-3.3393,-3.3393,-3.3393,-3.3393,-3.3393,-3.3393,-3.2958,-3.2144,-3.1347,-3.0545,-2.9748,-2.9031,-2.8644,-2.8657,-2.8743,-2.8839,-2.8868,-2.8825,-2.8237,-2.7353,-2.6968,-2.657,-2.5993,-2.5307,-2.503,-2.5057,-2.5088,-2.5114,-2.5101,-2.5132,-2.4217,-2.2855,-2.2598,-2.1701,-2.0437,-2.0108,-2.0112,-2.0112,-2.0112,-2.0122,-2.0159,-2.0197,-2.0227,-2.0287,-2.034,-2.0402,-2.0216,-1.9605,-1.8564,-1.755,-1.7283,-1.6683,-1.5652,-1.5421,-1.5422,-1.5424,-1.5757,-1.6051,-1.6032,-1.7147,-1.7656,-1.8046,-1.9036,-1.971,-1.9934,-2.0229,-2.0503,-2.0501,-2.0492,-2.0443,-2.0398,-2.0399,-2.0387,-2.0398,-2.0356,-2.0315,-2.023,-2.013,-2.0015,-1.9901,-1.9834,-1.9763,-1.9725,-1.9699,-1.9712,-1.9631,-1.9652,-1.9763,-1.9782,-1.9731,-1.9693,-1.9694,-1.9674,-1.9635,-1.9594,-1.9571,-1.9529,-1.9493,-1.9391,-1.9297,-1.8152,-1.7194,-1.6638,-1.6228,-1.5692,-1.5424,-1.5562,-1.5635,-1.5483,-1.5454,-1.5612,-1.508,-3.3364,-3.3378,-3.3393,-3.3378,-3.3396,-3.3364,-3.3331,-3.3349,-3.3349,-3.2788,-3.1999,-3.1256,-3.0473,-2.9603,-2.8925,-2.8618,-2.86,-2.8612,-2.8644,-2.8644,-2.8675,-2.7785,-2.68,-2.6464,-2.611,-2.5631,-2.5019,-2.4802,-2.4832,-2.4907,-2.4921,-2.4973,-2.5025,-2.4157,-2.2957,-2.2541,-2.1795,-2.0341,-2.0112,-2.0108,-2.0112,-2.0112,-2.0126,-2.0164,-2.0186,-2.0205,-2.0273,-2.0317,-2.0363,-2.0374,-2.0448,-1.9632,-1.8616,-1.7919,-1.7342,-1.5722,-1.5553,-1.5419,-1.5496,-1.5966,-1.6375,-1.6707,-1.8053,-1.8878,-1.9021,-1.9648,-2.0253,-2.0445,-2.0554,-2.0501,-2.0503,-2.0494,-2.0461,-2.042,-2.0417,-2.0424,-2.0416,-2.0432,-2.0392,-2.0356,-2.0242,-2.0109,-2.0041,-1.9965,-1.9898,-1.9836,-1.9818,-1.9795,-1.9725,-1.9712,-1.9825,-1.9897,-1.9831,-1.9794,-1.9788,-1.9794,-1.9751,-1.972,-1.9694,-1.9648,-1.962,-1.9496,-1.9405,-1.9312,-1.8599,-1.7958,-1.7563,-1.7318,-1.7107,-1.7027,-1.6609,-1.6244,-1.6358,-1.6675,-1.5996,-3.3229,-3.3322,-3.3382,-3.3367,-3.3289,-3.3196,-3.3147,-3.3132,-3.3129,-3.2364,-3.1227,-3.1007,-3.0133,-2.9106,-2.8726,-2.86,-2.86,-2.86,-2.86,-2.86,-2.8545,-2.7755,-2.6545,-2.6288,-2.5664,-2.4717,-2.4392,-2.451,-2.458,-2.4628,-2.4731,-2.483,-2.4898,-2.4112,-2.2992,-2.2525,-2.1757,-2.033,-2.0083,-2.0098,-2.0093,-2.0103,-2.0108,-2.0117,-2.0107,-2.0149,-2.0203,-2.0238,-2.0242,-2.0306,-2.0315,-1.9804,-1.9044,-1.8335,-1.7507,-1.6666,-1.5974,-1.5745,-1.5783,-1.5685,-1.6094,-1.6717,-1.7811,-1.8478,-1.8955,-1.98,-2.0447,-2.0566,-2.0546,-2.0501,-2.0501,-2.0518,-2.0511,-2.0494,-2.0482,-2.049,-2.0485,-2.0473,-2.0452,-2.0417,-2.033,-2.0227,-2.0148,-2.0097,-2.0031,-1.9995,-1.9969,-1.9928,-1.9867,-1.9829,-1.9868,-1.9909,-1.9909,-1.9879,-1.9885,-1.9885,-1.9873,-1.9868,-1.9847,-1.98,-1.9726,-1.9626,-1.9518,-1.9499,-1.9409,-1.8963,-1.8732,-1.8658,-1.8239,-1.7714,-1.7307,-1.6957,-1.725,-1.7543,-1.7213,-3.3055,-3.3196,-3.3334,-3.3337,-3.318,-3.3006,-3.2959,-3.2921,-3.2511,-3.1766,-3.0962,-3.0478,-2.9735,-2.8835,-2.86,-2.86,-2.86,-2.86,-2.86,-2.86,-2.8509,-2.7761,-2.6383,-2.6238,-2.5267,-2.4361,-2.4059,-2.4211,-2.4391,-2.4458,-2.4551,-2.4631,-2.4719,-2.3938,-2.2754,-2.2395,-2.1498,-2.0364,-1.9993,-2.0024,-2.0035,-2.0064,-2.0055,-2.0041,-2.0041,-2.0093,-2.0136,-2.0153,-2.0169,-2.0203,-2.0239,-2.0018,-1.9555,-1.8908,-1.8116,-1.7435,-1.6916,-1.6713,-1.6733,-1.6753,-1.7046,-1.7377,-1.8159,-1.8453,-1.8809,-1.9576,-2.0498,-2.0579,-2.0581,-2.0566,-2.0566,-2.0547,-2.0546,-2.0522,-2.0524,-2.0534,-2.0519,-2.0519,-2.0495,-2.0449,-2.0382,-2.0305,-2.0264,-2.0208,-2.0182,-2.0148,-2.0097,-2.006,-2.0003,-1.9995,-1.9992,-2.005,-2.0079,-2.0021,-2.0016,-2.0006,-2.0006,-2.002,-2.0,-1.9958,-1.9909,-1.983,-1.9795,-1.9757,-1.9674,-1.9548,-1.9491,-1.9263,-1.8832,-1.8506,-1.84,-1.8313,-1.8323,-1.8282,-1.7996,-3.283,-3.3024,-3.3211,-3.318,-3.2993,-3.2798,-3.2718,-3.261,-3.2078,-3.1357,-3.0607,-3.0138,-2.948,-2.8722,-2.8523,-2.8554,-2.8562,-2.8562,-2.8587,-2.8545,-2.8328,-2.7526,-2.6536,-2.5848,-2.5164,-2.4026,-2.3847,-2.3929,-2.4126,-2.4248,-2.4338,-2.4417,-2.4466,-2.3737,-2.2517,-2.2222,-2.1198,-2.0333,-1.9828,-1.9879,-1.9958,-1.9981,-1.9982,-1.9982,-1.9982,-2.0035,-2.0069,-2.0089,-2.0074,-2.0097,-2.0139,-2.0165,-2.0064,-1.9584,-1.8978,-1.847,-1.8176,-1.8003,-1.7928,-1.7868,-1.7826,-1.8217,-1.8868,-1.8872,-1.9073,-1.9839,-2.0567,-2.059,-2.0591,-2.0573,-2.0555,-2.0596,-2.0582,-2.0546,-2.0566,-2.0578,-2.0543,-2.0531,-2.0504,-2.0483,-2.0426,-2.0383,-2.0331,-2.0305,-2.0287,-2.0288,-2.0242,-2.0231,-2.0197,-2.0184,-2.019,-2.0239,-2.0258,-2.0182,-2.0156,-2.0143,-2.0139,-2.0134,-2.014,-2.0112,-2.0089,-2.0063,-2.0028,-1.995,-1.9877,-1.9775,-1.9821,-1.9824,-1.9473,-1.9319,-1.9526,-1.9482,-1.9175,-1.911,-1.8982,-3.2471,-3.267,-3.2884,-3.2852,-3.2638,-3.2419,-3.2352,-3.2334,-3.2106,-3.1485,-3.0335,-3.0253,-2.9483,-2.851,-2.8295,-2.8335,-2.8401,-2.8466,-2.8549,-2.8515,-2.7948,-2.717,-2.6204,-2.5425,-2.4791,-2.3922,-2.3795,-2.3816,-2.3919,-2.3979,-2.4049,-2.4164,-2.4137,-2.3525,-2.2351,-2.2077,-2.1198,-1.9958,-1.9669,-1.9732,-1.9873,-1.9936,-1.9981,-1.9986,-1.9986,-1.9981,-2.0005,-2.0015,-2.0011,-2.0016,-2.0021,-2.0055,-2.0084,-2.0112,-2.0046,-1.9554,-1.883,-1.7926,-1.8086,-1.8205,-1.8463,-1.8942,-1.9262,-1.9588,-1.9878,-2.0103,-2.0519,-2.0519,-2.052,-2.0521,-2.0544,-2.057,-2.0596,-2.06,-2.0584,-2.0605,-2.0577,-2.056,-2.0538,-2.051,-2.0489,-2.0433,-2.0395,-2.0377,-2.0374,-2.0382,-2.0386,-2.0373,-2.0366,-2.0334,-2.0297,-2.0328,-2.0357,-2.0294,-2.0254,-2.0262,-2.0254,-2.0254,-2.0238,-2.0245,-2.022,-2.0176,-2.0173,-2.0103,-2.0034,-1.9969,-1.9995,-1.9971,-1.995,-1.9907,-1.9826,-1.98,-1.9738,-1.9738,-1.9707,-3.1913,-3.2214,-3.2385,-3.2334,-3.2144,-3.1586,-3.1602,-3.1758,-3.0994,-3.0368,-2.9888,-2.9521,-2.8805,-2.7999,-2.7929,-2.8073,-2.8183,-2.8322,-2.8466,-2.8363,-2.7737,-2.6971,-2.6174,-2.5389,-2.4574,-2.3966,-2.3795,-2.3795,-2.3816,-2.3876,-2.3958,-2.4037,-2.4059,-2.3649,-2.2467,-2.2041,-2.1245,-2.0367,-1.9841,-1.9694,-1.9775,-1.9847,-1.9894,-1.9894,-1.9894,-1.9881,-1.9904,-1.9945,-1.9936,-1.9942,-1.9977,-2.0022,-2.0058,-2.0088,-2.0124,-2.0084,-1.9619,-1.9272,-1.9298,-1.9209,-1.9433,-1.967,-1.9871,-2.008,-2.0435,-2.0504,-2.051,-2.0517,-2.0517,-2.0516,-2.0515,-2.0522,-2.0567,-2.0573,-2.0595,-2.0602,-2.0605,-2.0574,-2.0555,-2.0547,-2.0534,-2.0477,-2.0451,-2.0453,-2.0456,-2.0454,-2.0434,-2.0432,-2.0421,-2.0432,-2.0402,-2.0372,-2.0372,-2.0357,-2.0347,-2.0344,-2.0334,-2.033,-2.0297,-2.0283,-2.0292,-2.0273,-2.0238,-2.0208,-2.0122,-2.0103,-2.0122,-2.0093,-2.003,-2.001,-1.9995,-1.9955,-1.9925,-1.9917,-1.987,-3.1334,-3.1618,-3.186,-3.1896,-3.1769,-3.1091,-3.1158,-3.1482,-3.0447,-2.9746,-2.9248,-2.862,-2.79,-2.7544,-2.7562,-2.7728,-2.7915,-2.8087,-2.8295,-2.8139,-2.7487,-2.6676,-2.5888,-2.5143,-2.4299,-2.375,-2.375,-2.3761,-2.3782,-2.3824,-2.3865,-2.3947,-2.3996,-2.3533,-2.2886,-2.2273,-2.1541,-2.0446,-1.9793,-1.9567,-1.9604,-1.9694,-1.9719,-1.9719,-1.9719,-1.9732,-1.9745,-1.9806,-1.9835,-1.9883,-1.9952,-2.001,-2.0017,-2.0039,-2.0079,-2.0079,-1.9881,-1.9928,-1.9977,-2.0029,-2.0295,-2.0353,-2.0407,-2.0374,-2.0459,-2.0487,-2.0487,-2.0497,-2.0516,-2.0518,-2.0501,-2.0501,-2.0525,-2.0554,-2.0564,-2.0593,-2.0601,-2.0586,-2.0564,-2.0527,-2.0527,-2.0508,-2.0502,-2.0528,-2.0532,-2.0511,-2.0492,-2.0489,-2.0478,-2.0496,-2.0478,-2.0432,-2.0422,-2.0433,-2.041,-2.041,-2.0396,-2.038,-2.0349,-2.034,-2.0337,-2.0311,-2.0277,-2.023,-2.0201,-2.0167,-2.0162,-2.0135,-2.0108,-2.0084,-2.0045,-2.0088,-2.0078,-2.0059,-1.9995,-3.0753,-3.0818,-3.1408,-3.1562,-3.1504,-3.1468,-3.1359,-3.1334,-3.1128,-3.0207,-2.9002,-2.7793,-2.719,-2.7117,-2.7195,-2.7367,-2.7609,-2.7774,-2.7961,-2.7602,-2.6754,-2.6104,-2.5426,-2.4623,-2.3786,-2.3647,-2.3656,-2.3682,-2.3721,-2.3743,-2.3779,-2.3824,-2.3863,-2.3373,-2.2884,-2.245,-2.158,-2.0513,-1.9685,-1.9379,-1.9435,-1.9499,-1.9518,-1.9525,-1.9513,-1.9545,-1.9603,-1.9676,-1.9744,-1.9818,-1.9908,-1.9971,-1.9963,-1.9996,-2.0022,-2.0014,-2.001,-2.0036,-2.005,-2.0142,-2.0207,-2.0272,-2.0347,-2.0437,-2.0458,-2.0425,-2.0427,-2.0446,-2.045,-2.0467,-2.0489,-2.0511,-2.048,-2.0496,-2.0516,-2.0559,-2.0567,-2.0573,-2.0558,-2.0526,-2.051,-2.05,-2.0504,-2.0527,-2.0521,-2.051,-2.0523,-2.0511,-2.051,-2.0517,-2.0525,-2.0504,-2.0498,-2.0489,-2.0474,-2.0462,-2.0426,-2.0431,-2.04,-2.0395,-2.0391,-2.0363,-2.0347,-2.0327,-2.031,-2.0254,-2.0201,-2.0193,-2.0152,-2.0131,-2.0108,-2.0127,-2.0112,-2.0069,-2.0029,-3.0651,-3.0609,-3.0918,-3.1035,-3.0982,-3.0566,-3.0636,-3.092,-3.0488,-2.971,-2.8652,-2.7279,-2.6573,-2.6641,-2.6775,-2.694,-2.7116,-2.7289,-2.7504,-2.7324,-2.663,-2.5872,-2.5182,-2.4486,-2.3736,-2.3513,-2.3499,-2.3594,-2.37,-2.3656,-2.3711,-2.3736,-2.3714,-2.3628,-2.3231,-2.2395,-2.1341,-2.0508,-1.9674,-1.9282,-1.9337,-1.9357,-1.9383,-1.9376,-1.9357,-1.942,-1.9485,-1.9532,-1.9624,-1.9732,-1.9838,-1.9861,-1.989,-1.9925,-1.9941,-1.9922,-1.992,-1.992,-1.9942,-2.003,-2.0097,-2.0152,-2.0246,-2.034,-2.0365,-2.0318,-2.0302,-2.0343,-2.036,-2.038,-2.0383,-2.0388,-2.0377,-2.0398,-2.0448,-2.0485,-2.0525,-2.0532,-2.0554,-2.0504,-2.0511,-2.0504,-2.0509,-2.0513,-2.0506,-2.0507,-2.0525,-2.0543,-2.0541,-2.0539,-2.0542,-2.0542,-2.0539,-2.0515,-2.0506,-2.048,-2.0453,-2.0464,-2.0455,-2.0469,-2.0462,-2.0456,-2.0442,-2.0424,-2.0399,-2.036,-2.0317,-2.025,-2.0226,-2.0195,-2.0164,-2.0169,-2.0131,-2.0089,-2.0054,-3.0589,-3.051,-3.0609,-3.0671,-3.0645,-3.0242,-3.0349,-3.0664,-3.0249,-2.9356,-2.8408,-2.6993,-2.6278,-2.6347,-2.6452,-2.6606,-2.6792,-2.6923,-2.71,-2.6901,-2.6444,-2.5824,-2.5161,-2.4448,-2.3759,-2.3485,-2.3295,-2.3348,-2.347,-2.3504,-2.3481,-2.3481,-2.3515,-2.352,-2.3332,-2.2219,-2.1141,-2.0563,-1.9699,-1.9214,-1.9229,-1.9211,-1.9192,-1.9188,-1.9182,-1.9232,-1.9315,-1.9387,-1.9492,-1.9587,-1.968,-1.9719,-1.9745,-1.9781,-1.983,-1.9836,-1.9836,-1.9855,-1.986,-1.9931,-2.0021,-2.0111,-2.0137,-2.0219,-2.0227,-2.0223,-2.0238,-2.028,-2.0275,-2.0259,-2.0259,-2.0278,-2.0285,-2.0308,-2.0314,-2.0363,-2.0452,-2.0474,-2.0499,-2.0501,-2.0506,-2.0466,-2.0497,-2.0504,-2.0526,-2.0522,-2.0565,-2.0566,-2.0566,-2.0566,-2.0566,-2.0566,-2.0565,-2.0544,-2.0541,-2.0521,-2.052,-2.0536,-2.0531,-2.0544,-2.0537,-2.054,-2.0533,-2.0506,-2.0486,-2.0449,-2.0418,-2.0371,-2.031,-2.0248,-2.0231,-2.0184,-2.0177,-2.0135,-2.0084,-3.0489,-3.0489,-3.0489,-3.0589,-3.0692,-3.0814,-3.0777,-3.0662,-3.0425,-2.9623,-2.8256,-2.6819,-2.624,-2.6278,-2.6313,-2.6417,-2.6555,-2.6674,-2.6792,-2.672,-2.6295,-2.5868,-2.5282,-2.4553,-2.3808,-2.3734,-2.3332,-2.301,-2.3126,-2.3151,-2.3139,-2.3139,-2.3175,-2.3324,-2.3494,-2.2154,-2.1417,-2.1148,-1.9821,-1.9206,-1.9053,-1.9045,-1.9018,-1.899,-1.9008,-1.9087,-1.9152,-1.9246,-1.9331,-1.9409,-1.9478,-1.9523,-1.9589,-1.9663,-1.9695,-1.9682,-1.9701,-1.9701,-1.9701,-1.9877,-1.9977,-2.0069,-2.0098,-2.0116,-2.018,-2.0188,-2.0165,-2.0186,-2.0186,-2.0186,-2.0182,-2.0182,-2.0199,-2.02,-2.0208,-2.0245,-2.0334,-2.0382,-2.041,-2.0412,-2.0415,-2.042,-2.0461,-2.0482,-2.0529,-2.0553,-2.0589,-2.0594,-2.0557,-2.056,-2.0562,-2.0543,-2.0545,-2.0546,-2.0546,-2.0585,-2.0586,-2.0605,-2.0605,-2.0583,-2.0579,-2.0572,-2.0569,-2.057,-2.0555,-2.0505,-2.0513,-2.0502,-2.0413,-2.035,-2.0265,-2.0223,-2.0195,-2.0161,-2.0125,-3.0489,-3.0489,-3.0489,-3.0526,-3.0551,-3.0609,-3.0609,-3.0406,-2.9576,-2.8633,-2.7668,-2.6602,-2.6203,-2.6222,-2.624,-2.6276,-2.6329,-2.6345,-2.6451,-2.6401,-2.6134,-2.5748,-2.5212,-2.4551,-2.3831,-2.3417,-2.2959,-2.2703,-2.2816,-2.2838,-2.2833,-2.2833,-2.2876,-2.3065,-2.2923,-2.2014,-2.1156,-2.0978,-1.9885,-1.8957,-1.8922,-1.8931,-1.8932,-1.8895,-1.8923,-1.8967,-1.9027,-1.9135,-1.9174,-1.9206,-1.9282,-1.9327,-1.9413,-1.9476,-1.9536,-1.9523,-1.9536,-1.9557,-1.9589,-1.9682,-1.9818,-1.9934,-2.0028,-2.0029,-2.0064,-2.0069,-2.0074,-2.0074,-2.0079,-2.0079,-2.0079,-2.006,-2.0074,-2.0074,-2.0102,-2.0139,-2.0203,-2.0242,-2.0271,-2.0271,-2.0275,-2.0318,-2.0349,-2.0369,-2.0405,-2.0454,-2.048,-2.0532,-2.0542,-2.0526,-2.053,-2.0528,-2.0529,-2.0532,-2.0553,-2.0552,-2.0555,-2.0578,-2.0583,-2.0605,-2.0605,-2.0585,-2.0602,-2.058,-2.0573,-2.0562,-2.0553,-2.0539,-2.0504,-2.0434,-2.0355,-2.0286,-2.0255,-2.0219,-2.018,-3.0489,-3.0489,-3.0489,-3.0489,-3.0489,-3.0489,-3.0373,-2.9943,-2.8906,-2.7995,-2.7265,-2.6535,-2.6203,-2.6185,-2.6185,-2.6185,-2.6185,-2.6203,-2.6203,-2.6185,-2.6187,-2.594,-2.5394,-2.4564,-2.404,-2.3425,-2.2798,-2.2426,-2.2548,-2.2561,-2.2561,-2.2561,-2.2575,-2.2721,-2.2511,-2.1749,-2.0983,-2.067,-1.9747,-1.8913,-1.8896,-1.8896,-1.8896,-1.8878,-1.8878,-1.8932,-1.8967,-1.8992,-1.9043,-1.9051,-1.9066,-1.9125,-1.9204,-1.93,-1.9353,-1.9353,-1.9327,-1.9365,-1.9402,-1.9445,-1.9597,-1.9775,-1.9879,-1.9919,-1.9922,-1.9934,-1.9961,-1.9958,-1.9974,-1.999,-2.0014,-1.9995,-2.0,-2.0005,-2.002,-2.0069,-2.0084,-2.0139,-2.0165,-2.0161,-2.0199,-2.0227,-2.0237,-2.0259,-2.0289,-2.0323,-2.0355,-2.0431,-2.0492,-2.0479,-2.0453,-2.0437,-2.0464,-2.0472,-2.0476,-2.048,-2.0506,-2.0536,-2.0545,-2.0551,-2.0579,-2.0563,-2.0586,-2.0605,-2.0583,-2.058,-2.0594,-2.0583,-2.0549,-2.0513,-2.0476,-2.04,-2.0352,-2.0308,-2.0269,-3.0485,-3.0489,-3.0489,-3.0468,-3.0485,-3.0344,-2.9968,-2.933,-2.8691,-2.7945,-2.7182,-2.6468,-2.6185,-2.6185,-2.6185,-2.6185,-2.6185,-2.6185,-2.6185,-2.6185,-2.6185,-2.6086,-2.564,-2.4763,-2.418,-2.3658,-2.2994,-2.2192,-2.2265,-2.2262,-2.2262,-2.2279,-2.2262,-2.2388,-2.2081,-2.1552,-2.0962,-2.0527,-1.9793,-1.9047,-1.886,-1.8824,-1.8797,-1.8788,-1.8788,-1.8833,-1.8852,-1.8878,-1.8887,-1.8895,-1.8904,-1.8948,-1.9026,-1.9137,-1.9125,-1.9123,-1.9123,-1.9138,-1.9212,-1.9266,-1.9365,-1.9523,-1.9661,-1.9745,-1.9788,-1.9781,-1.9817,-1.9853,-1.9881,-1.9952,-1.9993,-1.9999,-1.9985,-1.9996,-1.9988,-2.0012,-2.0031,-2.0062,-2.0063,-2.0093,-2.0135,-2.0176,-2.0169,-2.0171,-2.0153,-2.0192,-2.0237,-2.0296,-2.0358,-2.04,-2.0378,-2.0305,-2.0329,-2.0395,-2.041,-2.0405,-2.0441,-2.0476,-2.0464,-2.0476,-2.0492,-2.0523,-2.0551,-2.0579,-2.0585,-2.0605,-2.0605,-2.0603,-2.0599,-2.0574,-2.0545,-2.0501,-2.0422,-2.0415,-2.0385,-3.0295,-3.0295,-3.0295,-3.0231,-3.0064,-2.9526,-2.9067,-2.8668,-2.8442,-2.7727,-2.6501,-2.6285,-2.615,-2.6185,-2.6185,-2.6185,-2.6185,-2.6185,-2.6185,-2.6185,-2.6185,-2.6185,-2.5673,-2.4812,-2.4215,-2.3583,-2.2831,-2.1959,-2.1945,-2.1945,-2.1976,-2.1961,-2.1991,-2.2032,-2.1838,-2.1372,-2.1032,-2.0528,-1.9766,-1.9192,-1.877,-1.8637,-1.8627,-1.8592,-1.8611,-1.8648,-1.8667,-1.8715,-1.8734,-1.8744,-1.8816,-1.887,-1.8932,-1.9019,-1.9043,-1.9035,-1.9008,-1.899,-1.9051,-1.9127,-1.9208,-1.9269,-1.9364,-1.9471,-1.9536,-1.9611,-1.9663,-1.9738,-1.9794,-1.9867,-1.9938,-1.9955,-1.996,-1.9947,-1.9958,-1.9963,-1.9982,-1.9988,-2.0004,-1.9991,-2.0053,-2.0049,-2.0064,-2.006,-2.0041,-2.0069,-2.0106,-2.016,-2.0227,-2.0289,-2.0279,-2.02,-2.0235,-2.0292,-2.0334,-2.0355,-2.0377,-2.0398,-2.0383,-2.0393,-2.0433,-2.0472,-2.0511,-2.0549,-2.0565,-2.0575,-2.0601,-2.0584,-2.0566,-2.0586,-2.0584,-2.0533,-2.0511,-2.048,-2.0467,-3.0044,-3.0044,-3.006,-2.9729,-2.9204,-2.8737,-2.816,-2.7593,-2.7637,-2.7024,-2.6052,-2.5952,-2.5952,-2.5952,-2.597,-2.6007,-2.6078,-2.6097,-2.6133,-2.6185,-2.6185,-2.6185,-2.5689,-2.4829,-2.4149,-2.3487,-2.2725,-2.1842,-2.1781,-2.1781,-2.1812,-2.1827,-2.1781,-2.184,-2.1807,-2.1597,-2.1234,-2.0624,-1.9952,-1.9295,-1.8903,-1.853,-1.8365,-1.841,-1.844,-1.847,-1.8463,-1.8534,-1.8649,-1.8669,-1.8751,-1.8806,-1.8852,-1.8905,-1.8932,-1.8923,-1.8887,-1.8905,-1.8967,-1.8993,-1.9053,-1.9069,-1.9067,-1.914,-1.9256,-1.9361,-1.9502,-1.9616,-1.9688,-1.977,-1.9849,-1.9921,-1.9915,-1.9896,-1.9908,-1.9925,-1.9938,-1.9938,-1.9932,-1.9902,-1.9913,-1.9925,-1.9917,-1.9915,-1.9912,-1.9923,-1.996,-2.0026,-2.0106,-2.0179,-2.0154,-2.0098,-2.014,-2.021,-2.0239,-2.0283,-2.0285,-2.0299,-2.0305,-2.0321,-2.0346,-2.0394,-2.0442,-2.0472,-2.0519,-2.0511,-2.0519,-2.0506,-2.0495,-2.0481,-2.0425,-2.0409,-2.0407,-2.0505,-2.0488,-2.9744,-2.9728,-2.9705,-2.9076,-2.8123,-2.7968,-2.7194,-2.6066,-2.635,-2.616,-2.5578,-2.5532,-2.5549,-2.5532,-2.5624,-2.5735,-2.5862,-2.5937,-2.6097,-2.6185,-2.6185,-2.6185,-2.5772,-2.4862,-2.4282,-2.3586,-2.2824,-2.2028,-2.1814,-2.1781,-2.1781,-2.1781,-2.1781,-2.1825,-2.1834,-2.1842,-2.1521,-2.1036,-2.0216,-1.9463,-1.9201,-1.8702,-1.8224,-1.8262,-1.8343,-1.8398,-1.8322,-1.8426,-1.8638,-1.8638,-1.8668,-1.8751,-1.876,-1.876,-1.8769,-1.8769,-1.876,-1.8779,-1.8806,-1.8824,-1.8843,-1.8861,-1.8869,-1.8878,-1.8955,-1.9156,-1.9312,-1.9423,-1.9495,-1.9589,-1.9674,-1.9707,-1.9713,-1.9713,-1.9719,-1.9788,-1.9873,-1.9813,-1.9674,-1.9681,-1.9719,-1.9726,-1.9707,-1.9707,-1.9707,-1.9757,-1.9781,-1.9826,-1.9939,-2.0021,-2.001,-1.9974,-2.0033,-2.0079,-2.0131,-2.0161,-2.0159,-2.0175,-2.0179,-2.0223,-2.0235,-2.029,-2.0366,-2.0404,-2.0438,-2.041,-2.0388,-2.0268,-2.0109,-2.0038,-2.0045,-2.0185,-2.0283,-2.0352,-2.0518,-2.9273,-2.9243,-2.9059,-2.8435,-2.7534,-2.6962,-2.6264,-2.5418,-2.5025,-2.4988,-2.5052,-2.5075,-2.5075,-2.5095,-2.525,-2.5403,-2.5591,-2.5772,-2.6007,-2.6097,-2.6133,-2.6097,-2.6019,-2.5141,-2.4497,-2.3868,-2.3106,-2.2181,-2.1852,-2.1768,-2.1783,-2.1797,-2.1768,-2.1768,-2.1796,-2.1823,-2.1641,-2.1361,-2.0719,-2.0084,-1.9836,-1.9633,-1.9316,-1.8998,-1.8859,-1.8511,-1.8345,-1.813,-1.826,-1.8307,-1.8467,-1.8544,-1.8563,-1.8563,-1.8563,-1.8553,-1.8553,-1.8563,-1.8573,-1.8582,-1.8574,-1.8601,-1.8593,-1.8593,-1.8697,-1.8949,-1.9101,-1.9214,-1.9297,-1.938,-1.9445,-1.9485,-1.9506,-1.9513,-1.9513,-1.9661,-1.9795,-1.9621,-1.9431,-1.9468,-1.9518,-1.9506,-1.9506,-1.9506,-1.9506,-1.9509,-1.9499,-1.9548,-1.9726,-1.9841,-1.9845,-1.9817,-1.9896,-1.9958,-1.9988,-2.0005,-2.0006,-2.0007,-2.0017,-2.0065,-2.0121,-2.0234,-2.0322,-2.0327,-2.0337,-2.0332,-2.0134,-1.9674,-1.9539,-1.9571,-1.9313,-1.9284,-1.9756,-1.9948,-2.0289,-2.8482,-2.8748,-2.8486,-2.7701,-2.6656,-2.6168,-2.5454,-2.4593,-2.4146,-2.4105,-2.4359,-2.4538,-2.4655,-2.4675,-2.4839,-2.502,-2.5253,-2.5511,-2.5696,-2.5862,-2.5899,-2.5915,-2.5639,-2.5194,-2.439,-2.3686,-2.2654,-2.1867,-2.1621,-2.1572,-2.1572,-2.1572,-2.1572,-2.1587,-2.1601,-2.1616,-2.1648,-2.1615,-2.1111,-2.0864,-2.0511,-2.0147,-1.9641,-1.9256,-1.8746,-1.8464,-1.8255,-1.7978,-1.7833,-1.7964,-1.8128,-1.8184,-1.8222,-1.8211,-1.8242,-1.8259,-1.8249,-1.8249,-1.8259,-1.827,-1.8242,-1.827,-1.8297,-1.828,-1.8323,-1.8558,-1.8698,-1.8807,-1.8981,-1.9081,-1.9193,-1.9259,-1.9308,-1.9323,-1.9341,-1.9416,-1.9383,-1.9253,-1.9232,-1.9318,-1.9349,-1.9349,-1.9349,-1.9323,-1.9323,-1.9341,-1.9309,-1.9291,-1.9467,-1.9569,-1.9584,-1.9611,-1.9642,-1.9669,-1.9676,-1.9732,-1.9803,-1.9821,-1.9843,-1.9944,-2.0035,-2.0199,-2.0292,-2.0285,-2.0281,-2.0285,-1.9983,-1.9426,-1.9197,-1.9234,-1.875,-1.8266,-1.8841,-1.9413,-1.9783,-2.7572,-2.8154,-2.7835,-2.691,-2.5713,-2.5495,-2.4799,-2.3766,-2.3595,-2.3616,-2.3724,-2.4057,-2.4198,-2.4281,-2.4426,-2.4599,-2.4803,-2.5017,-2.5266,-2.5397,-2.5438,-2.54,-2.5207,-2.482,-2.4078,-2.3082,-2.1939,-2.1488,-2.1183,-2.1166,-2.1166,-2.1198,-2.1214,-2.1214,-2.1293,-2.1339,-2.1354,-2.1449,-2.1302,-2.1398,-2.0968,-2.0439,-1.9944,-1.9265,-1.8696,-1.8244,-1.8177,-1.7815,-1.7524,-1.7607,-1.7816,-1.7876,-1.7898,-1.7909,-1.7936,-1.7947,-1.7936,-1.7936,-1.7947,-1.7919,-1.7919,-1.7936,-1.7947,-1.798,-1.8027,-1.8121,-1.8275,-1.8405,-1.8596,-1.8771,-1.8895,-1.8999,-1.9059,-1.9127,-1.9135,-1.9162,-1.9035,-1.8949,-1.9043,-1.9162,-1.9162,-1.9153,-1.9135,-1.9135,-1.9135,-1.9144,-1.9144,-1.9144,-1.916,-1.919,-1.9238,-1.9235,-1.9243,-1.9282,-1.935,-1.9476,-1.9573,-1.9605,-1.9663,-1.9793,-1.9942,-2.0069,-2.0171,-2.0229,-2.0225,-2.0177,-1.9773,-1.9219,-1.9069,-1.8838,-1.7693,-1.7065,-1.7813,-1.8393,-1.9054,-2.6641,-2.7204,-2.6522,-2.595,-2.554,-2.5038,-2.4321,-2.3684,-2.3573,-2.3595,-2.3595,-2.3638,-2.3739,-2.3745,-2.3988,-2.4183,-2.4338,-2.4522,-2.4643,-2.4779,-2.4839,-2.4819,-2.4693,-2.4398,-2.3742,-2.2658,-2.1497,-2.0821,-2.0712,-2.0697,-2.068,-2.068,-2.068,-2.0713,-2.0795,-2.091,-2.1087,-2.1166,-2.1309,-2.134,-2.134,-2.0963,-2.0808,-2.059,-2.0668,-1.9635,-1.8723,-1.7602,-1.7371,-1.7408,-1.7561,-1.7618,-1.7641,-1.7625,-1.7653,-1.7653,-1.7641,-1.7653,-1.7653,-1.7636,-1.7653,-1.7653,-1.7664,-1.7676,-1.7721,-1.7732,-1.7844,-1.7888,-1.8086,-1.8381,-1.8528,-1.8659,-1.8725,-1.8843,-1.8914,-1.8905,-1.8852,-1.8824,-1.8843,-1.8878,-1.8878,-1.8878,-1.8878,-1.8878,-1.8878,-1.8887,-1.8905,-1.8887,-1.894,-1.8923,-1.8914,-1.8914,-1.8923,-1.8922,-1.9007,-1.9225,-1.9354,-1.9387,-1.9449,-1.957,-1.9719,-1.9928,-2.004,-2.0112,-2.0064,-1.9988,-1.9525,-1.9054,-1.8523,-1.8047,-1.6451,-1.5808,-1.6673,-1.7375,-1.8047]},{"header":{"parameterUnit":"m.s-1","parameterCategory":1,"la1":31.0,"la2":29.5877,"lo1":-88.7671,"lo2":-86.6584,"dy":0.0162,"dx":0.0185,"nx":115,"ny":88,"refTime":"2026-05-12T00:00:00:Z","depth":0,"parameterNumber":3,"parameterNumberName":"V-component_of_WINDS"},"data":[0.0,0.0,0.0,0.0,0.0,0.0,0.0,0.0,0.0,0.0,0.0,0.0,0.0,0.0,0.0,0.0,0.0,0.0,0.0,0.0,0.0,0.0,0.0,0.0,0.0,0.0,0.0,0.0,0.0,0.0,0.0,0.0,0.0,0.0,0.0,0.0,0.0,0.0,0.0,0.0,0.0,0.0,0.0,0.0,0.0,0.0,0.0,0.0,0.0,0.0,0.0,0.0,0.0,0.0,0.0,0.0,0.0,0.0,0.0,0.0,0.0,0.0,0.0,0.0,0.0,0.0,0.0,0.0,0.0,0.0,0.0,0.0,0.0,0.0,0.0,0.0,0.0,0.0,0.0,0.0,0.0,0.0,0.0,0.0,0.0,0.0,0.0,0.0,0.0,0.0,0.0,0.0,0.0,0.0,0.0,0.0,0.0,0.0,0.0,0.0,0.0,0.0,0.0,0.0,0.0,0.0,0.0,0.0,0.0,0.0,0.0,0.0,0.0,0.0,0.0,0.0,0.0,0.0,0.0,0.0,0.0,0.0,0.0,0.0,0.0,0.0,0.0,0.0,0.0,0.0,0.0,0.0,0.0,0.0,0.0,0.0,0.0,0.0,0.0,0.0,0.0,0.0,0.0,0.0,0.0,0.0,0.0,0.0,0.0,0.0,0.0,0.0,0.0,0.0,0.0,0.0,0.0,0.0,0.0,0.0,0.0,0.0,0.0,0.0,0.0,0.0,0.0,0.0,0.0,0.0,0.0,0.0,0.0,0.0,0.0,0.0,0.0,0.0,0.0,0.0,0.0,0.0,0.0,0.0,0.0,0.0,0.0,0.0,0.0,0.0,0.0,0.0,0.0,0.0,0.0,0.0,0.0,0.0,0.0,0.0,0.0,0.0,0.0,0.0,0.0,0.0,0.0,0.0,0.0,0.0,0.0,0.0,0.0,0.0,0.0,0.0,0.0,0.0,0.0,0.0,0.0,0.0,0.0,0.0,0.0,0.0,0.0,0.0,0.0,0.0,0.0,0.0,0.0,0.0,0.0,0.0,0.0,0.0,0.0,0.0,0.0,0.0,0.0,0.0,0.0,0.0,0.0,0.0,0.0,0.0,0.0,0.0,0.0,0.0,0.0,0.0,0.0,0.0,0.0,0.0,0.0,0.0,0.0,0.0,0.0,0.0,0.0,0.0,0.0,0.0,0.0,0.0,0.0,0.0,0.0,0.0,0.0,0.0,0.0,0.0,0.0,0.0,0.0,0.0,0.0,0.0,0.0,0.0,0.0,0.0,0.0,0.0,0.0,0.0,0.0,0.0,0.0,0.0,0.0,0.0,0.0,0.0,0.0,0.0,0.0,0.0,0.0,0.0,0.0,0.0,0.0,0.0,0.0,0.0,0.0,0.0,0.0,0.0,0.0,0.0,0.0,0.0,0.0,0.0,0.0,0.0,0.0,0.0,0.0,0.0,0.0,0.0,0.0,0.0,0.0,0.0,0.0,0.0,0.0,0.0,0.0,0.0,0.0,0.0,0.0,0.0,0.0,0.0,0.0,0.0,0.0,0.0,0.0,0.0,0.0,0.0,0.0,0.0,0.0,0.0,0.0,0.0,0.0,0.0,0.0,0.0,0.0,0.0,0.0,0.0,0.0,0.0,0.0,0.0,0.0,0.0,0.0,0.0,0.0,0.0,0.0,0.0,0.0,0.0,0.0,0.0,0.0,0.0,0.0,0.0,0.0,0.0,0.0,0.0,0.0,0.0,0.0,0.0,0.0,0.0,0.0,0.0,0.0,0.0,0.0,0.0,0.0,0.0,0.0,0.0,0.0,0.0,0.0,0.0,0.0,0.0,0.0,0.0,0.0,0.0,0.0,0.0,0.0,0.0,0.0,0.0,0.0,0.0,0.0,0.0,0.0,0.0,0.0,0.0,0.0,0.0,0.0,0.0,0.0,0.0,0.0,0.0,0.0,0.0,0.0,0.0,0.0,0.0,0.0,0.0,0.0,0.0,0.0,0.0,0.0,0.0,0.0,0.0,0.0,0.0,0.0,0.0,0.0,0.0,0.0,0.0,0.0,0.0,0.0,0.0,0.0,0.0,0.0,0.0,0.0,0.0,0.0,0.0,0.0,0.0,0.0,0.0,0.0,0.0,0.0,0.0,0.0,0.0,0.0,0.0,0.0,0.0,0.0,0.0,0.0,0.0,0.0,0.0,0.0,0.0,0.0,0.0,0.0,0.0,0.0,0.0,0.0,0.0,0.0,0.0,0.0,0.0,0.0,0.0,0.0,0.0,0.0,0.0,0.0,0.0,0.0,0.0,0.0,0.0,0.0,0.0,0.0,0.0,0.0,0.0,0.0,0.0,0.0,0.0,0.0,0.0,0.0,0.0,0.0,0.0,0.0,0.0,0.0,0.0,0.0,0.0,0.0,0.0,0.0,0.0,0.0,0.0,0.0,0.0,0.0,0.0,0.0,0.0,0.0,0.0,0.0,0.0,0.0,0.0,0.0,0.0,0.0,0.0,0.0,0.0,0.0,0.0,0.0,0.0,0.0,0.0,0.0,0.0,0.0,0.0,0.0,0.0,0.0,0.0,0.0,0.0,0.0,0.0,0.0,0.0,0.0,0.0,0.0,0.0,0.0,0.0,0.0,0.0,0.0,0.0,0.0,0.0,0.0,0.0,0.0,0.0,0.0,0.0,0.0,0.0,0.0,0.0,0.0,0.0,0.0,0.0,0.0,0.0,0.0,0.0,0.0,0.0,0.0,0.0,0.0,0.0,0.0,0.0,0.0,0.0,0.0,0.0,0.0,0.0,0.0,0.0,0.0,0.0,0.0,0.0,0.0,0.0,0.0,0.0,0.0,0.0,0.0,0.0,0.0,0.0,0.0,0.0,0.0,0.0,0.0,0.0,0.0,0.0,0.0,0.0,0.0,0.0,0.0,0.0,0.0,0.0,0.0,0.0,0.0,0.0,0.0,0.0,0.0,0.0,0.0,0.0,0.0,0.0,0.0,0.0,0.0,0.0,0.0,0.0,0.0,0.0,0.0,0.0,0.0,0.0,0.0,0.0,0.0,0.0,0.0,0.0,0.0,0.0,0.0,0.0,0.0,0.0,0.0,0.0,0.0,0.0,0.0,0.0,0.0,0.0,0.0,0.0,0.0,0.0,0.0,0.0,0.0,0.0,0.0,0.0,0.0,0.0,0.0,0.0,0.0,0.0,0.0,0.0,0.0,0.0,0.0,0.0,0.0,0.0,0.0,0.0,0.0,0.0,0.0,0.0,0.0,0.0,0.0,0.0,0.0,0.0,0.0,0.0,0.0,0.0,0.0,0.0,0.0,0.0,0.0,0.0,0.0,0.0,0.0,0.0,0.0,0.0,0.0,0.0,0.0,0.0,0.0,0.0,0.0,0.0,0.0,0.0,0.0,0.0,0.0,0.0,0.0,0.0,0.0,0.0,0.0,0.0,0.0,0.0,0.0,0.0,0.0,0.0,0.0,0.0,0.0,0.0,0.0,0.0,0.0,0.0,0.0,0.0,0.0,0.0,0.0,0.0,0.0,0.0,0.0,0.0,0.0,0.0,0.0,0.0,0.0,0.0,0.0,0.0,0.0,0.0,0.0,0.0,0.0,0.0,0.0,0.0,0.0,0.0,0.0,0.0,0.0,0.0,0.0,0.0,0.0,0.0,0.0,0.0,0.0,0.0,0.0,0.0,0.0,0.0,0.0,0.0,0.0,0.0,0.0,0.0,0.0,0.0,0.0,0.0,0.0,0.0,0.0,0.0,0.0,0.0,0.0,0.0,0.0,0.0,0.0,0.0,0.0,0.0,0.0,0.0,0.0,0.0,0.0,0.0,0.0,0.0,0.0,0.0,0.0,0.0,0.0,0.0,0.0,0.0,0.0,0.0,0.0,0.0,0.0,0.0,0.0,0.0,0.0,0.0,0.0,0.0,0.0,0.0,0.0,0.0,0.0,0.0,0.0,0.0,0.0,0.0,0.0,0.0,0.0,0.0,0.0,0.0,0.0,0.0,0.0,0.0,0.0,0.0,0.0,0.0,0.0,0.0,0.0,0.0,0.0,0.0,0.0,0.0,0.0,0.0,0.0,0.0,0.0,0.0,0.0,0.0,0.0,0.0,0.0,0.0,0.0,0.0,0.0,0.0,0.0,0.0,0.0,0.0,0.0,0.0,0.0,0.0,0.0,0.0,0.0,0.0,0.0,0.0,0.0,0.0,0.0,0.0,0.0,0.0,0.0,0.0,0.0,0.0,0.0,0.0,-0.334,0.0,0.0,0.0,0.0,0.0,0.0,0.0,0.0,0.0,0.0,0.0,0.0,0.0,0.0,0.0,0.0,0.0,0.0,0.0,0.0,0.0,0.0,0.0,0.0,0.0,0.0,0.0,0.0,0.0,0.0,0.0,0.0,0.0,0.0,0.0,0.0,0.0,0.0,0.0,0.0,0.0,0.0,0.0,0.0,0.0,0.0,0.0,0.0,0.0,0.0,0.0,0.0,0.0,0.0,0.0,0.0,0.0,0.0,0.0,0.0,0.0,0.0,0.0,0.0,0.0,0.0,0.0,0.0,0.0,0.0,0.0,0.0,0.0,0.0,0.0,0.0,0.0,0.0,0.0,0.0,0.0,0.0,0.0,0.0,0.0,0.0,0.0,0.0,0.0,0.0,0.0,0.0,0.0,0.0,0.0,0.0,0.0,0.0,0.0,0.0,0.0,0.0,0.0,0.0,0.0,0.0,0.0,0.0,0.0,0.0,-0.3435,-0.3428,-0.3286,-0.3205,-0.3185,0.0,0.0,0.0,0.0,0.0,0.0,0.0,0.0,0.0,0.0,0.0,0.0,0.0,0.0,0.0,0.0,0.0,0.0,0.0,0.0,0.0,0.0,0.0,0.0,0.0,0.0,0.0,0.0,0.0,0.0,0.0,0.0,0.0,0.0,0.0,0.0,0.0,0.0,0.0,0.0,0.0,0.0,0.0,0.0,0.0,0.0,0.0,0.0,0.0,0.0,0.0,0.0,0.0,0.0,0.0,0.0,0.0,0.0,0.0,0.0,0.0,0.0,0.0,0.0,0.0,0.0,0.0,0.0,0.0,0.0,0.0,0.0,0.0,0.0,0.0,0.0,0.0,0.0,0.0,0.0,0.0,0.0,0.0,0.0,0.0,0.0,0.0,0.0,0.0,0.0,0.0,0.0,0.0,0.0,0.0,0.0,0.0,0.0,0.0,0.0,0.0,0.0,0.0,0.0,0.0,0.0,0.0,0.0,0.0,0.0,0.0,0.0,-0.3212,-0.3158,-0.3146,0.0,0.0,0.0,0.0,0.0,0.0,0.0,0.0,0.0,0.0,0.0,0.0,0.0,0.0,0.0,0.0,0.0,0.0,0.0,0.0,0.0,0.0,0.0,0.0,0.0,0.0,0.0,0.0,0.0,0.0,0.0,0.0,0.0,0.0,0.0,0.0,0.0,0.0,0.0,0.0,0.0,0.0,0.0,0.0,0.0,0.0,0.0,0.0,0.0,0.0,0.0,0.0,0.0,0.0,0.0,0.0,0.0,0.0,0.0,0.0,0.0,0.0,0.0,0.0,0.0,0.0,0.0,0.0,0.0,0.0,0.0,0.0,0.0,0.0,0.0,0.0,0.0,0.0,0.0,0.0,0.0,0.0,0.0,0.0,0.0,0.0,0.0,0.0,0.0,0.0,0.0,0.0,0.0,0.0,0.0,0.0,0.0,0.0,0.0,0.0,0.0,0.0,0.0,0.0,0.0,0.0,0.0,0.0,0.0,0.0,-0.3289,-0.3289,-0.3334,0.0,-0.3289,0.0,0.0,0.0,0.0,0.0,0.0,0.0,0.0,0.0,0.0,0.0,0.0,0.0,0.0,0.0,0.0,0.0,0.0,0.0,0.0,0.0,0.0,0.0,0.0,0.0,0.0,0.0,0.0,0.0,0.0,0.0,0.0,0.0,0.0,0.0,0.0,0.0,0.0,0.0,0.0,0.0,0.0,0.0,0.0,0.0,0.0,0.0,0.0,0.0,0.0,0.0,0.0,0.0,0.0,0.0,0.0,0.0,0.0,0.0,0.0,0.0,0.0,0.0,0.0,0.0,0.0,0.0,0.0,0.0,0.0,0.0,0.0,0.0,0.0,0.0,0.0,0.0,0.0,0.0,0.0,0.0,0.0,0.0,0.0,0.0,0.0,0.0,0.0,0.0,0.0,0.0,0.0,0.0,0.0,0.0,0.0,0.0,0.0,0.0,0.0,0.0,0.0,0.0,0.0,0.0,0.0,0.0,0.0,0.0,0.0,0.0,-0.3344,-0.3263,-0.3267,0.0,0.0,0.0,0.0,0.0,0.0,0.0,0.0,0.0,0.0,0.0,0.0,0.0,0.0,0.0,0.0,0.0,0.0,0.0,0.0,0.0,0.0,0.0,0.0,0.0,0.0,0.0,0.0,0.0,0.0,0.0,0.0,0.0,0.0,0.0,0.0,0.0,0.0,0.0,0.0,0.0,0.0,0.0,0.0,0.0,0.0,0.0,0.0,0.0,0.0,0.0,0.0,0.0,0.0,0.0,0.0,0.0,0.0,0.0,0.0,0.0,0.0,0.0,0.0,0.0,0.0,0.0,0.0,0.0,0.0,0.0,0.0,0.0,0.0,0.0,0.0,0.0,0.0,0.0,0.0,0.0,0.0,0.0,0.0,0.0,0.0,0.0,0.0,0.0,0.0,0.0,0.0,0.0,0.0,0.0,0.0,0.0,0.0,0.0,0.0,0.0,0.0,0.0,0.0,0.0,0.0,0.0,0.0,0.0,0.0,-0.3057,0.0,-0.3355,-0.3182,-0.318,-0.3354,0.0,0.0,0.0,0.0,0.0,0.0,0.0,0.0,0.0,0.0,0.0,0.0,0.0,0.0,0.0,0.0,0.0,0.0,0.0,0.0,0.0,0.0,0.0,0.0,0.0,0.0,0.0,0.0,0.0,0.0,0.0,0.0,0.0,0.0,0.0,0.0,0.0,0.0,0.0,0.0,0.0,0.0,0.0,0.0,0.0,0.0,0.0,0.0,0.0,0.0,0.0,0.0,0.0,0.0,0.0,0.0,0.0,0.0,0.0,0.0,0.0,0.0,0.0,0.0,0.0,0.0,0.0,0.0,0.0,0.0,0.0,0.0,0.0,0.0,0.0,0.0,0.0,0.0,0.0,0.0,0.0,0.0,0.0,0.0,0.0,0.0,0.0,0.0,0.0,0.0,0.0,0.0,0.0,0.0,0.0,0.0,0.0,0.0,0.0,0.0,0.0,0.0,0.0,0.0,0.0,0.0,0.0,0.0,0.0,-0.2978,-0.3172,-0.3296,-0.3178,-0.3128,0.0,0.0,0.0,0.0,0.0,0.0,0.0,0.0,0.0,0.0,0.0,0.0,0.0,0.0,0.0,0.0,0.0,0.0,0.0,0.0,0.0,0.0,0.0,0.0,0.0,0.0,0.0,0.0,0.0,0.0,0.0,0.0,0.0,0.0,0.0,0.0,0.0,0.0,0.0,0.0,0.0,0.0,0.0,0.0,0.0,0.0,0.0,0.0,0.0,0.0,0.0,0.0,0.0,0.0,0.0,0.0,0.0,0.0,0.0,0.0,0.0,0.0,0.0,0.0,0.0,0.0,0.0,0.0,0.0,0.0,0.0,0.0,0.0,0.0,0.0,0.0,0.0,0.0,0.0,0.0,0.0,0.0,0.0,0.0,0.0,0.0,0.0,0.0,0.0,0.0,0.0,0.0,0.0,0.0,0.0,0.0,0.0,0.0,0.0,0.0,0.0,0.0,0.0,0.0,0.0,0.0,0.0,0.0,0.0,-0.2693,-0.2968,-0.3105,-0.3159,-0.3108,-0.3147,0.0,0.0,0.0,0.0,0.0,0.0,0.0,0.0,0.0,0.0,0.0,0.0,0.0,0.0,0.0,0.0,0.0,0.0,0.0,0.0,0.0,0.0,0.0,0.0,0.0,0.0,0.0,0.0,0.0,0.0,0.0,0.0,0.0,0.0,0.0,0.0,0.0,0.0,0.0,0.0,0.0,0.0,0.0,0.0,0.0,0.0,0.0,0.0,0.0,0.0,0.0,0.0,0.0,0.0,0.0,0.0,0.0,0.0,0.0,0.0,0.0,0.0,0.0,0.0,0.0,0.0,0.0,0.0,0.0,0.0,0.0,0.0,0.0,0.0,0.0,0.0,0.0,0.0,0.0,0.0,0.0,0.0,0.0,0.0,0.0,0.0,0.0,0.0,0.0,0.0,0.0,0.0,0.0,0.0,0.0,0.0,0.0,0.0,0.0,0.0,0.0,0.0,0.0,0.0,0.0,0.0,0.0,0.0,0.0,-0.2921,0.0,-0.3174,0.0,-0.312,-0.3122,0.0,0.0,0.0,0.0,0.0,0.0,0.0,0.0,0.0,0.0,0.0,0.0,0.0,0.0,0.0,0.0,0.0,0.0,0.0,0.0,0.0,0.0,0.0,0.0,0.0,0.0,0.0,0.0,0.0,0.0,0.0,0.0,0.0,0.0,0.0,0.0,0.0,0.0,0.0,0.0,0.0,0.0,0.0,0.0,0.0,0.0,0.0,0.0,0.0,0.0,0.0,0.0,0.0,0.0,0.0,0.0,0.0,0.0,0.0,0.0,0.0,0.0,0.0,0.0,0.0,0.0,0.0,0.0,0.0,0.0,0.0,0.0,0.0,0.0,0.0,0.0,0.0,0.0,0.0,0.0,0.0,0.0,0.0,0.0,0.0,0.0,0.0,0.0,0.0,0.0,0.0,0.0,0.0,0.0,0.0,0.0,0.0,0.0,0.0,0.0,0.0,0.0,0.0,0.0,0.0,0.0,0.0,0.0,-0.3191,-0.3379,-0.341,-0.3303,-0.3111,-0.3104,-0.3036,0.0,0.0,0.0,0.0,0.0,0.0,0.0,0.0,0.0,0.0,0.0,0.0,0.0,0.0,0.0,0.0,0.0,0.0,0.0,0.0,0.0,0.0,0.0,0.0,0.0,0.0,0.0,0.0,0.0,0.0,0.0,0.0,0.0,0.0,0.0,0.0,0.0,0.0,0.0,0.0,0.0,0.0,0.0,0.0,0.0,0.0,0.0,0.0,0.0,0.0,0.0,0.0,0.0,0.0,0.0,0.0,0.0,0.0,0.0,0.0,0.0,0.0,0.0,0.0,0.0,0.0,0.0,0.0,0.0,0.0,0.0,0.0,0.0,0.0,0.0,0.0,0.0,0.0,0.0,0.0,0.0,0.0,0.0,0.0,0.0,0.0,0.0,0.0,0.0,0.0,0.0,0.0,0.0,0.0,0.0,0.0,0.0,0.0,0.0,0.0,0.0,0.0,0.0,0.0,0.0,0.0,0.0,0.0,0.0,-0.333,-0.3474,-0.3436,-0.3242,-0.3158,-0.3122,0.0,0.0,0.0,0.0,0.0,0.0,0.0,0.0,0.0,0.0,0.0,0.0,0.0,0.0,0.0,0.0,0.0,0.0,0.0,0.0,0.0,0.0,0.0,0.0,0.0,0.0,0.0,0.0,0.0,0.0,0.0,0.0,0.0,0.0,0.0,0.0,0.0,0.0,0.0,0.0,0.0,0.0,0.0,0.0,0.0,0.0,0.0,0.0,0.0,0.0,0.0,0.0,0.0,0.0,0.0,0.0,0.0,0.0,0.0,0.0,0.0,0.0,0.0,0.0,0.0,0.0,0.0,0.0,0.0,0.0,0.0,0.0,0.0,0.0,0.0,0.0,0.0,0.0,0.0,0.0,0.0,0.0,0.0,0.0,0.0,0.0,0.0,0.0,0.0,0.0,0.0,0.0,0.0,0.0,0.0,0.0,0.0,0.0,0.0,0.0,0.0,0.0,0.0,0.0,0.0,0.0,0.0,0.0,0.0,-0.3576,-0.3697,-0.3643,-0.3421,-0.3341,-0.3301,-0.3309,0.0,0.0,0.0,0.0,0.0,0.0,0.0,0.0,0.0,0.0,0.0,0.0,0.0,0.0,0.0,0.0,0.0,0.0,0.0,0.0,0.0,0.0,0.0,0.0,0.0,0.0,0.0,0.0,0.0,0.0,0.0,0.0,0.0,0.0,0.0,0.0,0.0,0.0,0.0,0.0,0.0,0.0,0.0,0.0,0.0,0.0,0.0,0.0,0.0,0.0,0.0,0.0,0.0,0.0,0.0,0.0,0.0,0.0,0.0,0.0,0.0,0.0,0.0,0.0,0.0,0.0,0.0,0.0,0.0,0.0,0.0,0.0,0.0,0.0,0.0,0.0,0.0,0.0,0.0,0.0,0.0,0.0,0.0,0.0,0.0,0.0,0.0,0.0,0.0,0.0,0.0,0.0,0.0,0.0,0.0,0.0,0.0,0.0,0.0,0.0,0.0,0.0,0.0,0.0,0.0,0.0,0.0,0.0,-0.4004,-0.4024,-0.3917,-0.3655,-0.3684,-0.3604,0.0,0.0,0.0,0.0,0.0,0.0,0.0,0.0,0.0,0.0,0.0,0.0,0.0,0.0,0.0,0.0,0.0,0.0,0.0,0.0,0.0,0.0,0.0,0.0,0.0,0.0,0.0,0.0,0.0,0.0,0.0,0.0,0.0,0.0,0.0,0.0,0.0,0.0,0.0,0.0,0.0,0.0,0.0,0.0,0.0,0.0,0.0,0.0,0.0,0.0,0.0,0.0,0.0,0.0,0.0,0.0,0.0,0.0,0.0,0.0,0.0,0.0,0.0,0.0,0.0,0.0,0.0,0.0,0.0,0.0,0.0,0.0,0.0,0.0,0.0,0.0,0.0,0.0,0.0,0.0,0.0,0.0,0.0,0.0,0.0,0.0,0.0,0.0,0.0,0.0,0.0,0.0,0.0,0.0,0.0,0.0,0.0,0.0,0.0,0.0,0.0,0.0,0.0,0.0,0.0,0.0,0.0,0.0,0.0,-0.4159,-0.4375,-0.4426,-0.4253,-0.4043,-0.3891,0.0,0.0,0.0,0.0,0.0,0.0,0.0,0.0,0.0,0.0,0.0,0.0,0.0,0.0,0.0,0.0,0.0,0.0,0.0,0.0,0.0,0.0,0.0,0.0,0.0,0.0,0.0,0.0,0.0,0.0,0.0,0.0,0.0,0.0,0.0,0.0,0.0,0.0,0.0,0.0,0.0,0.0,0.0,0.0,0.0,0.0,0.0,0.0,0.0,0.0,0.0,0.0,0.0,0.0,0.0,0.0,0.0,0.0,0.0,0.0,0.0,0.0,0.0,0.0,0.0,0.0,0.0,0.0,0.0,0.0,0.0,0.0,0.0,0.0,0.0,0.0,0.0,0.0,0.0,0.0,0.0,0.0,0.0,0.0,0.0,0.0,0.0,0.0,0.0,0.0,0.0,0.0,0.0,0.0,0.0,0.0,0.0,0.0,0.0,0.0,0.0,0.0,0.0,0.0,0.0,0.0,0.0,0.0,-0.4099,-0.4308,-0.4568,-0.4695,-0.4683,-0.4332,-0.4118,0.0,0.0,0.0,0.0,0.0,0.0,0.0,0.0,0.0,0.0,0.0,0.0,0.0,0.0,0.0,0.0,0.0,0.0,0.0,0.0,0.0,0.0,0.0,0.0,0.0,0.0,0.0,0.0,0.0,0.0,0.0,0.0,0.0,0.0,0.0,0.0,0.0,0.0,0.0,0.0,0.0,0.0,0.0,0.0,0.0,0.0,0.0,0.0,0.0,0.0,0.0,0.0,0.0,0.0,0.0,0.0,0.0,0.0,0.0,0.0,0.0,0.0,0.0,0.0,0.0,0.0,0.0,0.0,0.0,0.0,0.0,0.0,0.0,0.0,0.0,0.0,0.0,0.0,0.0,0.0,0.0,0.0,0.0,0.0,0.0,0.0,0.0,0.0,0.0,0.0,0.0,0.0,0.0,0.0,0.0,0.0,0.0,0.0,0.0,0.0,0.0,0.0,0.0,0.0,0.0,0.0,0.0,0.0,-0.4202,-0.4508,-0.4665,-0.4766,-0.4857,-0.4587,-0.4286,0.0,0.0,0.0,0.0,0.0,0.0,0.0,0.0,0.0,0.0,0.0,0.0,0.0,0.0,0.0,0.0,0.0,0.0,0.0,0.0,0.0,0.0,0.0,0.0,0.0,0.0,0.0,0.0,0.0,0.0,0.0,0.0,0.0,0.0,0.0,0.0,0.0,0.0,0.0,0.0,0.0,0.0,0.0,0.0,0.0,0.0,0.0,0.0,0.0,0.0,0.0,0.0,0.0,0.0,0.0,0.0,0.0,0.0,0.0,0.0,0.0,0.0,0.0,0.0,0.0,0.0,0.0,0.0,0.0,0.0,0.0,0.0,0.0,0.0,0.0,0.0,0.0,0.0,0.0,0.0,0.0,0.0,0.0,0.0,0.0,0.0,0.0,0.0,0.0,0.0,0.0,0.0,0.0,0.0,0.0,0.0,0.0,0.0,0.0,0.0,0.0,0.0,0.0,0.0,0.0,0.0,0.0,0.0,-0.4457,-0.464,-0.4792,-0.4813,-0.4752,-0.4527,-0.435,0.0,0.0,0.0,0.0,0.0,0.0,0.0,0.0,0.0,0.0,0.0,0.0,0.0,0.0,0.0,0.0,0.0,0.0,0.0,0.0,0.0,0.0,0.0,0.0,0.0,0.0,0.0,0.0,0.0,0.0,0.0,0.0,0.0,0.0,0.0,0.0,0.0,0.0,0.0,0.0,0.0,0.0,0.0,0.0,0.0,0.0,0.0,0.0,-0.7259,0.0,0.0,0.0,0.0,0.0,0.0,0.0,0.0,0.0,0.0,0.0,0.0,0.0,0.0,0.0,0.0,0.0,0.0,0.0,0.0,0.0,0.0,0.0,0.0,0.0,0.0,0.0,0.0,0.0,0.0,0.0,0.0,0.0,0.0,0.0,0.0,0.0,0.0,0.0,0.0,0.0,0.0,0.0,0.0,0.0,0.0,0.0,0.0,0.0,0.0,0.0,0.0,0.0,0.0,0.0,0.0,0.0,0.0,0.0,-0.4675,-0.4796,-0.4877,-0.485,-0.4796,-0.4584,-0.441,0.0,0.0,0.0,0.0,0.0,0.0,0.0,0.0,0.0,0.0,0.0,0.0,0.0,0.0,0.0,0.0,0.0,0.0,0.0,0.0,0.0,0.0,0.0,0.0,0.0,0.0,0.0,0.0,0.0,0.0,0.0,0.0,0.0,0.0,0.0,0.0,0.0,0.0,0.0,0.0,0.0,0.0,0.0,0.0,0.0,0.0,0.0,0.0,0.0,0.0,0.0,0.0,0.0,0.0,0.0,0.0,0.0,0.0,0.0,0.0,0.0,0.0,0.0,0.0,0.0,0.0,0.0,0.0,0.0,0.0,0.0,0.0,0.0,0.0,0.0,0.0,0.0,0.0,0.0,0.0,0.0,0.0,0.0,0.0,0.0,0.0,0.0,0.0,0.0,0.0,0.0,0.0,0.0,0.0,0.0,0.0,0.0,0.0,0.0,0.0,0.0,0.0,0.0,0.0,0.0,0.0,0.0,-0.4412,-0.4752,-0.4847,-0.4874,-0.4877,-0.485,-0.4589,-0.4419,-0.4358,0.0,0.0,0.0,0.0,0.0,0.0,0.0,0.0,0.0,0.0,0.0,0.0,0.0,0.0,0.0,0.0,0.0,0.0,0.0,0.0,0.0,0.0,0.0,0.0,0.0,0.0,0.0,0.0,0.0,0.0,0.0,0.0,0.0,0.0,0.0,0.0,0.0,0.0,-0.6313,-0.752,0.0,0.0,0.0,0.0,0.0,0.0,0.0,0.0,-0.7899,0.0,0.0,0.0,0.0,0.0,0.0,0.0,0.0,0.0,0.0,0.0,0.0,0.0,0.0,0.0,0.0,0.0,0.0,0.0,0.0,0.0,0.0,0.0,0.0,0.0,0.0,0.0,0.0,0.0,0.0,0.0,0.0,0.0,0.0,0.0,0.0,0.0,0.0,0.0,0.0,0.0,0.0,0.0,0.0,0.0,0.0,0.0,0.0,0.0,0.0,0.0,0.0,0.0,0.0,0.0,0.0,-0.3815,-0.4385,-0.4701,-0.4757,-0.4853,-0.486,-0.4728,-0.4412,-0.4221,-0.4135,0.0,0.0,0.0,0.0,0.0,0.0,0.0,0.0,0.0,0.0,0.0,0.0,0.0,0.0,0.0,0.0,0.0,0.0,0.0,0.0,0.0,0.0,0.0,0.0,0.0,0.0,0.0,0.0,0.0,0.0,0.0,0.0,0.0,0.0,0.0,0.0,0.0,0.0,0.0,-0.8518,-0.9002,0.0,0.0,0.0,0.0,0.0,0.0,0.0,0.0,-0.7392,0.0,0.0,0.0,0.0,0.0,0.0,0.0,0.0,0.0,0.0,0.0,0.0,0.0,0.0,0.0,0.0,0.0,0.0,0.0,0.0,0.0,0.0,0.0,0.0,0.0,0.0,0.0,0.0,0.0,0.0,0.0,0.0,0.0,0.0,0.0,0.0,0.0,0.0,0.0,0.0,0.0,0.0,0.0,0.0,0.0,0.0,0.0,0.0,0.0,0.0,0.0,0.0,0.0,0.0,0.0,-0.3924,-0.4504,-0.4769,-0.4701,-0.4843,-0.4809,-0.4604,-0.4257,-0.4062,0.0,0.0,0.0,0.0,0.0,0.0,0.0,0.0,0.0,0.0,0.0,0.0,0.0,0.0,0.0,0.0,0.0,0.0,0.0,0.0,0.0,0.0,0.0,0.0,0.0,0.0,0.0,0.0,0.0,0.0,0.0,0.0,0.0,0.0,0.0,0.0,0.0,0.0,0.0,0.0,-0.9138,-0.9368,-0.914,0.0,0.0,0.0,0.0,0.0,0.0,-0.8718,-0.8167,0.0,0.0,0.0,0.0,0.0,0.0,0.0,0.0,0.0,0.0,0.0,0.0,0.0,0.0,0.0,0.0,0.0,0.0,0.0,0.0,0.0,0.0,0.0,0.0,0.0,0.0,0.0,0.0,0.0,0.0,0.0,0.0,0.0,0.0,0.0,0.0,0.0,0.0,0.0,0.0,0.0,0.0,0.0,0.0,0.0,0.0,0.0,0.0,0.0,0.0,0.0,0.0,0.0,0.0,0.0,-0.4001,-0.4613,-0.4826,-0.466,-0.4826,-0.4758,-0.4457,-0.4161,-0.3938,0.0,0.0,0.0,0.0,0.0,0.0,0.0,0.0,0.0,0.0,0.0,0.0,0.0,0.0,0.0,0.0,0.0,0.0,0.0,0.0,0.0,0.0,0.0,0.0,0.0,0.0,0.0,0.0,0.0,0.0,0.0,0.0,0.0,0.0,0.0,0.0,0.0,0.0,0.0,0.0,0.0,-0.9701,-0.9451,-0.9219,0.0,0.0,0.0,0.0,-0.9781,-0.944,0.0,0.0,0.0,0.0,0.0,0.0,0.0,0.0,0.0,0.0,0.0,0.0,0.0,0.0,0.0,0.0,0.0,0.0,0.0,0.0,0.0,0.0,0.0,0.0,0.0,0.0,0.0,0.0,0.0,0.0,0.0,0.0,0.0,0.0,0.0,0.0,0.0,0.0,0.0,0.0,0.0,0.0,0.0,0.0,0.0,0.0,0.0,0.0,0.0,0.0,0.0,0.0,0.0,0.0,0.0,0.0,-0.3998,-0.4581,-0.4753,-0.4549,-0.4772,-0.4685,-0.426,-0.4082,-0.3866,0.0,0.0,0.0,0.0,0.0,0.0,0.0,0.0,0.0,0.0,0.0,0.0,0.0,0.0,0.0,0.0,0.0,0.0,0.0,0.0,0.0,0.0,0.0,0.0,0.0,0.0,0.0,0.0,0.0,0.0,0.0,0.0,0.0,0.0,0.0,0.0,0.0,0.0,0.0,0.0,0.0,-0.9953,-1.0367,-0.9666,-0.9092,0.0,0.0,0.0,-1.1624,-1.0332,0.0,0.0,0.0,0.0,0.0,0.0,0.0,0.0,0.0,0.0,0.0,0.0,0.0,0.0,0.0,0.0,0.0,0.0,0.0,0.0,0.0,0.0,0.0,0.0,0.0,0.0,0.0,0.0,0.0,0.0,0.0,0.0,0.0,0.0,0.0,0.0,0.0,0.0,0.0,0.0,0.0,0.0,0.0,0.0,0.0,0.0,0.0,0.0,0.0,0.0,0.0,0.0,0.0,0.0,0.0,-0.3597,-0.3994,-0.4528,-0.4684,-0.4532,-0.4677,-0.4587,-0.4207,-0.3991,-0.3767,0.0,0.0,0.0,0.0,0.0,0.0,0.0,0.0,0.0,0.0,0.0,0.0,0.0,0.0,0.0,0.0,0.0,0.0,0.0,0.0,0.0,0.0,0.0,0.0,0.0,0.0,0.0,0.0,0.0,0.0,0.0,0.0,0.0,0.0,0.0,0.0,0.0,0.0,0.0,0.0,0.0,0.0,-1.0557,-1.0716,0.0,0.0,0.0,-1.1601,-1.2026,0.0,0.0,0.0,0.0,0.0,0.0,0.0,0.0,0.0,0.0,0.0,0.0,0.0,0.0,0.0,0.0,0.0,0.0,0.0,0.0,0.0,0.0,0.0,0.0,0.0,0.0,0.0,0.0,0.0,0.0,0.0,0.0,0.0,0.0,0.0,0.0,0.0,0.0,0.0,0.0,0.0,0.0,0.0,0.0,0.0,0.0,0.0,0.0,0.0,0.0,0.0,0.0,0.0,0.0,0.0,0.0,0.0,-0.3958,-0.4443,-0.4616,-0.4501,-0.4641,-0.452,-0.4204,-0.3988,0.0,0.0,0.0,0.0,0.0,0.0,0.0,0.0,0.0,0.0,0.0,0.0,0.0,0.0,0.0,0.0,0.0,0.0,0.0,0.0,0.0,0.0,0.0,0.0,0.0,0.0,0.0,-0.3298,0.0,0.0,0.0,0.0,0.0,0.0,0.0,0.0,0.0,0.0,0.0,0.0,0.0,0.0,-1.07,-1.0941,-1.1624,-1.1589,0.0,0.0,-1.2113,-1.2168,-1.1407,-1.0665,0.0,0.0,0.0,0.0,0.0,0.0,0.0,0.0,0.0,0.0,0.0,0.0,0.0,0.0,0.0,0.0,0.0,0.0,0.0,0.0,0.0,0.0,0.0,0.0,0.0,0.0,0.0,0.0,0.0,0.0,0.0,0.0,0.0,0.0,0.0,0.0,0.0,0.0,0.0,0.0,0.0,0.0,0.0,0.0,0.0,0.0,0.0,0.0,0.0,0.0,0.0,0.0,0.0,0.0,0.0,-0.3809,-0.4389,-0.4641,-0.4529,-0.4641,-0.4551,-0.4204,-0.4062,-0.3775,0.0,0.0,0.0,0.0,0.0,0.0,0.0,0.0,0.0,0.0,0.0,0.0,0.0,0.0,0.0,0.0,0.0,0.0,0.0,0.0,0.0,0.0,0.0,0.0,0.0,0.0,0.0,0.0,0.0,0.0,0.0,0.0,0.0,0.0,0.0,0.0,0.0,0.0,0.0,0.0,0.0,-1.0957,-1.1883,-1.2049,-1.2182,0.0,0.0,-1.2168,-1.2341,-1.1491,-1.0798,-1.0825,0.0,0.0,0.0,0.0,0.0,0.0,0.0,0.0,0.0,0.0,0.0,0.0,0.0,0.0,0.0,0.0,0.0,0.0,0.0,0.0,0.0,0.0,0.0,0.0,0.0,0.0,0.0,0.0,0.0,0.0,0.0,0.0,0.0,0.0,0.0,0.0,0.0,0.0,0.0,0.0,0.0,0.0,0.0,0.0,0.0,0.0,0.0,0.0,0.0,0.0,0.0,0.0,0.0,-0.3253,-0.3788,-0.432,-0.4549,-0.4525,-0.4549,-0.4525,-0.4382,-0.4144,-0.3829,0.0,0.0,0.0,0.0,0.0,0.0,0.0,0.0,0.0,0.0,0.0,0.0,0.0,0.0,0.0,0.0,0.0,0.0,0.0,0.0,0.0,0.0,0.0,0.0,0.0,0.0,0.0,0.0,-0.4104,-0.428,-0.4539,0.0,0.0,0.0,0.0,0.0,0.0,0.0,0.0,0.0,0.0,-1.128,-1.1992,-1.2084,0.0,0.0,-1.2294,-1.2323,-1.2395,-1.1541,-1.0857,-1.0888,-1.0111,0.0,0.0,0.0,0.0,0.0,0.0,0.0,0.0,0.0,0.0,0.0,0.0,0.0,0.0,0.0,0.0,0.0,0.0,0.0,0.0,0.0,0.0,0.0,0.0,0.0,0.0,0.0,0.0,0.0,0.0,0.0,0.0,0.0,0.0,0.0,0.0,0.0,0.0,0.0,0.0,0.0,0.0,0.0,0.0,0.0,0.0,0.0,0.0,0.0,0.0,0.0,0.0,-0.3178,-0.3747,-0.4172,-0.4443,-0.4491,-0.4491,-0.4467,-0.4419,-0.4129,-0.386,0.0,0.0,0.0,0.0,0.0,0.0,0.0,0.0,0.0,0.0,0.0,0.0,0.0,0.0,0.0,0.0,0.0,0.0,0.0,0.0,0.0,0.0,0.0,0.0,0.0,0.0,0.0,0.0,-0.4482,-0.4603,-0.4786,0.0,0.0,0.0,0.0,0.0,0.0,0.0,0.0,0.0,0.0,-1.1486,-1.2015,-1.2084,-1.2084,-1.2084,-1.2269,-1.2431,-1.2484,-1.1726,-1.1145,-1.1176,0.0,0.0,0.0,0.0,0.0,0.0,0.0,0.0,0.0,0.0,0.0,0.0,0.0,0.0,0.0,0.0,0.0,0.0,0.0,0.0,0.0,0.0,0.0,0.0,0.0,0.0,0.0,0.0,0.0,0.0,0.0,0.0,0.0,0.0,0.0,0.0,0.0,0.0,0.0,0.0,0.0,0.0,0.0,0.0,0.0,0.0,0.0,0.0,0.0,0.0,0.0,0.0,0.0,0.0,-0.3581,-0.4001,-0.4317,-0.4477,-0.4487,-0.4385,-0.4227,-0.4075,-0.3809,-0.3399,0.0,0.0,0.0,0.0,0.0,0.0,0.0,0.0,0.0,0.0,0.0,0.0,0.0,0.0,0.0,0.0,0.0,0.0,0.0,0.0,0.0,0.0,0.0,0.0,0.0,0.0,-0.4769,-0.4785,-0.4775,0.0,0.0,0.0,0.0,0.0,0.0,0.0,0.0,0.0,0.0,-1.1004,-1.1486,-1.2015,-1.2084,-1.2095,-1.2095,-1.2287,-1.2467,-1.2656,-1.2137,-1.174,0.0,0.0,0.0,0.0,0.0,0.0,0.0,0.0,0.0,0.0,0.0,0.0,0.0,0.0,0.0,0.0,0.0,0.0,0.0,0.0,0.0,0.0,0.0,0.0,0.0,0.0,0.0,0.058,0.0353,0.0,0.0,0.0,0.0,0.0,0.0,0.0,0.0,0.0,0.0,0.0,-0.0138,-0.0314,0.0,0.0,0.0,0.0,0.0,0.0,0.0,0.0,0.0,0.0,0.0,0.0,-0.2978,-0.3401,-0.3846,-0.4092,-0.4165,-0.4168,-0.4144,-0.4072,-0.3948,-0.3565,-0.2948,0.0,0.0,0.0,0.0,0.0,0.0,0.0,0.0,0.0,0.0,0.0,0.0,0.0,0.0,0.0,0.0,0.0,0.0,0.0,0.0,0.0,0.0,0.0,0.0,0.0,-0.4752,0.0,0.0,0.0,0.0,0.0,0.0,0.0,0.0,0.0,0.0,0.0,-1.0527,-1.0993,-1.1538,-1.1942,-1.2079,-1.2179,-1.2197,0.0,0.0,0.0,0.0,0.0,0.0,0.0,0.0,0.0,0.0,0.0,0.0,0.0,0.0,-1.1904,-1.1911,-1.0971,-1.0094,-0.9715,0.0,0.0,0.0,0.0,0.0,0.0,0.0,0.0,0.0,0.0,0.0,0.0,0.0,0.0,0.0,0.0,0.0723,0.0,0.0,0.0,0.0,0.0,0.0,0.0,0.0,0.0,-0.0023,-0.0068,-0.0203,-0.0289,0.0,-0.0468,-0.066,0.0,0.0,0.0,0.0,0.0,0.0,0.0,0.0,-0.2981,-0.3398,-0.3741,-0.394,-0.3991,-0.3994,-0.3944,-0.3866,-0.364,-0.3331,-0.2867,-0.2716,-0.2452,0.0,0.0,0.0,0.0,0.0,0.0,0.0,0.0,0.0,0.0,0.0,0.0,0.0,0.0,0.0,0.0,0.0,0.0,0.0,0.0,0.0,0.0,0.0,-0.4753,0.0,0.0,0.0,0.0,0.0,0.0,0.0,0.0,0.0,-0.8929,-1.0006,-1.0876,-1.1217,-1.1826,-1.221,-1.2204,0.0,0.0,0.0,0.0,0.0,0.0,0.0,-1.2806,-1.2258,-1.1897,-1.1668,-1.1656,-1.1656,-1.1656,-1.1668,0.0,0.0,-1.2935,-1.2622,-1.2126,-1.144,-1.0951,-1.0685,-1.0771,-1.0793,-1.0663,0.0,0.0,0.0,0.0,0.0,0.0,0.0,0.0,0.2303,0.1961,0.0,0.1284,0.0,0.0,0.0,0.0,0.0,0.0,0.0,0.0,0.0,0.0,0.0,0.0,0.0,0.0,0.0,-0.0117,-0.0335,-0.094,0.0,0.0,0.0,0.0,0.0,0.0,-0.313,-0.3551,-0.371,-0.3856,-0.3942,-0.3974,-0.3846,-0.3592,-0.3269,-0.3085,-0.3065,-0.2723,-0.2511,-0.2491,-0.1935,0.0,0.0,0.0,0.0,0.0,0.0,0.0,0.0,0.0,0.0,0.0,0.0,0.0,0.0,0.0,0.0,0.0,0.0,0.0,0.0,-0.4924,0.0,0.0,0.0,0.0,0.0,0.0,0.0,0.0,0.0,0.0,-0.9262,-1.0311,-1.1079,-1.1228,0.0,0.0,0.0,0.0,-1.3286,-1.5303,-1.4569,-1.3742,-1.3797,-1.3648,-1.3366,-1.2854,0.0,0.0,-1.2716,-1.2692,-1.2656,-1.2697,-1.2685,-1.2965,-1.3762,-1.4276,-1.4302,-1.3358,-1.3058,-1.3182,-1.3313,-1.3107,-1.2843,0.5099,0.0,0.0,0.0,0.0,0.342,0.3423,0.3397,0.2956,0.2462,0.1898,0.1524,0.0,0.0,0.0,0.0,0.0,0.0,0.0,0.0,0.0,0.0,0.0,0.0,0.0,0.0,0.0,-0.0074,-0.0243,-0.0528,-0.0872,-0.1283,0.0,0.0,0.0,0.0,-0.2948,-0.3161,-0.3319,-0.3407,-0.3445,-0.3422,-0.3388,-0.3306,-0.3083,-0.2953,-0.295,-0.2792,-0.2659,-0.2501,-0.2102,0.0,0.0,0.0,0.0,0.0,0.0,0.0,0.0,0.0,0.0,0.0,0.0,0.0,0.0,0.0,0.0,0.0,0.0,0.0,-0.5147,-0.5237,-0.5294,0.0,0.0,0.0,0.0,0.0,0.0,0.0,0.0,0.0,-0.9709,-1.0677,-1.1531,0.0,0.0,-1.3173,-1.2489,-1.3181,-1.3756,-1.3612,0.0,0.0,0.0,-1.4833,-1.4418,-1.3927,-1.3529,-1.3276,-1.3276,-1.2975,-1.2692,-1.2692,-1.2692,-1.282,-1.3173,-1.3885,-1.4157,-1.3636,-1.3179,-1.2981,-1.3142,-1.3263,-1.3257,0.609,0.5108,0.4844,0.4664,0.4544,0.4544,0.4456,0.4262,0.3746,0.3115,0.2427,0.189,0.1331,0.0684,0.0574,0.0,0.0,0.0,0.0216,0.0218,0.0141,0.0112,0.0082,0.0027,0.0,0.0,0.0,-0.0052,-0.0129,-0.0194,-0.0431,-0.0817,0.0,0.0,-0.2125,-0.2443,-0.2695,-0.2885,-0.3002,-0.3106,-0.3123,-0.3067,-0.3062,-0.3104,-0.2898,-0.2813,-0.2854,-0.2753,-0.2616,-0.2508,-0.2181,-0.1955,0.0,0.0,0.0,0.0,0.0,0.0,0.0,0.0,0.0,0.0,0.0,-0.0911,0.0,0.0,0.0,0.0,-0.3915,-0.4849,-0.5296,-0.5596,0.0,0.0,0.0,0.0,0.0,0.0,0.0,-0.9537,-0.9666,-0.9696,-0.9865,-1.0849,-1.1736,-1.221,-1.3143,-1.3594,-1.3101,0.0,-1.4205,-1.3961,-1.4541,-1.5181,-1.5696,-1.5348,-1.4842,-1.4385,-1.3855,-1.3498,-1.3462,-1.3059,-1.2704,-1.2692,-1.2692,-1.2727,-1.2803,-1.3293,-1.3707,-1.3702,-1.3505,-1.3407,-1.3642,-1.3828,-1.3969,0.6832,0.6518,0.6238,0.5952,0.5759,0.5722,0.5505,0.5099,0.4587,0.3878,0.3047,0.242,0.1712,0.1016,0.0785,0.0,0.0,0.0554,0.0494,0.0481,0.0378,0.0261,0.0197,0.0056,0.0,0.0,0.0,0.0,0.0,0.0,-0.0127,-0.0403,-0.1023,-0.151,-0.1928,-0.2132,-0.2364,-0.2637,-0.2754,-0.2887,-0.2987,-0.2853,-0.2842,-0.2965,-0.2703,-0.2621,-0.2756,-0.2577,-0.2466,-0.2471,-0.2157,-0.1947,-0.1827,0.0,0.0,0.0,0.0,0.0,0.0,0.0,0.0,0.0,0.0,0.0,0.0,0.0,0.0,0.0,-0.4282,0.0,-0.5413,-0.6036,0.0,0.0,0.0,-0.7013,-0.6266,-0.736,-0.8571,-0.9574,0.0,0.0,0.0,0.0,-1.1645,-1.1997,-1.3008,-1.3801,-1.4081,-1.4305,-1.4751,-1.5562,-1.5372,-1.5231,-1.5696,-1.5408,-1.4962,-1.4474,-1.3915,-1.359,-1.3462,-1.3059,-1.2745,-1.2692,-1.2692,-1.2692,-1.2692,-1.2762,-1.2913,-1.3626,-1.3911,-1.4109,-1.4373,-1.4607,-1.4807,0.7528,0.7471,0.725,0.6714,0.6022,0.5983,0.5853,0.5602,0.4973,0.4346,0.3696,0.2852,0.2027,0.1204,0.0912,0.0785,0.0786,0.0578,0.0487,0.0483,0.0356,0.0293,0.0262,0.0085,0.0,0.0,0.0,0.0,0.0,0.0,-0.0079,-0.0262,-0.0518,-0.0873,-0.1295,-0.1523,-0.1752,-0.2018,-0.219,-0.2504,-0.2882,-0.269,-0.2617,-0.2761,-0.242,-0.2336,-0.2549,-0.2334,-0.2246,-0.2334,-0.2063,-0.1929,-0.1957,-0.1927,0.0,0.0,0.0,0.0,0.0,0.0,0.0,0.0,0.0,-0.21,-0.2402,0.0,-0.3907,0.0,-0.4673,-0.5392,-0.6039,-0.6695,0.0,0.0,-0.7968,-0.8113,-0.7929,-0.8397,-0.8958,-0.9629,-0.9703,-0.9733,-0.9783,-1.0455,-1.1066,-1.147,-1.3205,-1.4607,-1.5049,-1.5312,-1.5514,-1.5684,-1.5624,-1.567,-1.5744,-1.5696,-1.5408,-1.4905,-1.4405,-1.3975,-1.3565,-1.3071,-1.2692,-1.2692,-1.2692,-1.2692,-1.2692,-1.2692,-1.2762,-1.2978,-1.3365,-1.3818,-1.4163,-1.4372,-1.4669,0.7869,0.7792,0.769,0.7218,0.6563,0.6604,0.6375,0.6004,0.5489,0.4856,0.4149,0.2941,0.2017,0.1413,0.1092,0.0931,0.093,0.0834,0.0733,0.0724,0.0611,0.0508,0.0471,0.0285,0.0168,0.0168,0.0112,0.0084,0.0084,0.0028,-0.0027,-0.0109,-0.0184,-0.0355,-0.061,-0.0916,-0.1231,-0.1569,-0.199,-0.2435,-0.2882,-0.2629,-0.2536,-0.2593,-0.2275,-0.2194,-0.2399,-0.2271,-0.2232,-0.2279,-0.2114,-0.1989,-0.1999,-0.2019,-0.1894,0.0,0.0,0.0,0.0,0.0,0.0,0.0,0.0,0.0,0.0,0.0,-0.4092,0.0,-0.4882,0.0,-0.6536,-0.719,-0.778,-0.8317,-0.8773,-0.9032,-0.905,-0.9161,-0.9372,-0.9666,-0.9703,-0.9723,-0.9762,-1.0207,-1.0668,-1.1061,-1.2562,-1.4072,-1.5094,-1.5381,-1.5174,-1.4553,-1.4989,-1.554,-1.5744,-1.5588,-1.5348,-1.5025,-1.4405,-1.3831,-1.3541,-1.3059,-1.2692,-1.2692,-1.2692,-1.2692,-1.2692,-1.2692,-1.2692,-1.2745,-1.2995,-1.3378,-1.3765,-1.398,-1.4273,0.7963,0.7865,0.782,0.7588,0.7254,0.7231,0.6901,0.6309,0.5993,0.531,0.4359,0.2929,0.2054,0.1681,0.1311,0.1143,0.1109,0.1109,0.1062,0.1006,0.0882,0.0764,0.0711,0.0487,0.0394,0.0393,0.0252,0.0224,0.0196,0.0056,0.0,0.0,0.0,0.0,0.0,-0.0414,-0.0844,-0.1323,-0.1947,-0.2462,-0.2887,-0.2629,-0.2501,-0.2493,-0.2237,-0.2167,-0.2267,-0.2269,-0.2276,-0.2286,-0.2144,-0.2043,-0.1981,-0.1983,-0.194,0.0,-0.2007,0.0,0.0,0.0,0.0,0.0,0.0,0.0,0.0,-0.4054,-0.4322,-0.4818,-0.5054,-0.5697,-0.6858,-0.7555,-0.8184,-0.8893,-0.9366,-0.9654,-0.9703,-0.9703,-0.9703,-0.9703,-0.9703,-0.9703,-0.9712,-1.0006,-1.0363,-1.0706,-1.1622,-1.2818,-1.4214,-1.4736,-1.4416,-1.2914,-1.3905,-1.4953,-1.5358,-1.5169,-1.489,-1.4734,-1.4105,-1.3474,-1.3397,-1.3011,-1.2692,-1.2692,-1.2692,-1.2692,-1.2692,-1.2692,-1.2692,-1.2692,-1.2768,-1.2978,-1.3348,-1.3598,-1.3881,0.8219,0.8166,0.7918,0.778,0.7695,0.7506,0.7084,0.651,0.6194,0.5382,0.4226,0.3472,0.2809,0.2251,0.1714,0.1412,0.1244,0.1143,0.1106,0.1066,0.0876,0.0788,0.0764,0.0563,0.0461,0.0393,0.028,0.0224,0.0196,0.0056,0.0,0.0,0.0,0.0,0.0,0.0,0.0,0.0,-0.1882,-0.2375,-0.286,-0.2626,-0.2501,-0.2495,-0.2237,0.0,-0.2131,-0.2074,-0.207,-0.2124,-0.2012,0.0,0.0,0.0,0.0,0.0,0.0,0.0,0.0,0.0,0.0,0.0,-0.3797,-0.3966,-0.379,-0.43,-0.4788,-0.5098,-0.55,-0.606,-0.6774,-0.7541,-0.8189,-0.8687,-0.9128,-0.9457,-0.9683,-0.9703,-0.9703,-0.9703,-0.9703,-0.9703,-0.9712,-0.9776,-0.9933,-1.0251,-1.0965,-1.1581,-1.2003,-1.3558,-1.4113,-1.3059,-1.3442,-1.4109,-1.4522,-1.451,-1.4261,-1.3884,-1.3655,-1.3306,-1.2957,-1.28,-1.2692,-1.2692,-1.2692,-1.2692,-1.2692,-1.2692,-1.2692,-1.2692,-1.2709,-1.2838,-1.3195,-1.3378,-1.356,0.8373,0.0,0.8041,0.7837,0.0,0.76,0.7253,0.6907,0.671,0.601,0.4961,0.4275,0.3569,0.284,0.2161,0.1713,0.1445,0.121,0.1109,0.1074,0.0948,0.0898,0.0883,0.0783,0.0701,0.0632,0.0509,0.0449,0.0449,0.028,0.0196,0.0196,0.014,0.0109,0.0078,-0.01,-0.0548,-0.1232,-0.1705,-0.2199,-0.2657,-0.2486,-0.2445,-0.2495,0.0,0.0,0.0,0.0,0.0,0.0,0.0,0.0,0.0,0.0,0.0,-0.1966,-0.2037,-0.2138,-0.2251,-0.2657,-0.3004,-0.324,-0.3772,-0.4147,-0.4223,-0.4584,-0.4976,-0.5371,-0.5521,-0.5892,-0.6592,-0.7201,-0.7736,-0.8194,-0.8788,-0.9297,-0.9614,-0.9703,-0.9703,-0.9703,-0.9703,-0.9703,-0.9703,-0.9703,-0.9753,-0.9941,-1.0449,-1.0814,-1.0984,-1.2479,-1.3392,-1.265,-1.295,-1.3478,-1.3851,-1.3741,-1.3552,-1.3238,-1.2979,-1.2719,-1.243,-1.2573,-1.2692,-1.2692,-1.2692,-1.2692,-1.2692,-1.2692,-1.2692,-1.2692,-1.2692,-1.275,-1.2965,-1.3069,-1.3198,0.8522,0.8321,0.8105,0.7931,0.7829,0.7612,0.7407,0.7257,0.0,0.0,0.0,0.5012,0.4262,0.3487,0.2695,0.2124,0.1782,0.1445,0.1277,0.1243,0.115,0.1068,0.1055,0.0974,0.0915,0.0905,0.0767,0.0701,0.0673,0.0505,0.0393,0.0393,0.0252,0.0192,0.0132,-0.0198,-0.0561,-0.0988,-0.1479,-0.1971,-0.241,-0.2341,-0.2379,-0.2533,-0.2287,-0.2132,-0.2129,-0.2111,-0.215,-0.2264,-0.2167,-0.2116,-0.2154,-0.2111,-0.2119,-0.2228,-0.2294,-0.238,-0.2539,-0.2888,-0.3113,-0.3114,-0.3736,-0.4313,-0.4724,-0.4796,-0.499,-0.5493,-0.5387,-0.5593,-0.6337,-0.6802,-0.7214,-0.766,-0.8409,-0.9085,-0.9554,-0.9634,-0.9634,-0.9703,-0.9703,-0.9703,-0.9703,-0.9703,-0.9713,-0.9823,-1.0088,-1.0273,-1.0468,-1.1637,-1.2443,-1.2035,-1.2264,-1.2761,-1.3046,-1.2898,-1.2647,-1.2586,-1.2267,-1.2016,-1.2059,-1.2312,-1.2556,-1.2556,-1.2567,-1.2514,-1.2591,-1.2674,-1.2656,-1.2589,-1.2649,-1.2673,-1.2659,-1.2707,-1.2873,0.8592,0.8543,0.8158,0.8,0.7951,0.7622,0.7484,0.7407,0.6907,0.644,0.6027,0.5578,0.4882,0.4047,0.3479,0.2951,0.252,0.2185,0.1951,0.0,0.1608,0.1402,0.1275,0.1078,0.0954,0.0907,0.0759,0.0701,0.0673,0.0505,0.0393,0.0393,0.028,0.0136,0.0025,-0.0146,-0.0328,-0.0517,-0.1121,-0.1678,-0.2164,-0.2256,-0.2408,-0.2648,-0.2411,-0.2272,-0.2269,-0.2153,-0.2097,-0.2131,-0.2101,-0.2077,-0.2037,-0.2015,-0.2,-0.195,-0.1969,-0.2077,-0.2343,-0.2566,-0.2951,-0.3554,-0.396,-0.4322,-0.4602,-0.4726,-0.4923,-0.5225,-0.5276,-0.5493,-0.5963,-0.6484,-0.69,-0.7221,-0.797,-0.8704,-0.9268,-0.9368,-0.9437,-0.9683,-0.9703,-0.9703,-0.9703,-0.9703,-0.9713,-0.9803,-0.9941,-1.0098,-1.0342,-1.095,-1.1219,-1.0993,-1.1223,-1.1535,-1.1733,-1.1616,-1.1621,-1.167,-1.1637,-1.1571,-1.159,-1.1884,-1.2131,-1.2168,-1.1877,-1.1866,-1.2241,-1.2585,-1.2399,-1.2104,-1.226,-1.2433,-1.2138,-1.2391,-1.2756,0.8696,0.8567,0.8166,0.8012,0.7988,0.7634,0.7518,0.7484,0.7103,0.6835,0.6643,0.6293,0.5725,0.5059,0.4423,0.3883,0.3384,0.2952,0.2619,0.2318,0.2014,0.171,0.1456,0.1151,0.0965,0.0895,0.0849,0.0813,0.0813,0.0701,0.0673,0.0645,0.0533,0.0379,0.0228,0.0149,0.0096,0.0023,-0.0672,-0.1252,-0.1721,-0.1866,-0.2094,-0.2469,-0.228,-0.2224,-0.2293,-0.2164,-0.2097,-0.2097,-0.2097,-0.209,-0.2055,-0.205,-0.2076,-0.2098,-0.2126,-0.2199,-0.2399,-0.2622,-0.2958,-0.345,-0.3765,-0.4053,-0.4296,-0.4614,-0.4905,-0.5165,-0.5107,-0.5159,-0.5484,-0.5919,-0.6296,-0.6536,-0.7337,-0.8111,-0.8712,-0.8958,-0.9228,-0.9614,-0.9703,-0.9703,-0.9703,-0.9703,-0.9703,-0.9753,-0.9812,-0.9882,-0.9961,-1.0215,-1.0332,-1.0196,-1.0486,-1.0791,-1.0943,-1.0981,-1.1038,-1.1161,-1.118,-1.1169,-1.1169,-1.1356,-1.1423,-1.1423,-1.1113,-1.0959,-1.1164,-1.1408,-1.1425,-1.1336,-1.1364,-1.1493,-1.1647,-1.2193,-1.2708,0.8798,0.8471,0.815,0.7967,0.7874,0.7602,0.7518,0.7484,0.7334,0.7257,0.7238,0.6848,0.6386,0.5835,0.5249,0.4697,0.4164,0.3685,0.3251,0.2921,0.2551,0.2142,0.1787,0.1403,0.118,0.108,0.1022,0.0982,0.0926,0.0926,0.0897,0.084,0.0752,0.0591,0.0404,0.04,0.0386,0.0361,-0.0157,-0.0694,-0.1164,-0.1387,-0.1746,-0.2177,-0.2125,-0.2149,-0.231,-0.2177,-0.2097,-0.2097,-0.2097,-0.2097,-0.2097,-0.2097,-0.215,-0.2234,-0.225,-0.23,-0.2464,-0.2656,-0.2907,-0.3146,-0.341,-0.3672,-0.3966,-0.4415,-0.4771,-0.4999,-0.4901,-0.4903,-0.5133,-0.5474,-0.577,-0.6019,-0.6773,-0.7482,-0.7953,-0.839,-0.8918,-0.9466,-0.9614,-0.9583,-0.9643,-0.9663,-0.9654,-0.9683,-0.9703,-0.9703,-0.9703,-0.9703,-0.9703,-0.9753,-0.9961,-1.0244,-1.0476,-1.0495,-1.0534,-1.0659,-1.0697,-1.0626,-1.0623,-1.0642,-1.0764,-1.0712,-1.0131,-0.9722,-0.9632,-0.9868,-1.0131,-1.025,-1.0503,-1.0736,-1.1245,-1.2025,-1.2656,0.894,0.8339,0.8135,0.7825,0.7588,0.7496,0.7518,0.7518,0.7484,0.7446,0.7437,0.7038,0.6585,0.6046,0.5704,0.5231,0.4734,0.4353,0.402,0.3692,0.3291,0.2875,0.2427,0.2068,0.1764,0.1534,0.1349,0.1206,0.1066,0.0954,0.0841,0.0726,0.0652,0.0552,0.0429,0.0391,0.04,0.0405,0.0337,0.0022,-0.0492,-0.0914,-0.1422,-0.2019,-0.2003,-0.2159,-0.2419,-0.2249,-0.2097,-0.2097,-0.2097,-0.2097,-0.2097,-0.2097,-0.2097,-0.2131,-0.2114,-0.2183,-0.23,-0.2411,-0.2557,-0.2732,-0.301,-0.3319,-0.3635,-0.4037,-0.4377,-0.4621,-0.4744,-0.4814,-0.4857,-0.5357,-0.5695,-0.5776,-0.652,-0.7013,-0.7041,-0.7697,-0.8525,-0.9259,-0.9237,-0.9306,-0.9455,-0.9515,-0.9563,-0.9683,-0.9703,-0.9703,-0.9703,-0.9703,-0.9703,-0.9703,-0.9762,-0.9812,-0.9921,-0.9892,-1.001,-1.0108,-1.0088,-1.0031,-0.9941,-1.0085,-1.0331,-1.007,-0.9092,-0.8307,-0.8289,-0.8311,-0.8759,-0.9416,-0.985,-1.0365,-1.0962,-1.1721,-1.236,0.9554,0.9021,0.8593,0.8115,0.7697,0.7561,0.7518,0.7518,0.7518,0.7518,0.7468,0.7189,0.6892,0.6591,0.6244,0.5892,0.5594,0.5253,0.4885,0.4556,0.409,0.3579,0.309,0.2739,0.2357,0.1942,0.1709,0.1457,0.1234,0.101,0.0869,0.081,0.0786,0.0732,0.063,0.0633,0.0632,0.0585,0.0584,0.0472,0.0202,-0.0358,-0.0984,-0.1507,-0.1583,-0.1761,-0.2094,-0.1955,-0.1895,-0.1978,-0.2014,-0.2064,-0.2097,-0.2097,-0.2097,-0.2097,-0.2183,-0.225,-0.2286,-0.2377,-0.2441,-0.2577,-0.2795,-0.3043,-0.3356,-0.3761,-0.4134,-0.4409,-0.4656,-0.4796,-0.4839,-0.5304,-0.5658,-0.5726,-0.6244,-0.6617,-0.656,-0.7181,-0.782,-0.8288,-0.8683,-0.8947,-0.9108,-0.9346,-0.9543,-0.9663,-0.9703,-0.9683,-0.9703,-0.9703,-0.9703,-0.9703,-0.9703,-0.9703,-0.9733,-0.9793,-0.9852,-0.9923,-0.9791,-0.9572,-0.9561,-0.943,-0.9521,-0.9531,-0.849,-0.7768,-0.7832,-0.7846,-0.8106,-0.8668,-0.9062,-0.9541,-0.9761,-1.081,-1.1628,1.0361,0.971,0.9007,0.8389,0.788,0.7599,0.7518,0.7518,0.7518,0.7518,0.7498,0.7248,0.7078,0.694,0.6557,0.6312,0.616,0.5785,0.5451,0.5156,0.4655,0.4164,0.3704,0.3381,0.2977,0.2484,0.2183,0.1847,0.1457,0.1261,0.1149,0.1142,0.1073,0.101,0.0931,0.0869,0.0788,0.0699,0.0697,0.0697,0.0629,0.0157,-0.0425,-0.0933,-0.1029,-0.1234,-0.1602,-0.1565,-0.1609,-0.1792,-0.1861,-0.1978,-0.2097,-0.2097,-0.2097,-0.2097,-0.2183,-0.2234,-0.225,-0.2294,-0.2344,-0.2397,-0.2563,-0.2766,-0.3093,-0.3516,-0.3907,-0.4172,-0.459,-0.4838,-0.4845,-0.5286,-0.5578,-0.5626,-0.6088,-0.6404,-0.6432,-0.6844,-0.7217,-0.7454,-0.8057,-0.8574,-0.8768,-0.9068,-0.9335,-0.9435,-0.9495,-0.9583,-0.9674,-0.9703,-0.9703,-0.9693,-0.9654,-0.9634,-0.9674,-0.9733,-0.9832,-0.9778,-0.9592,-0.9318,-0.9296,-0.9041,-0.8746,-0.8693,-0.8055,-0.7768,-0.7734,-0.7739,-0.7764,-0.8032,-0.8357,-0.8715,-0.8948,-0.9776,-1.0446,1.1196,1.0087,0.911,0.8493,0.8063,0.7714,0.7518,0.7557,0.7518,0.7518,0.7473,0.7159,0.6996,0.6975,0.658,0.6308,0.616,0.5815,0.5554,0.5392,0.4994,0.4558,0.4161,0.3964,0.3601,0.3088,0.28,0.2352,0.1818,0.1762,0.1762,0.1757,0.1523,0.1341,0.125,0.1034,0.0835,0.072,0.0697,0.0697,0.0674,0.0517,0.0202,-0.0222,-0.0371,-0.0609,-0.093,-0.105,-0.1244,-0.1507,-0.1642,-0.1828,-0.2047,-0.2081,-0.2097,-0.2097,-0.2114,-0.2114,-0.2114,-0.2131,-0.2131,-0.2147,-0.2267,-0.2453,-0.2746,-0.322,-0.363,-0.3907,-0.4537,-0.4886,-0.4856,-0.5299,-0.562,-0.5657,-0.6094,-0.638,-0.641,-0.6687,-0.6808,-0.6893,-0.7475,-0.809,-0.8594,-0.8785,-0.8874,-0.8975,-0.9044,-0.9165,-0.9534,-0.9654,-0.9634,-0.9554,-0.9437,-0.9388,-0.9634,-0.9674,-0.9693,-0.9642,-0.9412,-0.9031,-0.8807,-0.8586,-0.8277,-0.8037,-0.7831,-0.7715,-0.7695,-0.7695,-0.7695,-0.7803,-0.7817,-0.8049,-0.8374,-0.8039,-0.865,1.166,1.053,0.9797,0.9311,0.9013,0.8475,0.8212,0.8055,0.7949,0.7795,0.7618,0.722,0.6984,0.6975,0.6575,0.6377,0.6288,0.6083,0.5947,0.5885,0.5624,0.5331,0.4969,0.4789,0.4398,0.3834,0.3436,0.2961,0.243,0.2374,0.2374,0.2321,0.2035,0.1763,0.1516,0.1214,0.092,0.0719,0.0697,0.0697,0.0697,0.0652,0.0562,0.0381,0.0085,-0.0223,-0.051,-0.0643,-0.0837,-0.111,-0.1276,-0.1494,-0.1761,-0.1911,-0.1978,-0.2031,-0.2081,-0.2097,-0.2097,-0.2097,-0.2097,-0.2114,-0.2217,-0.2387,-0.258,-0.2973,-0.3352,-0.3679,-0.4181,-0.4533,-0.4807,-0.5369,-0.5851,-0.59,-0.6179,-0.641,-0.6416,-0.6517,-0.656,-0.6602,-0.7076,-0.7627,-0.8,-0.8144,-0.8247,-0.8431,-0.8492,-0.8724,-0.9105,-0.9246,-0.9165,-0.8923,-0.8793,-0.8906,-0.9388,-0.9534,-0.9547,-0.9472,-0.9272,-0.8902,-0.8639,-0.8048,-0.7645,-0.7763,-0.7636,-0.7695,-0.7695,-0.7695,-0.7695,-0.7695,-0.7695,-0.7759,-0.7935,-0.7798,-0.8073,1.2133,1.1285,1.07,1.0331,1.003,0.9415,0.9036,0.8775,0.8441,0.814,0.7804,0.726,0.6984,0.6926,0.6578,0.642,0.6387,0.6251,0.6181,0.6181,0.5987,0.5743,0.5508,0.5301,0.4904,0.4364,0.3897,0.3405,0.3044,0.2991,0.2991,0.298,0.2581,0.2263,0.1937,0.1585,0.1256,0.0988,0.0898,0.0876,0.0831,0.0787,0.0742,0.0672,0.0437,0.0211,0.002,-0.0151,-0.0377,-0.0607,-0.085,-0.1092,-0.1427,-0.1661,-0.1809,-0.1895,-0.2014,-0.2097,-0.2097,-0.2097,-0.2097,-0.2097,-0.2183,-0.2284,-0.245,-0.2762,-0.3043,-0.3328,-0.3826,-0.4243,-0.4551,-0.5239,-0.5812,-0.5931,-0.6178,-0.6361,-0.6389,-0.641,-0.6453,-0.6547,-0.6859,-0.7231,-0.753,-0.7593,-0.7739,-0.7931,-0.7972,-0.8165,-0.8488,-0.857,-0.8447,-0.8036,-0.8036,-0.8345,-0.8805,-0.9056,-0.9415,-0.9409,-0.9205,-0.8839,-0.8442,-0.7757,-0.7329,-0.7435,-0.7534,-0.7637,-0.7695,-0.7695,-0.7695,-0.7681,-0.7695,-0.7725,-0.7768,-0.7725,-0.7954,1.2657,1.2231,1.1855,1.1403,1.0999,1.0426,0.997,0.9561,0.9003,0.8556,0.8206,0.7402,0.7126,0.6985,0.6713,0.6453,0.6453,0.6346,0.6247,0.6181,0.602,0.5864,0.5711,0.5402,0.5054,0.4672,0.4104,0.3771,0.3663,0.3635,0.3663,0.3561,0.3226,0.2856,0.2509,0.217,0.1815,0.1523,0.1387,0.1254,0.112,0.0988,0.0854,0.0719,0.0672,0.0637,0.0653,0.0405,0.0128,-0.0108,-0.0328,-0.0623,-0.1043,-0.1343,-0.1542,-0.1694,-0.1931,-0.2081,-0.2081,-0.2081,-0.2081,-0.2097,-0.2097,-0.2183,-0.2334,-0.255,-0.2746,-0.2918,-0.3446,-0.3944,-0.4169,-0.481,-0.5424,-0.5777,-0.6028,-0.6264,-0.6367,-0.641,-0.6474,-0.6632,-0.6802,-0.6984,-0.7132,-0.7167,-0.7245,-0.7398,-0.7461,-0.7544,-0.7746,-0.7787,-0.7538,-0.728,-0.7391,-0.7787,-0.8172,-0.8582,-0.9036,-0.9363,-0.9118,-0.883,-0.8549,-0.8007,-0.7436,-0.7416,-0.7505,-0.7598,-0.7622,-0.7637,-0.7652,-0.7652,-0.7666,-0.7652,-0.7652,-0.7652,-0.7681,1.282,1.2673,1.2298,1.204,1.1855,1.1292,1.0881,1.0545,0.9836,0.9354,0.901,0.816,0.7761,0.767,0.7348,0.7101,0.6942,0.6778,0.6548,0.635,0.6288,0.6164,0.599,0.5689,0.531,0.49,0.465,0.4539,0.4487,0.446,0.4447,0.4237,0.3917,0.3544,0.3117,0.2801,0.2455,0.2164,0.1943,0.1722,0.1456,0.1277,0.1033,0.0742,0.0697,0.0692,0.0703,0.0526,0.0322,0.011,-0.0035,-0.0286,-0.0639,-0.0941,-0.1177,-0.1362,-0.1594,-0.1776,-0.1826,-0.1911,-0.1978,-0.2031,-0.2064,-0.2167,-0.2286,-0.2397,-0.253,-0.2623,-0.3126,-0.3567,-0.3851,-0.4306,-0.4893,-0.5524,-0.594,-0.6206,-0.6346,-0.6389,-0.6438,-0.6468,-0.6538,-0.6581,-0.6645,-0.6666,-0.6745,-0.6838,-0.6859,-0.6943,-0.7154,-0.7245,-0.7217,-0.7042,-0.7175,-0.7265,-0.7676,-0.8049,-0.8451,-0.8812,-0.8753,-0.8734,-0.8499,-0.8202,-0.7682,-0.733,-0.7435,-0.7451,-0.748,-0.751,-0.748,-0.751,-0.748,-0.751,-0.7554,-0.7539,-0.7495,1.3119,1.3083,1.2856,1.2753,1.2709,1.2268,1.1892,1.1558,1.0887,1.0443,1.0006,0.9124,0.8709,0.8578,0.8169,0.7819,0.7559,0.7265,0.6942,0.6585,0.6416,0.6351,0.6217,0.5863,0.5469,0.5084,0.4958,0.4901,0.4901,0.4897,0.4821,0.4687,0.4462,0.4107,0.3678,0.3375,0.3086,0.2773,0.2519,0.2212,0.188,0.1657,0.1367,0.101,0.0943,0.092,0.0916,0.0755,0.0572,0.0374,0.0245,0.0051,-0.0202,-0.0454,-0.069,-0.0908,-0.1125,-0.1341,-0.146,-0.1628,-0.1776,-0.1895,-0.2031,-0.2131,-0.2217,-0.2264,-0.2309,-0.2477,-0.276,-0.3108,-0.3392,-0.3816,-0.4321,-0.4748,-0.5416,-0.5927,-0.6147,-0.6325,-0.6346,-0.6361,-0.6367,-0.6389,-0.641,-0.641,-0.6425,-0.6483,-0.6498,-0.6568,-0.6816,-0.6886,-0.6859,-0.688,-0.6958,-0.7091,-0.7238,-0.7551,-0.7855,-0.8131,-0.8307,-0.8393,-0.8367,-0.8123,-0.7714,-0.7273,-0.7205,-0.7005,-0.699,-0.7092,-0.7121,-0.7181,-0.7235,-0.7166,-0.7136,-0.7127,-0.7157,1.3492,1.3492,1.3492,1.3419,1.3419,1.32,1.2856,1.2519,1.1929,1.1446,1.0997,1.0154,0.9748,0.9605,0.9025,0.8576,0.8231,0.7782,0.7396,0.704,0.6712,0.6519,0.6306,0.5929,0.5537,0.5243,0.5031,0.4932,0.4956,0.4987,0.4921,0.4888,0.4756,0.4514,0.4143,0.3921,0.3635,0.3338,0.3075,0.2765,0.239,0.217,0.1882,0.1521,0.1433,0.1365,0.129,0.1072,0.0861,0.0642,0.0513,0.0403,0.0252,0.0034,-0.0219,-0.042,-0.0656,-0.0858,-0.1076,-0.131,-0.1509,-0.1642,-0.1878,-0.2081,-0.2064,-0.2104,-0.2184,-0.2305,-0.2482,-0.2666,-0.2983,-0.3347,-0.3642,-0.3854,-0.4797,-0.5474,-0.5766,-0.6099,-0.6212,-0.6227,-0.6319,-0.6389,-0.6389,-0.641,-0.6432,-0.6468,-0.6483,-0.6553,-0.6617,-0.666,-0.6587,-0.6645,-0.6753,-0.6886,-0.7034,-0.7118,-0.7405,-0.7551,-0.7781,-0.7929,-0.8157,-0.7983,-0.7758,-0.7332,-0.6807,-0.6612,-0.6551,-0.6656,-0.6768,-0.6829,-0.6798,-0.6715,-0.673,-0.6783,-0.6844,1.3492,1.3492,1.3492,1.3492,1.3455,1.3309,1.3156,1.2973,1.2415,1.2114,1.1769,1.098,1.0597,1.0501,0.9825,0.9384,0.9069,0.8522,0.8134,0.7814,0.7396,0.6813,0.6332,0.5998,0.5731,0.5497,0.5306,0.5215,0.5187,0.5187,0.5151,0.5043,0.4993,0.4778,0.4438,0.4322,0.4199,0.4013,0.3744,0.3454,0.312,0.2835,0.2568,0.2228,0.2099,0.1899,0.1646,0.1227,0.0933,0.0785,0.0682,0.0555,0.0388,0.0186,0.0017,-0.0101,-0.0303,-0.0487,-0.0672,-0.091,-0.1128,-0.1328,-0.1543,-0.1742,-0.1814,-0.1989,-0.2129,-0.2255,-0.2467,-0.2706,-0.2888,-0.3138,-0.3404,-0.3788,-0.4539,-0.5236,-0.5421,-0.5685,-0.5933,-0.6163,-0.6227,-0.6276,-0.6346,-0.6389,-0.6389,-0.6432,-0.6432,-0.6432,-0.6496,-0.6496,-0.648,-0.6523,-0.6596,-0.6708,-0.6793,-0.6836,-0.6935,-0.7041,-0.7224,-0.7405,-0.7681,-0.785,-0.7613,-0.7314,-0.6538,-0.6153,-0.6199,-0.6283,-0.6367,-0.6466,-0.6489,-0.6474,-0.6528,-0.6573,-0.6558,1.3492,1.3492,1.3492,1.3492,1.3492,1.3382,1.3339,1.3273,1.2973,1.279,1.2615,1.1935,1.1567,1.1506,1.0769,1.0288,1.0002,0.9416,0.9005,0.8716,0.8323,0.7639,0.6885,0.6419,0.6122,0.5906,0.5578,0.5392,0.5301,0.5301,0.5264,0.5199,0.5194,0.5007,0.465,0.4622,0.45,0.4303,0.4078,0.3836,0.3539,0.3341,0.3098,0.2829,0.2632,0.2364,0.1932,0.1505,0.1179,0.0954,0.0806,0.0696,0.0576,0.0417,0.0293,0.022,0.0101,-0.0017,-0.0186,-0.0411,-0.0644,-0.0857,-0.1094,-0.1271,-0.1444,-0.1702,-0.194,-0.217,-0.2475,-0.2738,-0.2893,-0.3024,-0.3145,-0.335,-0.3924,-0.4491,-0.487,-0.5236,-0.5518,-0.5777,-0.5949,-0.6034,-0.619,-0.6276,-0.634,-0.6389,-0.641,-0.641,-0.641,-0.641,-0.641,-0.6453,-0.6496,-0.6602,-0.6645,-0.6687,-0.6793,-0.6872,-0.6977,-0.7097,-0.7307,-0.7614,-0.7525,-0.716,-0.6343,-0.5834,-0.5936,-0.6013,-0.6052,-0.6145,-0.6199,-0.6214,-0.623,-0.6307,-0.6291,1.3492,1.3492,1.3492,1.3492,1.3492,1.3492,1.3492,1.3492,1.3419,1.339,1.3186,1.2747,1.2321,1.2404,1.1425,1.1083,1.0769,1.0186,0.9831,0.948,0.9154,0.857,0.7756,0.7028,0.66,0.6309,0.5856,0.5538,0.5352,0.5301,0.5301,0.5273,0.5277,0.5115,0.482,0.4759,0.4605,0.4337,0.4192,0.4016,0.381,0.37,0.3587,0.3388,0.3098,0.2765,0.2326,0.1923,0.154,0.1121,0.093,0.0818,0.0788,0.0673,0.0567,0.0477,0.042,0.037,0.0288,0.0,-0.0179,-0.0395,-0.0579,-0.0757,-0.1035,-0.1357,-0.1698,-0.1937,-0.2377,-0.259,-0.2717,-0.2798,-0.2818,-0.2887,-0.2929,-0.3413,-0.4114,-0.4648,-0.498,-0.5253,-0.5458,-0.5674,-0.5911,-0.6083,-0.6212,-0.6389,-0.641,-0.641,-0.641,-0.641,-0.641,-0.641,-0.6453,-0.6511,-0.6538,-0.6544,-0.6687,-0.6787,-0.6907,-0.7013,-0.7083,-0.7265,-0.7342,-0.7019,-0.6303,-0.5907,-0.5834,-0.5858,-0.5896,-0.5889,-0.5982,-0.5912,-0.585,-0.5967,-0.5998,1.3492,1.3492,1.3492,1.3492,1.3492,1.3492,1.3492,1.3492,1.3492,1.3367,1.3067,1.2653,1.2353,1.2065,1.1567,1.1247,1.1115,1.0667,1.0218,0.9926,0.9831,0.9474,0.8759,0.7928,0.7111,0.6582,0.6021,0.5603,0.5407,0.538,0.5329,0.5325,0.5332,0.5143,0.4861,0.4796,0.4629,0.4363,0.4258,0.421,0.4166,0.4122,0.4074,0.3965,0.3631,0.33,0.2898,0.2346,0.1956,0.1703,0.1334,0.103,0.0854,0.0769,0.0677,0.0546,0.0487,0.0454,0.0354,0.0188,0.0034,-0.007,-0.0201,-0.0407,-0.0633,-0.1019,-0.1363,-0.165,-0.1992,-0.2189,-0.2237,-0.2373,-0.2415,-0.246,-0.2707,-0.2976,-0.3265,-0.3667,-0.4104,-0.4451,-0.4801,-0.5154,-0.5539,-0.575,-0.597,-0.6303,-0.6389,-0.6389,-0.6389,-0.6389,-0.6239,-0.6153,-0.6282,-0.6276,-0.6233,-0.6282,-0.6425,-0.6547,-0.6717,-0.6844,-0.6893,-0.7034,-0.7154,-0.6857,-0.6343,-0.6084,-0.6023,-0.5913,-0.5989,-0.59,-0.5862,-0.5935,-0.5979,-0.5913,-0.5803,1.3492,1.3492,1.3492,1.3492,1.3492,1.3492,1.3492,1.3492,1.3492,1.3316,1.2987,1.2665,1.2302,1.1981,1.1619,1.1428,1.1397,1.1178,1.0926,1.0793,1.0742,1.0417,0.9821,0.9023,0.8155,0.7056,0.6516,0.6096,0.5814,0.5677,0.5654,0.5622,0.5572,0.5369,0.5014,0.4907,0.4712,0.4461,0.432,0.4298,0.4298,0.4298,0.4254,0.417,0.388,0.3612,0.3258,0.2768,0.2437,0.2169,0.1801,0.1359,0.0997,0.0868,0.0728,0.0615,0.0522,0.0488,0.0421,0.0378,0.0333,0.0297,0.0224,0.0077,-0.0157,-0.0519,-0.0796,-0.1045,-0.1348,-0.1614,-0.1636,-0.1748,-0.1856,-0.2121,-0.246,-0.2707,-0.2776,-0.3065,-0.3331,-0.3704,-0.4118,-0.4644,-0.5031,-0.5291,-0.562,-0.589,-0.5976,-0.6003,-0.626,-0.6196,-0.5831,-0.5766,-0.5938,-0.5997,-0.5927,-0.5992,-0.612,-0.6249,-0.6383,-0.6511,-0.6617,-0.6795,-0.7,-0.6719,-0.6493,-0.647,-0.6392,-0.626,-0.6193,-0.6268,-0.6297,-0.6256,-0.6224,-0.6248,-0.6054,1.3564,1.3528,1.3492,1.3528,1.3535,1.3564,1.3593,1.3601,1.3601,1.3372,1.2928,1.2628,1.2273,1.1923,1.1723,1.1599,1.1591,1.156,1.1428,1.1428,1.1404,1.0945,1.0355,0.9862,0.9118,0.7684,0.7204,0.682,0.648,0.6268,0.6213,0.6082,0.595,0.5633,0.5274,0.5075,0.4832,0.4533,0.439,0.432,0.4298,0.4298,0.4232,0.4148,0.4038,0.3836,0.3575,0.3195,0.2884,0.266,0.2375,0.1934,0.1445,0.1037,0.0852,0.079,0.0645,0.0572,0.0592,0.0592,0.0625,0.0638,0.069,0.0577,0.0291,0.0021,-0.0177,-0.0424,-0.0718,-0.103,-0.1007,-0.1164,-0.1386,-0.1674,-0.2123,-0.2417,-0.2484,-0.2667,-0.2821,-0.3065,-0.3524,-0.4023,-0.4443,-0.477,-0.5123,-0.5431,-0.5496,-0.5653,-0.589,-0.5933,-0.5545,-0.5355,-0.5523,-0.5583,-0.5534,-0.5512,-0.5663,-0.5771,-0.5927,-0.6077,-0.6233,-0.6547,-0.6753,-0.6958,-0.6861,-0.6736,-0.6676,-0.6605,-0.661,-0.6707,-0.6543,-0.6297,-0.6382,-0.6589,-0.6341,1.3891,1.3717,1.3572,1.3608,1.3746,1.392,1.3985,1.4021,1.3977,1.353,1.2855,1.2567,1.2175,1.1797,1.1643,1.1591,1.1591,1.1591,1.1591,1.1591,1.1569,1.1179,1.0523,1.0322,0.9659,0.8722,0.8043,0.761,0.731,0.7149,0.6858,0.6566,0.6381,0.5984,0.5467,0.5148,0.4998,0.467,0.4521,0.4456,0.4386,0.4342,0.432,0.4276,0.4228,0.4122,0.395,0.366,0.341,0.3262,0.2946,0.2651,0.2275,0.1745,0.1339,0.1056,0.0837,0.0722,0.0741,0.0753,0.0791,0.084,0.0856,0.0807,0.0621,0.041,0.029,0.0157,-0.0179,-0.0514,-0.0537,-0.0627,-0.0828,-0.1164,-0.1634,-0.2176,-0.2221,-0.2333,-0.2511,-0.2779,-0.3106,-0.3385,-0.3825,-0.418,-0.4487,-0.4731,-0.484,-0.5084,-0.5393,-0.5383,-0.5161,-0.5079,-0.5079,-0.5118,-0.5096,-0.5096,-0.514,-0.5161,-0.5318,-0.5491,-0.575,-0.6212,-0.6483,-0.6477,-0.6683,-0.6715,-0.6725,-0.6699,-0.6594,-0.6382,-0.6299,-0.6235,-0.6342,-0.645,-0.6607,1.4201,1.392,1.3637,1.3681,1.3956,1.4266,1.4374,1.4314,1.4179,1.3689,1.2983,1.2469,1.2014,1.1687,1.1591,1.1591,1.1591,1.1591,1.1591,1.1591,1.1555,1.1216,1.0559,1.0501,0.9985,0.9351,0.8876,0.8455,0.7984,0.7711,0.7477,0.7208,0.6972,0.6498,0.5937,0.5766,0.541,0.503,0.4823,0.4692,0.4556,0.4517,0.4469,0.4443,0.4443,0.4386,0.428,0.41,0.3921,0.3744,0.3546,0.3327,0.301,0.2573,0.1964,0.1506,0.1127,0.0912,0.0914,0.0896,0.0912,0.093,0.0952,0.0927,0.0842,0.0726,0.0626,0.0539,0.0449,0.0179,0.0157,-0.0022,-0.0179,-0.047,-0.0963,-0.1458,-0.1885,-0.2089,-0.2312,-0.2533,-0.2751,-0.3012,-0.3278,-0.3609,-0.3854,-0.403,-0.418,-0.4447,-0.4779,-0.4731,-0.457,-0.4399,-0.436,-0.453,-0.4552,-0.4596,-0.4596,-0.4622,-0.4709,-0.4884,-0.5079,-0.5453,-0.5653,-0.5712,-0.5992,-0.6328,-0.6122,-0.5866,-0.5938,-0.6058,-0.6068,-0.6083,-0.6175,-0.6295,-0.6461,1.4617,1.4274,1.3884,1.3956,1.4346,1.4689,1.4867,1.4775,1.4576,1.4084,1.3269,1.2676,1.2173,1.186,1.1778,1.1755,1.1685,1.1685,1.1622,1.1569,1.1481,1.1121,1.0755,1.0476,1.0135,0.9616,0.9484,0.9276,0.8751,0.8408,0.8143,0.7904,0.7685,0.72,0.6643,0.6398,0.6003,0.5615,0.5313,0.5118,0.4884,0.4705,0.4613,0.4613,0.4613,0.4556,0.4495,0.4408,0.429,0.418,0.4074,0.3943,0.3741,0.3321,0.2773,0.2145,0.155,0.1259,0.1214,0.123,0.1266,0.1274,0.1195,0.1134,0.1041,0.0975,0.0876,0.0809,0.0764,0.0741,0.0695,0.0607,0.0382,0.0134,-0.0157,-0.0561,-0.1324,-0.1751,-0.2042,-0.2243,-0.2395,-0.2593,-0.2835,-0.3012,-0.3258,-0.3372,-0.3524,-0.359,-0.388,-0.3946,-0.381,-0.3546,-0.3549,-0.3854,-0.3987,-0.4052,-0.4074,-0.4096,-0.4166,-0.4298,-0.4408,-0.4609,-0.4762,-0.4997,-0.528,-0.5507,-0.5265,-0.5173,-0.5354,-0.554,-0.5738,-0.5886,-0.5954,-0.6094,-0.6236,1.5444,1.5018,1.4641,1.4713,1.5089,1.5463,1.5648,1.564,1.5573,1.5017,1.4065,1.3588,1.3011,1.2508,1.2266,1.2174,1.2019,1.1864,1.1716,1.1593,1.1327,1.1012,1.0587,1.0272,1.0016,0.9665,0.9614,0.9562,0.9302,0.9145,0.8961,0.8646,0.837,0.7986,0.7182,0.7014,0.6684,0.6197,0.5943,0.5588,0.514,0.4809,0.4705,0.4683,0.4683,0.4705,0.4688,0.4644,0.4574,0.4552,0.453,0.4469,0.4338,0.3909,0.3625,0.3141,0.2563,0.1904,0.1881,0.1873,0.1839,0.1761,0.1685,0.1542,0.1325,0.1164,0.1075,0.1075,0.1053,0.1031,0.0964,0.0808,0.0607,0.0472,0.0292,-0.0022,-0.0606,-0.137,-0.1661,-0.1524,-0.1545,-0.1967,-0.2324,-0.2479,-0.266,-0.2751,-0.2865,-0.2954,-0.2998,-0.3084,-0.3192,-0.2993,-0.2929,-0.3214,-0.3458,-0.3527,-0.3571,-0.3571,-0.366,-0.3729,-0.3862,-0.399,-0.4104,-0.4342,-0.4648,-0.484,-0.4731,-0.4748,-0.4836,-0.5009,-0.5243,-0.5491,-0.5707,-0.5847,-0.5884,1.6524,1.5974,1.5534,1.564,1.5983,1.605,1.6189,1.6313,1.6048,1.5515,1.4861,1.4279,1.3739,1.3205,1.2986,1.272,1.2474,1.2205,1.1864,1.1603,1.1277,1.0931,1.0608,1.0258,0.9929,0.9713,0.9614,0.9614,0.9562,0.9465,0.9256,0.9047,0.8876,0.852,0.7819,0.7616,0.7289,0.6839,0.6375,0.5927,0.5577,0.5318,0.5215,0.5215,0.5215,0.5188,0.5101,0.5019,0.4971,0.4949,0.4888,0.4784,0.4631,0.4316,0.4049,0.3949,0.3459,0.2923,0.2605,0.2529,0.2472,0.2306,0.2089,0.1757,0.1474,0.1321,0.1232,0.1098,0.1098,0.112,0.1142,0.1008,0.0876,0.0741,0.0652,0.0382,-0.0022,-0.0696,-0.1122,-0.0897,-0.0717,-0.1118,-0.152,-0.1744,-0.1925,-0.215,-0.2328,-0.2509,-0.244,-0.235,-0.2437,-0.2524,-0.2524,-0.2635,-0.286,-0.3018,-0.3084,-0.3106,-0.3192,-0.3281,-0.335,-0.3461,-0.366,-0.3928,-0.4254,-0.4342,-0.4254,-0.4386,-0.4578,-0.4666,-0.4731,-0.4975,-0.5176,-0.5128,-0.5231,1.7638,1.7123,1.6541,1.6515,1.6759,1.6619,1.6742,1.7005,1.666,1.6151,1.5551,1.4899,1.4292,1.3959,1.3704,1.3411,1.3017,1.2689,1.2266,1.1836,1.1421,1.1084,1.079,1.0447,1.0034,0.9777,0.9777,0.9751,0.9699,0.9595,0.9491,0.9283,0.9211,0.8945,0.8614,0.8355,0.8027,0.7442,0.6767,0.6334,0.6087,0.5927,0.5841,0.5841,0.5841,0.5798,0.5685,0.5469,0.5361,0.5258,0.5067,0.4919,0.4806,0.4626,0.4451,0.436,0.4067,0.3829,0.3455,0.3262,0.3078,0.2815,0.2393,0.1962,0.1678,0.1567,0.1567,0.1433,0.1435,0.1412,0.1366,0.1366,0.13,0.1145,0.0943,0.0719,0.045,-0.009,-0.0292,0.0,0.0112,-0.0067,-0.047,-0.0874,-0.1188,-0.1502,-0.1748,-0.1995,-0.1904,-0.1703,-0.1679,-0.1765,-0.1876,-0.1967,-0.219,-0.237,-0.2482,-0.2615,-0.2702,-0.2768,-0.279,-0.3103,-0.3439,-0.3704,-0.3858,-0.4034,-0.4056,-0.4188,-0.432,-0.4429,-0.4513,-0.4499,-0.4543,-0.4539,-0.4731,1.8707,1.8563,1.7545,1.7226,1.7373,1.7398,1.7472,1.7638,1.7566,1.7091,1.6325,1.5406,1.484,1.4647,1.446,1.4133,1.3653,1.3359,1.2964,1.2434,1.1842,1.1622,1.132,1.0866,1.0343,1.0221,1.0102,0.9991,0.9947,0.9895,0.9758,0.9595,0.955,0.9355,0.9159,0.8928,0.8473,0.7874,0.7189,0.6886,0.6668,0.6477,0.6295,0.6273,0.6246,0.6209,0.6157,0.5852,0.5615,0.5496,0.5241,0.5072,0.5024,0.4893,0.4784,0.4736,0.4666,0.4465,0.4308,0.3961,0.3722,0.3347,0.286,0.2306,0.2105,0.2237,0.2215,0.2036,0.1992,0.2016,0.1995,0.1975,0.1882,0.1703,0.1435,0.1055,0.0876,0.0718,0.0583,0.0919,0.0851,0.0559,0.0403,-0.0045,-0.0515,-0.0851,-0.0986,-0.121,-0.1232,-0.1098,-0.0941,-0.0985,-0.1097,-0.1253,-0.1477,-0.1633,-0.1832,-0.199,-0.2099,-0.2144,-0.2188,-0.2591,-0.2996,-0.3129,-0.3239,-0.3571,-0.3858,-0.3902,-0.4008,-0.421,-0.432,-0.4324,-0.439,-0.4495,-0.467,1.8875,1.8942,1.8395,1.8236,1.825,1.7915,1.7911,1.8123,1.8048,1.7676,1.7046,1.6108,1.5613,1.5497,1.5303,1.501,1.4608,1.4282,1.3863,1.3438,1.2988,1.2583,1.2214,1.1679,1.1163,1.0716,1.0462,1.0198,0.9999,1.0102,0.9973,0.9862,0.9914,0.9817,0.9652,0.9219,0.8649,0.8104,0.7552,0.7209,0.7062,0.695,0.6816,0.6719,0.6831,0.6711,0.652,0.6252,0.6023,0.5798,0.5572,0.5415,0.5306,0.5176,0.5111,0.5106,0.5036,0.5036,0.4949,0.4578,0.418,0.3803,0.3388,0.304,0.2726,0.2923,0.2898,0.2746,0.2613,0.2615,0.2593,0.2549,0.2479,0.2302,0.2014,0.159,0.13,0.1188,0.1145,0.1321,0.121,0.0985,0.0873,0.0761,0.0246,-0.0179,-0.0291,-0.0403,-0.0471,-0.056,-0.0448,-0.0448,-0.0583,-0.0716,-0.094,-0.1073,-0.1206,-0.1341,-0.1475,-0.1544,-0.1633,-0.1925,-0.2261,-0.2417,-0.2618,-0.2907,-0.3195,-0.348,-0.3726,-0.3994,-0.4148,-0.4218,-0.4302,-0.4408,-0.4561,1.8975,1.9065,1.8942,1.8841,1.8734,1.8306,1.8281,1.8516,1.8446,1.8034,1.7451,1.6582,1.6142,1.6066,1.5894,1.5633,1.5274,1.5001,1.4638,1.4266,1.3876,1.3586,1.3168,1.2592,1.1878,1.1328,1.0955,1.0702,1.048,1.0403,1.0454,1.0454,1.0377,1.0318,0.9814,0.9289,0.8676,0.8282,0.776,0.7496,0.7405,0.7398,0.7391,0.7294,0.7363,0.7286,0.7006,0.6747,0.6498,0.627,0.604,0.5841,0.5685,0.5556,0.5453,0.5431,0.5431,0.5436,0.5345,0.4992,0.453,0.4114,0.3983,0.3656,0.3498,0.352,0.3432,0.3303,0.3211,0.3186,0.3186,0.3189,0.3145,0.299,0.281,0.2433,0.1969,0.1724,0.1658,0.1636,0.1569,0.1588,0.1433,0.1321,0.0919,0.047,0.0224,0.0135,0.009,0.0022,-0.0022,-0.0067,-0.0202,-0.0336,-0.0471,-0.0493,-0.0537,-0.0672,-0.0807,-0.0964,-0.1099,-0.1369,-0.1481,-0.1569,-0.1815,-0.2194,-0.2462,-0.2682,-0.3239,-0.3821,-0.391,-0.3946,-0.4082,-0.4188,-0.4338,1.9098,1.9098,1.9098,1.8975,1.8808,1.8607,1.863,1.8744,1.8645,1.8197,1.74,1.6677,1.6278,1.6142,1.6085,1.5951,1.5759,1.5517,1.5274,1.4964,1.4764,1.4487,1.4014,1.3435,1.2759,1.2355,1.1856,1.141,1.1217,1.1167,1.1192,1.1192,1.1116,1.0845,1.0033,0.929,0.8926,0.876,0.8084,0.7833,0.7795,0.7816,0.7829,0.7793,0.7801,0.7712,0.7496,0.7196,0.6964,0.6802,0.6541,0.6343,0.62,0.5894,0.5787,0.583,0.5766,0.5766,0.5766,0.528,0.4888,0.4495,0.4364,0.4184,0.3968,0.3924,0.3943,0.3832,0.3832,0.3832,0.3854,0.3854,0.3766,0.3653,0.3495,0.3274,0.2812,0.2435,0.237,0.2348,0.2326,0.2281,0.2083,0.186,0.1526,0.1167,0.0831,0.0674,0.0606,0.0516,0.0426,0.0403,0.0291,0.0224,0.0134,0.0157,0.0112,-0.0022,-0.018,-0.0359,-0.0539,-0.0763,-0.0831,-0.0808,-0.1122,-0.1591,-0.1727,-0.1861,-0.2506,-0.3109,-0.3505,-0.3634,-0.3788,-0.3965,-0.414,1.9098,1.9098,1.9098,1.9075,1.8998,1.8942,1.8942,1.8862,1.8347,1.7719,1.7163,1.6583,1.6374,1.6306,1.6278,1.622,1.6134,1.6144,1.5933,1.5864,1.5664,1.5509,1.5074,1.4389,1.3724,1.3148,1.2563,1.2008,1.1751,1.1794,1.176,1.176,1.1719,1.1343,1.0598,0.9859,0.9337,0.9013,0.8389,0.7925,0.7959,0.8036,0.8085,0.8021,0.8057,0.8002,0.7857,0.7538,0.7384,0.7301,0.7042,0.6915,0.6732,0.6422,0.6301,0.6343,0.6301,0.6237,0.62,0.59,0.5496,0.5062,0.4762,0.467,0.4517,0.4495,0.4473,0.4381,0.436,0.436,0.436,0.4355,0.429,0.429,0.4158,0.4074,0.3744,0.341,0.3233,0.3233,0.3211,0.2923,0.2702,0.2546,0.2235,0.1947,0.1657,0.1188,0.1009,0.0919,0.0829,0.0874,0.0851,0.0784,0.074,0.0763,0.0695,0.0561,0.0359,0.018,-0.0022,-0.018,-0.0382,-0.0494,-0.0718,-0.0988,-0.1167,-0.1391,-0.1839,-0.2328,-0.2657,-0.3009,-0.3208,-0.3542,-0.3968,1.9098,1.9098,1.9098,1.9098,1.9098,1.9098,1.9025,1.8756,1.8019,1.7451,1.6996,1.6581,1.6374,1.6402,1.6402,1.6402,1.6402,1.6374,1.6374,1.6402,1.6363,1.6131,1.5752,1.5163,1.4409,1.3799,1.3129,1.2559,1.2338,1.2314,1.2314,1.2314,1.2289,1.2017,1.1316,1.052,0.9673,0.923,0.8612,0.8028,0.807,0.8118,0.8167,0.816,0.816,0.8134,0.8002,0.7891,0.7767,0.7697,0.7607,0.751,0.7252,0.7048,0.6901,0.6901,0.6915,0.681,0.6704,0.6577,0.6109,0.5577,0.535,0.5198,0.5106,0.5062,0.4954,0.4884,0.4818,0.4753,0.4736,0.4731,0.4709,0.4688,0.4622,0.4495,0.4429,0.4074,0.3943,0.3965,0.3766,0.3498,0.3319,0.3186,0.2987,0.2743,0.2499,0.199,0.15,0.141,0.1497,0.1698,0.1611,0.1499,0.1454,0.1387,0.1299,0.1121,0.0942,0.0785,0.0539,0.0381,0.0112,-0.0157,-0.0337,-0.0494,-0.0674,-0.0966,-0.1234,-0.1479,-0.1701,-0.2099,-0.2521,-0.299,-0.3483,1.9142,1.9098,1.9098,1.9131,1.9142,1.9145,1.8863,1.8372,1.7884,1.742,1.6944,1.6539,1.6402,1.6402,1.6402,1.6402,1.6402,1.6402,1.6402,1.6402,1.6402,1.634,1.6022,1.5324,1.4781,1.4286,1.3646,1.3007,1.292,1.2886,1.2886,1.2895,1.2886,1.2666,1.2052,1.1219,1.0309,0.9681,0.8942,0.8456,0.8397,0.8332,0.8394,0.8414,0.8414,0.836,0.827,0.816,0.809,0.8021,0.8,0.7946,0.7808,0.7587,0.751,0.7461,0.7461,0.737,0.7231,0.7084,0.681,0.6343,0.6034,0.5825,0.5674,0.5556,0.5426,0.5296,0.5188,0.5067,0.4985,0.4963,0.4937,0.4893,0.4845,0.4828,0.4832,0.4701,0.4609,0.4478,0.4188,0.399,0.3921,0.3807,0.369,0.3583,0.3319,0.2943,0.2477,0.2099,0.2299,0.2876,0.2699,0.2324,0.219,0.2055,0.1878,0.1701,0.1611,0.1454,0.1208,0.0986,0.0785,0.0516,0.0202,0.0,-0.0135,-0.0292,-0.0494,-0.0696,-0.0942,-0.1366,-0.1876,-0.2326,-0.2729,1.944,1.944,1.944,1.9539,1.9617,1.9404,1.8786,1.7957,1.773,1.7326,1.656,1.6464,1.6459,1.6402,1.6402,1.6402,1.6402,1.6402,1.6402,1.6402,1.6402,1.6402,1.6042,1.5467,1.5021,1.4558,1.3991,1.3358,1.3382,1.3382,1.3368,1.3392,1.3344,1.3238,1.2799,1.2122,1.1242,1.0347,0.9507,0.9077,0.8827,0.879,0.881,0.8793,0.8753,0.872,0.868,0.8529,0.8439,0.837,0.8304,0.8229,0.8085,0.7878,0.7767,0.7787,0.7801,0.7793,0.7697,0.7558,0.7349,0.7133,0.6929,0.6562,0.6301,0.6066,0.5894,0.5707,0.5512,0.5393,0.5203,0.5137,0.5116,0.5089,0.5046,0.5024,0.5029,0.5007,0.4941,0.4915,0.4653,0.4583,0.4517,0.4447,0.4351,0.4312,0.4136,0.3759,0.3385,0.2987,0.3053,0.3653,0.3568,0.3101,0.2812,0.2657,0.2479,0.2302,0.2255,0.2166,0.1967,0.1746,0.1502,0.1234,0.092,0.0674,0.045,0.0292,0.0112,-0.0045,-0.0292,-0.0762,-0.121,-0.1657,-0.2016,1.9791,1.9791,1.9802,1.9911,2.0025,1.9843,1.9129,1.822,1.7905,1.7341,1.6757,1.6733,1.6733,1.6733,1.6705,1.6648,1.6573,1.6506,1.6449,1.6402,1.6402,1.6402,1.6091,1.5515,1.509,1.4676,1.42,1.3549,1.361,1.361,1.3597,1.3573,1.361,1.3515,1.3233,1.2785,1.2167,1.1256,1.0442,0.9884,0.9579,0.9365,0.9257,0.9254,0.9194,0.9134,0.9105,0.8915,0.8671,0.8582,0.8496,0.8373,0.827,0.8147,0.8085,0.8106,0.8139,0.8098,0.8002,0.794,0.7795,0.7704,0.7655,0.7419,0.7056,0.6761,0.6407,0.6114,0.5879,0.5669,0.5458,0.5268,0.529,0.5285,0.5241,0.5176,0.5203,0.5203,0.5224,0.5263,0.5219,0.5176,0.5128,0.5058,0.4988,0.4944,0.4792,0.4508,0.4136,0.3763,0.3895,0.4364,0.4166,0.3814,0.3546,0.3281,0.3145,0.3056,0.3012,0.2901,0.2724,0.2504,0.2261,0.1971,0.166,0.1502,0.139,0.094,0.0716,0.0559,0.0446,0.0178,-0.0334,-0.0962,-0.1276,2.0204,2.0193,2.0226,2.0312,2.0339,2.032,1.9757,1.8851,1.828,1.7728,1.7334,1.7262,1.7273,1.7262,1.7162,1.6994,1.6835,1.6684,1.6506,1.6402,1.6402,1.6402,1.6143,1.5535,1.5173,1.4738,1.4262,1.3731,1.3631,1.361,1.361,1.361,1.361,1.3539,1.3413,1.3287,1.2836,1.2391,1.1467,1.0733,1.0398,1.0049,0.9741,0.971,0.96,0.945,0.9386,0.9136,0.8741,0.8741,0.8631,0.8496,0.8475,0.8475,0.8455,0.8455,0.8475,0.8435,0.8373,0.8332,0.8242,0.8152,0.8082,0.8062,0.7827,0.7377,0.6958,0.6641,0.6428,0.62,0.5992,0.5884,0.5863,0.5863,0.5841,0.5604,0.5371,0.5588,0.5992,0.597,0.5841,0.582,0.5814,0.5744,0.5744,0.5642,0.5486,0.5243,0.4879,0.453,0.4666,0.498,0.474,0.4451,0.421,0.3965,0.3873,0.3785,0.3763,0.3634,0.3454,0.3236,0.2998,0.2732,0.2464,0.2529,0.239,0.184,0.1384,0.1269,0.116,0.1102,0.0642,-0.0022,-0.0604,2.088,2.0955,2.121,2.1233,2.1033,2.0688,2.0153,1.946,1.8944,1.8406,1.7952,1.7886,1.7886,1.7859,1.7639,1.7418,1.714,1.6937,1.6648,1.6506,1.6449,1.6506,1.6337,1.5862,1.5382,1.4914,1.4438,1.3928,1.3754,1.3668,1.3644,1.3621,1.3668,1.3668,1.3586,1.3505,1.3392,1.3251,1.2728,1.189,1.1424,1.1307,1.1152,1.0804,1.0534,1.0235,1.0091,0.9793,0.9506,0.9328,0.9007,0.8895,0.8854,0.8854,0.8854,0.8874,0.8874,0.8854,0.8834,0.8814,0.8785,0.8773,0.8744,0.8744,0.8521,0.7995,0.7572,0.728,0.7,0.6768,0.6577,0.652,0.6456,0.6435,0.6435,0.6034,0.5653,0.6163,0.6738,0.6632,0.6483,0.6456,0.6456,0.6456,0.6456,0.6386,0.6289,0.607,0.568,0.534,0.5248,0.5426,0.5285,0.5046,0.4845,0.4688,0.4596,0.4504,0.4461,0.4334,0.4162,0.3682,0.3287,0.3379,0.3312,0.322,0.2964,0.2437,0.2075,0.1949,0.1775,0.1666,0.1642,0.1133,0.0398,2.1366,2.1663,2.2006,2.1838,2.1394,2.1096,2.052,1.9783,1.9466,1.9174,1.8818,1.8617,1.8494,1.8467,1.8213,1.7929,1.76,1.7329,1.7088,1.6835,1.6779,1.679,1.657,1.6322,1.5839,1.5345,1.4676,1.4167,1.4007,1.3975,1.3975,1.3975,1.3975,1.3952,1.3894,1.3871,1.3858,1.3836,1.3644,1.3196,1.2507,1.2316,1.2095,1.1714,1.1236,1.0985,1.0915,1.0616,1.0244,0.9932,0.9588,0.9441,0.941,0.943,0.937,0.9379,0.9399,0.9399,0.9379,0.9359,0.937,0.9359,0.9348,0.9339,0.9211,0.8728,0.8423,0.8129,0.7765,0.7516,0.7224,0.7105,0.7027,0.6985,0.6992,0.6781,0.6816,0.7175,0.7286,0.7055,0.6971,0.6971,0.6971,0.6985,0.6985,0.6992,0.6909,0.6902,0.6513,0.6264,0.6151,0.6066,0.6029,0.5943,0.5852,0.5588,0.5329,0.5265,0.5178,0.4857,0.4556,0.3972,0.3578,0.3622,0.3644,0.3622,0.3299,0.2947,0.2762,0.2639,0.2427,0.2202,0.2167,0.2147,0.1557,2.159,2.2145,2.239,2.2134,2.1528,2.1393,2.0763,1.9898,1.9798,1.9773,1.9643,1.9265,1.9119,1.9013,1.8827,1.8536,1.8228,1.7968,1.765,1.7496,1.7401,1.7457,1.7324,1.7059,1.6587,1.5864,1.5078,1.4769,1.4558,1.4547,1.4547,1.4535,1.4512,1.4478,1.4362,1.4258,1.4235,1.4163,1.4066,1.4063,1.3649,1.321,1.2859,1.2362,1.1911,1.1567,1.1636,1.1404,1.095,1.0553,1.0157,1.0011,0.9972,0.9952,0.9942,0.9923,0.9942,0.9942,0.9923,0.9933,0.9933,0.9942,0.9923,0.9864,0.9737,0.9559,0.9262,0.9002,0.8647,0.8259,0.7972,0.7773,0.7676,0.7558,0.7538,0.7524,0.7787,0.7995,0.7767,0.7524,0.7524,0.7545,0.7538,0.7538,0.7538,0.7517,0.7517,0.7517,0.7475,0.7342,0.7217,0.7168,0.7147,0.7042,0.6852,0.6422,0.6054,0.6017,0.5894,0.5443,0.4949,0.4403,0.4012,0.3818,0.384,0.4082,0.3911,0.3584,0.3427,0.3279,0.2901,0.2626,0.2642,0.2585,0.2509,2.1382,2.1834,2.1621,2.1487,2.143,2.1056,2.0453,1.9874,1.9824,1.9798,1.9798,1.9747,1.9656,1.9618,1.9382,1.9107,1.8845,1.8605,1.8444,1.8294,1.8213,1.824,1.8147,1.7889,1.7528,1.6728,1.5834,1.5336,1.5187,1.5175,1.5198,1.5198,1.5198,1.5153,1.504,1.488,1.4628,1.4547,1.4373,1.4292,1.4326,1.3941,1.361,1.3371,1.3358,1.269,1.2159,1.1623,1.1227,1.0878,1.063,1.0534,1.0495,1.0485,1.0476,1.0476,1.0495,1.0476,1.0476,1.0466,1.0476,1.0476,1.0457,1.0438,1.036,1.0341,1.0147,1.0069,0.9667,0.9139,0.8837,0.8602,0.8459,0.8242,0.8126,0.8147,0.827,0.8332,0.8242,0.816,0.816,0.816,0.816,0.816,0.816,0.8139,0.8147,0.8139,0.8015,0.8106,0.8175,0.8126,0.8057,0.8008,0.7752,0.714,0.6782,0.6747,0.6626,0.6194,0.5631,0.4923,0.4535,0.4298,0.4517,0.4845,0.4597,0.4377,0.3979,0.3774,0.3291,0.3019,0.3071,0.3025,0.2919]}]]